[[{"header":{"parameterUnit":"m.s-1","parameterCategory":1,"la1":30.6,"la2":28.766,"lo1":-90.7593,"lo2":-88.6598,"dy":0.0162,"dx":0.0183,"nx":116,"ny":114,"refTime":"2024-06-04T18:00:00:Z","depth":0,"parameterNumber":2,"parameterNumberName":"U-component_of_WINDS"},"data":[0.0,0.0,0.0,0.0,0.0,0.0,0.0,0.0,0.0,0.0,0.0,0.0,0.0,0.0,0.0,0.0,0.0,0.0,0.0,0.0,0.0,0.0,0.0,0.0,0.0,0.0,0.0,0.0,0.0,0.0,0.0,0.0,0.0,0.0,0.0,0.0,0.0,0.0,0.0,0.0,0.0,0.0,0.0,0.0,0.0,0.0,0.0,0.0,0.0,0.0,0.0,0.0,0.0,0.0,0.0,0.0,0.0,0.0,0.0,0.0,0.0,0.0,0.0,0.0,0.0,0.0,0.0,0.0,0.0,0.0,0.0,0.0,0.0,0.0,0.0,0.0,0.0,0.0,0.0,0.0,0.0,0.0,0.0,0.0,0.0,0.0,0.0,0.0,0.0,0.0,0.0,0.0,0.0,0.0,0.0,0.0,0.0,0.0,0.0,0.0,0.0,0.0,0.0,0.0,0.0,0.0,0.0,0.0,0.0,0.0,0.0,0.0,0.0,0.0,0.0,0.0,0.0,0.0,0.0,0.0,0.0,0.0,0.0,0.0,0.0,0.0,0.0,0.0,0.0,0.0,0.0,0.0,0.0,0.0,0.0,0.0,0.0,0.0,0.0,0.0,0.0,0.0,0.0,0.0,0.0,0.0,0.0,0.0,0.0,0.0,0.0,0.0,0.0,0.0,0.0,0.0,0.0,0.0,0.0,0.0,0.0,0.0,0.0,0.0,0.0,0.0,0.0,0.0,0.0,0.0,0.0,0.0,0.0,0.0,0.0,0.0,0.0,0.0,0.0,0.0,0.0,0.0,0.0,0.0,0.0,0.0,0.0,0.0,0.0,0.0,0.0,0.0,0.0,0.0,0.0,0.0,0.0,0.0,0.0,0.0,0.0,0.0,0.0,0.0,0.0,0.0,0.0,0.0,0.0,0.0,0.0,0.0,0.0,0.0,0.0,0.0,0.0,0.0,0.0,0.0,0.0,0.0,0.0,0.0,0.0,0.0,0.0,0.0,0.0,0.0,0.0,0.0,0.0,0.0,0.0,0.0,0.0,0.0,0.0,0.0,0.0,0.0,0.0,0.0,0.0,0.0,0.0,0.0,0.0,0.0,0.0,0.0,0.0,0.0,0.0,0.0,0.0,0.0,0.0,0.0,0.0,0.0,0.0,0.0,0.0,0.0,0.0,0.0,0.0,0.0,0.0,0.0,0.0,0.0,0.0,0.0,0.0,0.0,0.0,0.0,0.0,0.0,0.0,0.0,0.0,0.0,0.0,0.0,0.0,0.0,0.0,0.0,0.0,0.0,0.0,0.0,0.0,0.0,0.0,0.0,0.0,0.0,0.0,0.0,0.0,0.0,0.0,0.0,0.0,0.0,0.0,0.0,0.0,0.0,0.0,0.0,0.0,0.0,0.0,0.0,0.0,0.0,0.0,0.0,0.0,0.0,0.0,0.0,0.0,0.0,0.0,0.0,0.0,0.0,0.0,0.0,0.0,0.0,0.0,0.0,0.0,0.0,0.0,0.0,0.0,0.0,0.0,0.0,0.0,0.0,0.0,0.0,0.0,0.0,0.0,0.0,0.0,0.0,0.0,0.0,0.0,0.0,0.0,0.0,0.0,0.0,0.0,0.0,0.0,0.0,0.0,0.0,0.0,0.0,0.0,0.0,0.0,0.0,0.0,0.0,0.0,0.0,0.0,0.0,0.0,0.0,0.0,0.0,0.0,0.0,0.0,0.0,0.0,0.0,0.0,0.0,0.0,0.0,0.0,0.0,0.0,0.0,0.0,0.0,0.0,0.0,0.0,0.0,0.0,0.0,0.0,0.0,0.0,0.0,0.0,0.0,0.0,0.0,0.0,0.0,0.0,0.0,0.0,0.0,0.0,0.0,0.0,0.0,0.0,0.0,0.0,0.0,0.0,0.0,0.0,0.0,0.0,0.0,0.0,0.0,0.0,0.0,0.0,0.0,0.0,0.0,0.0,0.0,0.0,0.0,0.0,0.0,0.0,0.0,0.0,0.0,0.0,0.0,0.0,0.0,0.0,0.0,0.0,0.0,0.0,0.0,0.0,0.0,0.0,0.0,0.0,0.0,0.0,0.0,0.0,0.0,0.0,0.0,0.0,0.0,0.0,0.0,0.0,0.0,0.0,0.0,0.0,0.0,0.0,0.0,0.0,0.0,0.0,0.0,0.0,0.0,0.0,0.0,0.0,0.0,0.0,0.0,0.0,0.0,0.0,0.0,0.0,0.0,0.0,0.0,0.0,0.0,0.0,0.0,0.0,0.0,0.0,0.0,0.0,0.0,0.0,0.0,0.0,0.0,0.0,0.0,0.0,0.0,0.0,0.0,0.0,0.0,0.0,0.0,0.0,0.0,0.0,0.0,0.0,0.0,0.0,0.0,0.0,0.0,0.0,0.0,0.0,0.0,0.0,0.0,0.0,0.0,0.0,0.0,0.0,0.0,0.0,0.0,0.0,0.0,0.0,0.0,0.0,0.0,0.0,0.0,0.0,0.0,0.0,0.0,0.0,0.0,0.0,0.0,0.0,0.0,0.0,0.0,0.0,0.0,0.0,0.0,0.0,0.0,0.0,0.0,0.0,0.0,0.0,0.0,0.0,0.0,0.0,0.0,0.0,0.0,0.0,0.0,0.0,0.0,0.0,0.0,0.0,0.0,0.0,0.0,0.0,0.0,0.0,0.0,0.0,0.0,0.0,0.0,0.0,0.0,0.0,0.0,0.0,0.0,0.0,0.0,0.0,0.0,0.0,0.0,0.0,0.0,0.0,0.0,0.0,0.0,0.0,0.0,0.0,0.0,0.0,0.0,0.0,0.0,0.0,0.0,0.0,0.0,0.0,0.0,0.0,0.0,0.0,0.0,0.0,0.0,0.0,0.0,0.0,0.0,0.0,0.0,0.0,0.0,0.0,0.0,0.0,0.0,0.0,0.0,0.0,0.0,0.0,0.0,0.0,0.0,0.0,0.0,0.0,0.0,0.0,0.0,0.0,0.0,0.0,0.0,0.0,0.0,0.0,0.0,0.0,0.0,0.0,0.0,0.0,0.0,0.0,0.0,0.0,0.0,0.0,0.0,0.0,0.0,0.0,0.0,0.0,0.0,0.0,0.0,0.0,0.0,0.0,0.0,0.0,0.0,0.0,0.0,0.0,0.0,0.0,0.0,0.0,0.0,0.0,0.0,0.0,0.0,0.0,0.0,0.0,0.0,0.0,0.0,0.0,0.0,0.0,0.0,0.0,0.0,0.0,0.0,0.0,0.0,0.0,0.0,0.0,0.0,0.0,0.0,0.0,0.0,0.0,0.0,0.0,0.0,0.0,0.0,0.0,0.0,0.0,0.0,0.0,0.0,0.0,0.0,0.0,0.0,0.0,0.0,0.0,0.0,0.0,0.0,0.0,0.0,0.0,0.0,0.0,0.0,0.0,0.0,0.0,0.0,0.0,0.0,0.0,0.0,0.0,0.0,0.0,0.0,0.0,0.0,0.0,0.0,0.0,0.0,0.0,0.0,0.0,0.0,0.0,0.0,0.0,0.0,0.0,0.0,0.0,0.0,0.0,0.0,0.0,0.0,0.0,0.0,0.0,0.0,0.0,0.0,0.0,0.0,0.0,0.0,0.0,0.0,0.0,0.0,0.0,0.0,0.0,0.0,0.0,0.0,0.0,0.0,0.0,0.0,0.0,0.0,0.0,0.0,0.0,0.0,0.0,0.0,0.0,0.0,0.0,0.0,0.0,0.0,0.0,0.0,0.0,0.0,0.0,0.0,0.0,0.0,0.0,0.0,0.0,0.0,0.0,0.0,0.0,0.0,0.0,0.0,0.0,0.0,0.0,0.0,0.0,0.0,0.0,0.0,0.0,0.0,0.0,0.0,0.0,0.0,0.0,0.0,0.0,0.0,0.0,0.0,0.0,0.0,0.0,0.0,0.0,0.0,0.0,0.0,0.0,0.0,0.0,0.0,0.0,0.0,0.0,0.0,0.0,0.0,0.0,0.0,0.0,0.0,0.0,0.0,0.0,0.0,0.0,0.0,0.0,0.0,0.0,0.0,0.0,0.0,0.0,0.0,0.0,0.0,0.0,0.0,0.0,0.0,0.0,0.0,0.0,0.0,0.0,0.0,0.0,0.0,0.0,0.0,0.0,0.0,0.0,0.0,0.0,0.0,0.0,0.0,0.0,0.0,0.0,0.0,0.0,0.0,0.0,0.0,0.0,0.0,0.0,0.0,0.0,0.0,0.0,0.0,0.0,0.0,0.0,0.0,0.0,0.0,0.0,0.0,0.0,0.0,0.0,0.0,0.0,0.0,0.0,0.0,0.0,0.0,0.0,0.0,0.0,0.0,0.0,0.0,0.0,0.0,0.0,0.0,0.0,0.0,0.0,0.0,0.0,0.0,0.0,0.0,0.0,0.0,0.0,0.0,0.0,0.0,0.0,0.0,0.0,0.0,0.0,0.0,0.0,0.0,0.0,0.0,0.0,0.0,0.0,0.0,0.0,0.0,0.0,0.0,0.0,0.0,0.0,0.0,0.0,0.0,0.0,0.0,0.0,0.0,0.0,0.0,0.0,0.0,0.0,0.0,0.0,0.0,0.0,0.0,0.0,0.0,0.0,0.0,0.0,0.0,0.0,0.0,0.0,0.0,0.0,0.0,0.0,0.0,0.0,0.0,0.0,0.0,0.0,0.0,0.0,0.0,0.0,0.0,0.0,0.0,0.0,0.0,0.0,0.0,0.0,0.0,0.0,0.0,0.0,0.0,0.0,0.0,0.0,0.0,0.0,0.0,0.0,0.0,0.0,0.0,0.0,0.0,0.0,0.0,0.0,0.0,0.0,0.0,0.0,0.0,0.0,0.0,0.0,0.0,0.0,0.0,0.0,0.0,0.0,0.0,0.0,0.0,0.0,0.0,0.0,0.0,0.0,0.0,0.0,0.0,0.0,0.0,0.0,0.0,0.0,0.0,0.0,0.0,0.0,0.0,0.0,0.0,0.0,0.0,0.0,0.0,0.0,0.0,0.0,0.0,0.0,0.0,0.0,0.0,0.0,0.0,0.0,0.0,0.0,0.0,0.0,0.0,0.0,0.0,0.0,0.0,0.0,0.0,0.0,0.0,0.0,0.0,0.0,0.0,0.0,0.0,0.0,0.0,0.0,0.0,0.0,0.0,0.0,0.0,0.0,0.0,0.0,0.0,0.0,0.0,0.0,0.0,0.0,0.0,0.0,0.0,0.0,0.0,0.0,0.0,0.0,0.0,0.0,0.0,0.0,0.0,0.0,0.0,0.0,0.0,0.0,0.0,0.0,0.0,0.0,0.0,0.0,0.0,0.0,0.0,0.0,0.0,0.0,0.0,0.0,0.0,0.0,0.0,0.0,0.0,0.0,0.0,0.0,0.0,0.0,0.0,0.0,0.0,0.0,0.0,0.0,0.0,0.0,0.0,0.0,0.0,0.0,0.0,0.0,0.0,0.0,0.0,0.0,0.0,0.0,0.0,0.0,0.0,0.0,0.0,0.0,0.0,0.0,0.0,0.0,0.0,0.0,0.0,0.0,0.0,0.0,0.0,0.0,0.0,0.0,0.0,0.0,0.0,0.0,0.0,0.0,0.0,0.0,0.0,0.0,0.0,0.0,0.0,0.0,0.0,0.0,0.0,0.0,0.0,0.0,0.0,0.0,0.0,0.0,0.0,0.0,0.0,0.0,0.0,0.0,0.0,0.0,0.0,0.0,0.0,0.0,0.0,0.0,0.0,0.0,0.0,0.0,0.0,0.0,0.0,0.0,0.0,0.0,0.0,0.0,0.0,0.0,0.0,0.0,0.0,0.0,0.0,0.0,0.0,0.0,0.0,0.0,0.0,0.0,0.0,0.0,0.0,0.0,0.0,0.0,0.0,0.0,0.0,0.0,0.0,0.0,0.0,0.0,0.0,0.0,0.0,0.0,0.0,0.0,0.0,0.0,0.0,0.0,0.0,0.0,0.0,0.0,0.0,0.0,0.0,0.0,0.0,0.0,0.0,0.0,0.0,0.0,0.0,0.0,0.0,0.0,0.0,0.0,0.0,0.0,0.0,0.0,0.0,0.0,0.0,0.0,0.0,0.7198,0.6006,0.0,0.0,0.0,0.0,0.0,0.0,0.0,0.0,0.0,0.0,0.0,0.0,0.0,0.0,0.0,0.0,0.0,0.0,0.0,0.0,0.0,0.0,0.0,1.2761,1.3232,1.4319,1.4433,1.4465,1.4465,0.0,0.0,0.0,0.0,0.0,1.1896,1.1614,1.1231,1.0786,1.1259,1.2349,1.3937,1.3434,1.2985,1.2566,0.0,0.0,0.0,0.0,0.0,0.0,0.0,0.0,0.0,0.0,0.0,0.0,0.0,0.0,0.0,0.0,0.0,0.0,0.0,0.0,0.0,0.0,0.0,0.0,0.0,0.0,0.0,0.0,0.0,0.0,0.0,0.0,0.0,0.0,0.0,0.0,0.0,0.0,0.0,0.0,0.0,0.0,0.0,0.0,0.0,0.0,0.0,0.0,0.0,0.0,0.0,0.0,0.0,0.0,0.0,0.0,0.0,0.0,0.0,0.0,0.0,0.0,0.0,0.0,0.0,0.0,0.0,0.0,0.0,0.0,0.7324,0.6706,0.0,0.0,0.0,0.0,0.0,0.0,0.0,0.0,0.0,0.0,0.0,0.0,0.0,0.0,0.0,0.0,0.0,0.0,0.0,0.0,0.0,1.1465,1.2512,1.2816,1.3313,1.4319,1.4397,1.436,1.43,1.4251,0.0,0.0,0.0,1.348,1.2419,1.232,1.2058,1.1618,1.2794,1.4013,1.5261,1.5261,1.498,1.4373,1.2839,0.0,0.0,0.0,0.0,0.0,0.0,0.0,0.0,0.0,0.0,0.0,0.0,0.0,0.0,0.0,0.0,0.0,0.0,0.0,0.0,0.0,0.0,0.0,0.0,0.0,0.0,0.0,0.0,0.0,0.0,0.0,0.0,0.0,0.0,0.0,0.0,0.0,0.0,0.0,0.0,0.0,0.0,0.0,0.0,0.0,0.0,0.0,0.0,0.0,0.0,0.0,0.0,0.0,0.0,0.0,0.0,0.0,0.0,0.0,0.0,0.0,0.0,0.0,0.8081,0.8007,0.7817,0.7705,0.746,0.7116,0.7129,0.7345,0.754,0.6904,0.0,0.0,0.0,0.0,0.0,0.0,0.0,0.0,0.0,0.0,0.0,0.0,0.0,0.0,0.0,0.0,0.0,0.0,0.0,1.1972,1.2692,1.3203,1.3737,1.436,1.4397,1.4165,1.3585,1.3701,0.0,0.0,1.2876,1.2614,1.2401,1.1997,1.2167,1.2932,1.4672,1.5656,1.5956,1.5701,0.0,1.6036,1.4904,1.3797,1.2842,0.0,0.0,0.0,0.0,0.0,0.0,0.0,0.0,0.0,0.0,0.0,0.0,0.0,0.0,0.0,0.0,0.0,0.0,0.0,0.0,0.0,0.0,0.0,0.0,0.0,0.0,0.0,0.0,0.0,0.0,0.0,0.0,0.0,0.0,0.0,0.0,0.0,0.0,0.0,0.0,0.0,1.1062,1.2281,0.0,0.0,0.0,0.0,0.0,0.0,0.0,0.0,0.0,0.0,0.0,0.0,0.0,0.7288,0.7802,0.7855,0.804,0.8364,0.8659,0.8481,0.7785,0.7763,0.7013,0.5664,0.6693,0.0,0.5892,0.6913,0.0,0.0,0.0,0.0,0.0,0.0,0.0,0.0,0.0,0.0,0.0,0.0,0.0,0.0,0.0,0.0,0.0,0.0,0.0,0.0,0.0,1.3753,1.4447,1.5271,1.5408,1.5134,1.4501,1.4292,1.3991,1.348,1.3091,1.2779,1.2508,1.2866,1.3555,1.4536,1.5377,1.5982,1.6328,0.0,0.0,0.0,1.5935,1.4927,1.3572,1.3418,0.0,0.0,0.0,0.0,0.0,0.0,0.0,0.0,0.0,0.0,0.0,0.0,0.0,0.0,0.0,0.0,0.0,0.0,0.0,0.0,0.0,0.0,0.0,0.0,0.0,0.0,0.0,0.0,0.0,0.0,0.0,0.0,0.0,0.0,0.0,0.0,0.0,0.0,0.0,1.0514,1.0909,1.1271,1.0491,0.9506,0.0,0.0,0.0,0.0,0.0,0.0,0.0,0.0,0.0,0.9411,0.8492,0.8413,0.9368,0.9052,0.9005,0.9249,0.8971,0.8378,0.7609,0.7153,0.627,0.5146,0.5052,0.4754,0.4385,0.5586,0.5012,0.3241,0.0,0.0,0.0,0.0,0.0335,0.0334,0.0,0.0,0.0,0.0,0.0,0.0,0.0,0.0,0.0,0.0,0.0,0.0,1.3489,1.4241,1.4929,1.5589,1.5837,1.5626,0.0,0.0,1.4375,1.3728,1.3333,1.301,1.2827,1.3815,1.4672,1.541,1.567,1.5923,0.0,0.0,0.0,0.0,0.0,0.0,0.0,0.0,0.0,0.0,0.0,0.0,0.0,0.0,0.0,0.0,0.0,0.0,0.0,0.0,0.0,0.0,0.0,0.0,0.0,0.0,0.0,0.0,0.0,0.0,0.0,0.0,0.0,0.0,0.0,0.0,0.0,0.0,0.0,0.0,0.0,0.0,0.0,0.0,0.0,0.0,0.0,1.0986,1.1107,1.045,1.0444,0.9818,0.0,0.0,0.0,0.0,0.0,0.0,0.9307,0.8594,0.8617,0.9647,0.9108,0.9348,1.0438,0.9533,0.9231,0.9377,0.8461,0.7613,0.6754,0.6146,0.53,0.4295,0.3517,0.3051,0.2887,0.3695,0.3923,0.3518,0.1553,0.0762,0.0759,0.0779,0.0778,0.0772,0.0,0.0,0.0,0.0,0.0,0.0,0.0,0.0,0.0,0.0,0.0,1.3517,1.3495,1.4501,1.4972,1.4436,1.4931,1.4768,0.0,0.0,1.4312,1.321,1.2996,1.3092,1.3431,1.4382,1.4875,0.0,0.0,0.0,0.0,0.0,0.0,0.0,0.0,0.0,0.0,0.0,0.0,1.3796,0.0,0.0,0.0,0.0,0.0,0.0,0.0,0.0,0.0,0.0,0.0,0.0,0.0,0.0,0.0,0.0,0.0,0.0,0.0,0.0,0.0,0.0,0.0,0.0,0.0,0.0,0.0,0.0,0.0,0.0,0.0,0.0,0.0,0.0,0.0,0.0,0.0,0.0,0.0,1.0214,1.1108,0.0,0.0,0.0,0.0,0.8254,0.8159,0.8523,0.9355,0.9092,0.9401,1.0392,0.9664,0.9301,0.9397,0.838,0.7914,0.7914,0.6839,0.5841,0.4841,0.4763,0.3988,0.2588,0.2588,0.2119,0.1414,0.1488,0.1622,0.1814,0.1433,0.1262,0.1238,0.1271,0.1282,0.1285,0.0,0.0,0.0,0.0,0.0,1.0681,1.0656,1.108,1.1595,1.217,1.299,1.3809,0.0,1.4972,1.525,1.5383,1.5622,1.5426,1.4599,0.0,1.4633,1.3232,1.3853,1.4582,1.5341,1.5352,1.5666,0.0,0.0,0.0,0.0,0.0,0.0,0.0,0.0,0.0,0.0,0.0,0.0,1.4885,1.405,1.3081,0.0,0.0,0.0,0.0,0.0,0.0,0.0,0.0,0.0,0.0,0.0,0.0,0.0,0.0,0.0,0.0,0.0,0.0,0.0,0.0,0.0,0.0,0.0,0.0,0.0,0.0,0.0,0.0,0.0,0.0,0.0,0.0,0.0,0.0,0.0,0.0,0.0,1.0608,1.083,0.0,0.8717,0.9179,0.9355,0.8942,0.952,0.993,1.0092,0.9744,0.9295,0.8751,0.8604,0.8147,0.7306,0.6919,0.6762,0.6762,0.5838,0.5065,0.4292,0.3754,0.2979,0.212,0.1963,0.1728,0.1493,0.1336,0.1329,0.1396,0.1319,0.1312,0.1303,0.1314,0.1319,0.132,0.0,0.0,0.0,0.0,1.0705,1.0681,1.0656,1.1257,1.1965,1.2741,1.3397,1.416,1.5101,1.5196,1.5263,1.541,1.5649,1.5535,1.4924,0.0,1.4797,1.3683,1.4651,1.5568,1.6363,1.613,0.0,0.0,0.0,0.0,0.0,0.0,0.0,0.0,0.0,0.0,0.0,0.0,0.0,0.0,1.5049,1.4182,1.3209,0.0,0.0,0.0,0.0,0.0,0.0,0.0,0.0,0.0,0.0,0.0,0.0,0.0,0.0,0.0,0.0,0.0,0.0,0.0,0.0,0.0,0.0,0.0,0.0,0.0,0.0,0.0,0.0,0.0,0.0,0.0,0.0,0.0,0.0,1.1783,1.2114,1.0799,1.095,1.0578,0.897,0.9372,0.9592,0.9371,0.9955,1.0218,0.9911,0.9609,0.887,0.7618,0.7614,0.7177,0.6291,0.5852,0.5596,0.5596,0.4621,0.3923,0.3559,0.2989,0.2523,0.2146,0.1891,0.1728,0.165,0.1493,0.1336,0.1335,0.1335,0.1335,0.1335,0.1335,0.1335,0.1335,0.0,0.0,0.0,1.0705,1.0705,1.0681,1.0621,1.1234,1.2116,1.3192,1.3934,1.4596,1.5176,1.5203,1.4958,1.4341,1.4849,1.4911,1.4327,1.4614,1.4727,1.4569,1.5247,1.5898,1.6441,0.0,0.0,0.0,0.0,0.0,0.0,0.0,0.0,0.0,0.0,0.0,0.0,0.0,0.0,0.0,1.5352,1.4799,1.4395,0.0,0.0,0.0,0.0,0.0,0.0,0.0,0.0,0.0,0.0,0.0,0.0,0.0,0.0,0.0,0.0,0.0,0.0,0.0,0.0,0.0,0.0,0.0,0.0,0.0,0.0,0.0,0.0,0.0,0.0,0.0,0.0,0.0,1.1227,1.2136,1.2289,1.0751,1.1764,1.1854,0.9956,0.9862,0.9695,0.9322,0.9322,0.9165,0.8703,0.8546,0.8009,0.7153,0.6766,0.6435,0.6325,0.5065,0.4451,0.4454,0.3091,0.2544,0.2602,0.2541,0.2545,0.2598,0.2301,0.212,0.1887,0.165,0.1493,0.1335,0.1335,0.1335,0.1335,0.1335,0.1335,0.1335,0.0,0.0,1.0705,1.0705,1.0705,1.0705,1.0729,1.1626,1.2728,1.3924,1.4224,1.468,1.5604,1.5101,1.4579,1.4235,1.452,1.4468,1.3894,0.0,1.5011,1.5839,1.6088,0.0,1.753,0.0,0.0,0.0,0.0,0.0,0.0,0.0,0.0,0.0,0.0,0.0,0.0,0.0,0.0,1.6397,1.6632,1.6619,1.6463,0.0,0.0,0.0,0.0,0.0,0.0,0.0,0.0,0.0,0.0,0.0,0.0,0.0,0.0,0.0,0.0,0.0,0.0,0.0,0.0,0.0,0.0,0.0,0.0,0.0,0.0,0.0,0.0,0.0,0.0,0.0,1.1855,1.2354,1.2126,1.28,1.312,1.2735,1.2151,1.1495,1.0973,1.0135,0.962,0.9544,0.962,0.9468,0.8703,0.8526,0.7592,0.5725,0.5493,0.4819,0.3688,0.3284,0.311,0.316,0.272,0.2565,0.2665,0.2604,0.2585,0.2601,0.2179,0.1994,0.1887,0.1493,0.1335,0.1335,0.1335,0.1335,0.1335,0.1335,0.1335,0.1335,0.0,0.9991,1.0521,1.0521,1.0656,1.0835,1.1094,1.1926,1.3068,1.4542,1.4482,1.4715,1.5847,1.506,1.4369,1.4254,1.4351,1.4195,1.3735,0.0,1.5144,1.6362,0.0,0.0,0.0,0.0,0.0,0.0,0.0,0.0,0.0,0.0,0.0,0.0,0.0,0.0,0.0,0.0,0.0,1.6815,1.7002,1.7144,1.7264,1.7381,1.6638,1.5488,1.4909,1.4021,1.3031,1.2518,0.0,0.0,0.0,0.0,0.0,0.0,0.0,0.0,0.0,0.0,0.0,0.0,0.0,0.0,0.0,0.0,0.0,0.0,0.0,0.0,0.0,0.0,0.0,0.0,1.2444,1.2789,1.2431,1.2813,1.3046,1.2886,1.1694,1.1025,1.126,1.0143,0.9473,0.9695,0.9771,0.9387,0.8394,0.803,0.7038,0.5086,0.4782,0.4097,0.3112,0.3043,0.2863,0.2729,0.2632,0.2636,0.2729,0.2668,0.257,0.2508,0.213,0.1936,0.1754,0.142,0.1335,0.1335,0.0,0.0,0.0,0.0,0.1335,0.1335,0.0,0.9724,1.031,1.031,1.0623,1.1064,1.1545,1.2239,1.3302,1.4985,0.0,1.4761,1.5983,1.5053,1.4292,1.4192,1.4246,1.4118,0.0,0.0,0.0,1.6362,1.6873,0.0,0.0,0.0,0.0,0.0,0.0,0.0,0.0,0.0,0.0,0.0,0.0,0.0,0.0,0.0,1.6534,1.7172,1.6825,1.6967,1.7385,1.771,1.7514,1.698,1.6464,1.598,1.5395,1.4202,0.0,0.0,0.0,0.0,0.0,0.0,0.0,0.0,0.0,0.0,0.0,0.0,0.0,0.0,0.0,0.0,0.0,0.0,0.0,0.0,0.0,0.0,0.0,0.0,1.2997,1.3193,1.2378,1.2378,1.2298,1.1903,1.0938,1.0421,1.0962,0.9846,0.9322,0.9846,0.9771,0.9094,0.7966,0.7352,0.0,0.0,0.0,0.3955,0.3587,0.3424,0.3219,0.2792,0.2717,0.2721,0.279,0.2637,0.2555,0.2342,0.2084,0.1797,0.1544,0.1354,0.1339,0.1335,0.1335,0.1335,0.1335,0.1335,0.1335,0.1335,0.0,0.959,1.031,1.031,1.0947,1.1516,1.1651,1.2565,1.3748,1.5107,1.47,1.4781,1.605,1.5147,1.4196,1.355,1.3829,1.4046,0.0,0.0,0.0,0.0,0.0,0.0,0.0,0.0,0.0,0.0,0.0,0.0,0.0,0.0,0.0,0.0,0.0,0.0,0.0,0.0,1.6842,1.6666,1.7028,1.7624,1.8312,1.8169,1.8488,1.8961,1.8142,1.7299,1.6408,1.5239,1.3882,1.2635,1.2177,0.0,0.0,0.0,0.0,0.0,0.0,0.0,0.0,0.0,0.0,0.0,0.0,0.0,0.0,0.0,0.0,0.0,0.0,0.0,0.0,1.2654,1.3145,1.3193,1.2378,1.1781,1.1335,1.1254,1.0807,1.0513,1.0588,1.0067,0.9771,0.9916,0.9846,0.9464,0.8548,0.7608,0.6539,0.5414,0.4134,0.3392,0.3317,0.2811,0.2719,0.2854,0.2527,0.0,0.2585,0.2227,0.2128,0.2172,0.1895,0.1767,0.1547,0.1377,0.1279,0.1335,0.1335,0.1335,0.1335,0.1335,0.1335,0.1335,0.9104,0.9746,1.0187,1.0187,1.0954,1.1655,1.1942,1.2507,1.3336,1.4537,1.4136,1.4109,1.5046,1.4383,1.3703,1.3285,1.3726,0.0,0.0,0.0,0.0,0.0,0.0,0.0,0.0,0.0,0.0,0.0,0.0,0.0,0.0,0.0,0.0,0.0,0.0,0.0,0.0,1.7144,1.7016,1.7211,1.7045,1.7431,1.8191,1.8361,1.8718,1.918,1.9012,1.8654,1.8061,1.6777,1.5759,1.4815,1.3651,1.2762,1.2016,0.0,0.0,0.0,0.0,0.0,0.0,0.0,0.0,0.0,0.0,0.0,0.0,0.0,0.0,1.1917,0.0,0.0,1.2819,1.3127,1.3359,1.3193,1.2378,1.1827,1.1304,1.1006,1.0401,1.01,1.0335,1.01,0.9969,0.9927,0.9922,0.9561,0.876,0.8145,0.7412,0.6652,0.5124,0.4204,0.4113,0.3102,0.2575,0.2512,0.2346,0.2262,0.2332,0.2194,0.2011,0.1942,0.1834,0.1622,0.1406,0.1373,0.1271,0.1335,0.1335,0.1335,0.1335,0.1335,0.1335,0.1335,0.9618,1.0036,1.032,1.0273,1.1039,1.1802,1.2239,1.2454,1.2927,1.3946,1.3581,1.3443,1.4046,1.3569,1.3182,0.0,0.0,0.0,0.0,0.0,0.0,0.0,0.0,0.0,0.0,0.0,0.0,0.0,0.0,0.0,0.0,0.0,0.0,0.0,0.0,0.0,0.0,1.751,1.7553,1.8262,1.7501,1.7533,1.8147,1.8549,1.8759,1.8909,1.9294,1.9517,1.9455,1.8117,1.7544,1.7109,1.5188,1.415,1.3375,1.2533,1.1757,0.0,0.0,0.0,0.0,0.0,0.0,0.0,0.0,0.0,1.1705,1.2853,1.2848,1.2669,1.2794,1.2998,1.3263,1.3593,1.3564,1.3273,1.2599,1.225,1.1754,1.1265,1.022,0.9734,1.021,1.0084,0.9972,0.9933,0.9922,0.9581,0.8979,0.8653,0.8263,0.7901,0.6367,0.5445,0.5087,0.3846,0.2957,0.2333,0.2323,0.2235,0.2154,0.2055,0.1966,0.1702,0.1659,0.1536,0.1335,0.128,0.1414,0.1571,0.1571,0.1649,0.1727,0.1414,0.1335,0.1335,0.0,1.0455,1.1054,1.0939,1.1633,1.2227,1.2302,1.2747,1.3355,1.3997,1.3581,1.3465,1.4116,1.3579,1.3182,0.0,0.0,0.0,0.0,0.0,0.0,0.0,0.0,0.0,0.0,0.0,0.0,0.0,0.0,0.0,0.0,0.0,0.0,0.0,0.0,0.0,1.9291,1.9155,1.925,1.9507,1.9418,1.9208,1.9042,1.9095,1.9093,1.8983,1.8921,1.9296,1.9608,1.8289,1.7843,1.7604,1.6155,1.4835,1.361,1.2696,0.0,1.1453,1.1049,1.1859,1.3097,1.4181,1.3987,1.3978,0.0,0.0,1.4181,1.4375,1.4481,1.4458,1.4007,1.3772,1.3745,1.3985,1.3702,1.3492,1.3346,1.2934,1.2608,1.2232,1.0869,0.9959,1.0037,0.993,0.9873,0.9922,0.9922,0.9885,0.9761,0.8973,0.8488,0.8416,0.7027,0.5974,0.5359,0.4736,0.3848,0.2777,0.2552,0.2291,0.1793,0.1583,0.1498,0.1432,0.1377,0.1335,0.1305,0.1271,0.1727,0.2354,0.2354,0.2821,0.3365,0.1883,0.1335,0.1335,0.0,1.0805,1.1399,1.1662,1.1952,1.2163,1.2163,1.2389,1.2639,1.2914,1.2711,1.2674,1.2963,1.2722,1.2926,0.0,0.0,0.0,0.0,0.0,0.0,0.0,0.0,0.0,0.0,0.0,0.0,0.0,0.0,0.0,0.0,0.0,0.0,0.0,0.0,1.9754,1.995,1.9668,1.9795,2.0161,1.9873,1.9721,1.9655,1.9656,1.9491,1.9162,1.8833,1.8845,0.0,0.0,1.763,1.7364,1.6648,1.557,1.4332,1.3222,1.2651,0.0,1.2842,1.3336,1.4138,0.0,1.5388,1.5223,1.6607,1.5788,1.5027,1.5765,1.5392,1.4832,1.4474,1.4065,1.379,0.0,1.3637,1.3558,1.3748,1.3432,1.3118,1.3002,1.2116,1.118,1.0402,1.0199,1.0078,0.9933,0.9922,0.99,0.9882,0.949,0.9345,0.941,0.7998,0.7112,0.6763,0.5789,0.4991,0.4548,0.4162,0.3811,0.3664,0.3279,0.3086,0.2985,0.2895,0.2818,0.2754,0.2768,0.2976,0.3288,0.3288,0.3443,0.3752,0.2974,0.2741,0.2741,0.0,1.1168,1.1734,1.2116,1.2138,1.2113,1.2113,1.2113,1.2113,1.2113,1.2113,1.2113,1.2113,1.224,1.2782,0.0,0.0,0.0,0.0,0.0,0.0,0.0,0.0,0.0,0.0,0.0,0.0,0.0,0.0,0.0,0.0,0.0,0.0,0.0,0.0,2.0441,2.0595,2.044,2.0703,2.1219,2.1048,2.1054,2.1075,2.077,2.0341,1.9846,1.8864,1.8573,0.0,0.0,1.7552,1.7347,1.701,1.6066,1.4903,1.3768,1.3135,1.3035,1.4144,0.0,0.0,1.6351,1.6439,1.6392,1.6944,1.6383,1.5927,1.6565,1.6027,1.5259,1.4752,1.4346,1.3935,1.3645,1.3645,1.3711,1.3953,1.386,1.3653,1.3403,1.2942,1.2261,1.109,1.0634,1.0297,0.9948,0.9878,0.9849,0.9886,0.9861,0.9859,1.0028,0.8969,0.8257,0.7998,0.7021,0.6316,0.5871,0.5526,0.5351,0.5171,0.473,0.4316,0.4034,0.4053,0.3959,0.3764,0.3779,0.3908,0.4144,0.4144,0.43,0.4455,0.4455,0.4222,0.383,0.0,0.0,1.2151,1.2102,1.2113,1.2113,1.2113,1.2113,1.2113,1.2113,1.2113,1.2113,1.2113,1.2574,1.3038,0.0,0.0,0.0,0.0,1.8808,0.0,0.0,0.0,0.0,0.0,0.0,0.0,0.0,0.0,0.0,0.0,0.0,0.0,0.0,2.0128,2.055,2.1136,2.1829,2.2479,2.3097,2.3716,2.3983,2.3862,2.2684,2.1884,2.1062,1.9115,0.0,0.0,0.0,1.7881,1.7857,1.7291,1.6209,0.0,1.4236,1.3325,0.0,0.0,0.0,1.5805,1.6441,1.7194,1.7685,1.7131,1.7382,1.7409,1.6409,1.6538,1.6403,1.5117,1.4705,1.4425,1.3863,1.3911,1.3967,1.3982,1.426,1.4223,1.3488,1.3242,1.2835,1.2132,1.128,1.0545,0.9922,0.9745,0.9683,0.9848,0.9693,0.9697,1.0024,0.9951,0.951,0.8456,0.8456,0.7742,0.6413,0.6325,0.6145,0.5692,0.5171,0.4626,0.403,0.4026,0.3924,0.3834,0.3832,0.4222,0.5002,0.5002,0.5473,0.6261,0.6261,0.5162,0.383,0.0,0.0,0.0,1.221,1.2174,1.2138,1.2113,1.2113,1.2113,1.2113,1.2611,0.0,0.0,0.0,0.0,0.0,0.0,0.0,0.0,1.9439,0.0,0.0,0.0,0.0,0.0,0.0,0.0,0.0,0.0,0.0,0.0,0.0,0.0,0.0,2.2768,2.2881,2.3063,2.2887,2.3154,2.3716,2.3505,2.3421,2.3393,2.2986,2.2007,2.069,0.0,0.0,0.0,0.0,1.7115,1.6913,1.689,0.0,0.0,1.4027,1.3538,1.3658,1.5492,0.0,1.6874,1.8125,1.8427,1.8332,1.8135,1.8237,1.824,1.7839,1.712,1.6404,1.5713,1.5129,1.4474,1.363,1.3859,1.4169,1.4028,1.4077,1.4066,1.383,1.3923,1.3663,1.2599,1.2037,1.1643,1.142,1.1588,1.1671,1.1775,1.1067,1.0753,1.0885,1.0294,0.9864,0.951,0.951,0.9244,0.8798,0.8185,0.757,0.7041,0.6602,0.6195,0.5779,0.5779,0.5635,0.5476,0.5476,0.5631,0.5867,0.5867,0.6025,0.6338,0.6338,0.5944,0.5476,0.0,0.0,0.0,0.0,0.0,0.0,0.0,0.0,0.0,0.0,0.0,0.0,0.0,0.0,0.0,0.0,0.0,0.0,0.0,0.0,0.0,0.0,0.0,0.0,0.0,0.0,0.0,0.0,0.0,0.0,0.0,0.0,0.0,2.4103,2.4103,2.4118,2.4089,2.3617,2.3688,2.4075,2.3617,2.3449,2.3421,2.2986,2.1883,0.0,0.0,0.0,0.0,0.0,0.0,0.0,0.0,0.0,0.0,1.472,1.4525,1.492,1.6764,1.7364,1.7759,1.8944,1.8973,1.8664,1.8392,1.8606,1.8763,1.8387,1.7619,1.6854,1.6253,1.5553,1.479,1.3757,1.4234,1.4632,1.4429,1.4237,1.4134,1.4186,1.4241,1.3978,1.3141,1.3088,1.2824,1.2195,1.2343,1.2469,1.2421,1.1773,1.1511,1.1666,1.1154,1.0895,1.0977,1.0977,1.0977,1.0977,1.0024,0.9327,0.8798,0.8039,0.7525,0.7191,0.6969,0.6722,0.6486,0.6338,0.6338,0.6338,0.6338,0.6338,0.6338,0.6338,0.649,0.6721,0.0,0.0,0.0,0.0,0.0,0.0,0.0,0.0,0.0,0.0,0.0,0.0,0.0,0.0,0.0,0.0,0.0,0.0,0.0,0.0,0.0,0.0,0.0,2.0113,1.9823,1.985,2.0061,0.0,0.0,0.0,0.0,0.0,0.0,2.4027,2.4033,2.4061,2.4061,2.4033,2.4033,2.4061,2.3991,2.3991,2.3898,2.2734,0.0,0.0,0.0,0.0,0.0,0.0,0.0,0.0,0.0,0.0,0.0,1.615,1.6197,1.6503,1.7881,1.8321,1.8416,1.8871,1.9028,1.8827,1.7975,1.8486,1.8873,1.8086,1.7883,1.7571,0.0,0.0,1.5379,1.4395,1.4915,1.5346,1.5141,1.4625,1.4302,0.0,0.0,0.0,0.0,0.0,1.3933,1.2212,1.2065,1.2143,1.214,1.1859,1.2009,1.2419,1.2443,1.2528,1.2674,1.2674,1.2674,1.2674,1.1746,1.1052,1.0585,0.954,0.8677,0.8069,0.75,0.7175,0.7015,0.6563,0.6412,0.6412,0.6416,0.6416,0.6416,0.6412,0.6872,0.7484,0.0,0.0,0.0,0.0,0.0,0.0,0.0,0.0,0.0,0.0,0.0,0.0,0.0,0.0,0.0,0.0,0.0,0.0,0.0,0.0,0.0,0.0,0.0,0.0,0.0,2.044,0.0,0.0,0.0,0.0,0.0,0.0,0.0,0.0,2.3042,2.3202,2.316,2.2838,2.2957,2.3294,0.0,2.2455,2.2771,0.0,0.0,0.0,0.0,0.0,0.0,0.0,0.0,0.0,0.0,0.0,1.7923,0.0,0.0,1.7696,1.7873,1.8363,1.8846,1.8995,1.9216,1.9336,1.9061,1.9076,1.9,1.8422,1.7754,1.6857,0.0,0.0,0.0,1.4536,1.523,0.0,1.5624,1.5217,0.0,1.5041,0.0,1.4934,1.4178,1.455,1.4331,1.2994,1.3434,1.3736,1.3721,1.301,1.275,1.3061,1.2596,1.2528,1.2674,1.2674,1.2674,1.2674,1.2077,1.1634,1.1282,1.0637,0.9988,0.93,0.9168,0.8951,0.8689,0.8389,0.8318,0.8318,0.8165,0.8093,0.8093,0.7931,0.8161,0.8542,0.0,0.0,0.0,0.0,0.0,0.0,0.0,0.0,0.0,0.0,0.0,0.0,0.0,0.0,0.0,0.0,0.0,0.0,0.0,0.0,0.0,0.0,0.0,0.0,0.0,0.0,0.0,0.0,0.0,0.0,0.0,0.0,2.2245,2.2338,2.2564,2.2622,2.258,0.0,0.0,0.0,0.0,0.0,0.0,0.0,0.0,0.0,0.0,0.0,0.0,0.0,0.0,1.9237,1.9055,1.8963,1.8878,1.881,0.0,1.8554,1.8516,1.8769,1.9007,1.8908,1.9168,1.938,1.91,1.9144,1.8967,1.8132,1.7289,0.0,1.539,1.5615,0.0,0.0,0.0,0.0,1.634,1.5899,1.5559,0.0,1.5599,0.0,1.477,1.5079,1.5049,1.4358,1.4136,1.3916,1.3849,1.3279,1.3176,1.3614,1.3278,1.3252,1.3529,1.362,1.362,1.3535,1.2942,1.2463,1.2117,1.1336,1.0756,1.0234,0.9972,0.9708,0.9523,0.9226,0.9221,0.9216,0.9069,0.8998,0.9064,0.8836,0.914,0.9669,0.0,0.0,0.0,0.0,0.0,0.0,0.0,0.0,0.0,0.0,0.0,0.0,0.0,0.0,0.0,0.0,0.0,0.0,0.0,0.0,0.0,0.0,0.0,0.0,0.0,0.0,0.0,0.0,0.0,0.0,0.0,0.0,0.0,0.0,0.0,0.0,0.0,0.0,0.0,0.0,0.0,0.0,0.0,0.0,0.0,0.0,0.0,0.0,0.0,0.0,2.1084,2.0321,1.9721,1.9554,1.9627,1.9911,1.9641,1.9231,1.9335,1.9272,1.9065,1.8833,1.9017,1.9181,1.8694,1.8888,1.8787,1.7627,0.0,1.6116,1.5498,1.5706,1.5865,1.5638,0.0,1.7676,1.7385,1.6799,1.6272,1.6122,1.5944,1.5748,1.5446,1.564,1.5751,1.5667,1.4366,1.3556,1.3304,1.3304,1.3512,1.3885,1.3973,1.4206,1.4671,1.4678,1.4678,1.4671,1.384,1.3336,1.2932,1.203,1.1382,1.1047,1.0517,1.0271,1.0196,0.982,0.9739,0.9873,0.9669,0.9739,0.9879,0.9669,1.0045,1.0714,0.0,0.0,0.0,0.0,0.0,0.0,0.0,0.0,0.0,0.0,1.4924,1.5479,0.0,0.0,0.0,0.0,0.0,0.0,0.0,0.0,0.0,0.0,0.0,0.0,0.0,0.0,0.0,0.0,0.0,0.0,0.0,0.0,0.0,0.0,0.0,0.0,0.0,0.0,0.0,0.0,0.0,0.0,0.0,0.0,0.0,0.0,0.0,0.0,0.0,0.0,2.2104,2.2114,2.2297,2.2066,2.1597,2.1233,2.0487,1.9659,1.9258,1.9206,1.916,1.8648,1.9218,1.966,1.8782,1.8544,0.0,0.0,1.6723,1.6042,1.5272,1.5722,1.6328,1.6922,0.0,0.0,0.0,0.0,1.775,0.0,1.7095,1.6439,1.5786,1.5774,1.5513,1.4856,1.4566,1.4251,1.3784,1.3798,1.3719,1.3571,1.3822,1.4055,1.4356,1.4363,1.4363,1.4363,1.4199,1.3829,1.3292,1.3153,1.2735,1.2297,1.217,1.207,1.1848,1.1626,1.1552,1.1545,1.1329,1.1329,1.1323,1.1105,1.1329,1.17,0.0,0.0,0.0,0.0,0.0,0.0,0.0,1.3117,1.368,1.418,1.4449,1.5028,1.6257,1.5995,1.571,0.0,0.0,0.0,0.0,0.0,0.0,0.0,0.0,0.0,0.0,0.0,0.0,0.0,0.0,0.0,0.0,0.0,0.0,0.0,0.0,0.0,0.0,0.0,0.0,0.0,0.0,0.0,0.0,0.0,0.0,0.0,0.0,0.0,0.0,0.0,2.2782,2.3284,2.3049,2.258,2.2044,2.1712,2.1125,2.0512,2.0003,1.9925,1.9741,1.9025,1.9444,1.9674,1.8474,0.0,0.0,0.0,1.616,1.5495,1.4971,0.0,0.0,0.0,0.0,0.0,0.0,0.0,0.0,1.8147,1.7567,1.6978,1.6403,1.6403,1.6193,1.5824,1.5824,1.5325,1.4336,1.4067,1.386,1.3712,1.3583,1.3591,1.3735,1.3735,1.3735,1.3735,1.3735,1.3495,1.3051,1.3051,1.2887,1.2452,1.2452,1.2378,1.2298,1.2224,1.2231,1.2298,1.2077,1.2077,1.215,1.1929,1.2003,1.215,0.0,0.0,0.0,0.0,0.0,0.0,0.0,1.2959,1.3508,1.3339,1.375,1.4408,1.5412,1.5561,1.5531,0.0,0.0,0.0,0.0,0.0,0.0,0.0,0.0,0.0,0.0,0.0,0.0,0.0,0.0,0.0,0.0,0.0,0.0,0.0,0.0,0.0,0.0,0.0,0.0,0.0,0.0,0.0,0.0,0.0,0.0,0.0,0.0,0.0,0.0,0.0,2.2887,2.3272,2.2823,2.2471,2.2164,2.193,2.1611,2.1212,2.0804,2.0666,2.0481,1.9651,1.9784,1.9699,1.8238,1.7894,0.0,0.0,1.5756,1.5209,1.4983,0.0,0.0,0.0,0.0,0.0,0.0,0.0,0.0,0.0,1.8103,0.0,1.7038,1.6908,1.6839,1.6769,1.676,1.6193,1.4966,1.4352,1.4052,1.4052,1.3717,1.35,1.357,1.357,1.357,1.357,1.357,1.3481,1.3167,1.3024,1.2818,1.2592,1.2592,1.2592,1.2592,1.2739,1.2879,1.3032,1.2666,1.2666,1.2739,1.2445,1.2305,1.2311,0.0,0.0,0.0,0.0,0.0,0.0,0.0,1.277,1.3289,1.2204,1.3231,1.4061,1.4025,1.4317,1.4375,0.0,0.0,0.0,0.0,0.0,0.0,0.0,0.0,0.0,0.0,0.0,0.0,0.0,0.0,0.0,0.0,0.0,0.0,0.0,0.0,0.0,0.0,0.0,0.0,0.0,0.0,0.0,0.0,0.0,0.0,0.0,0.0,0.0,0.0,0.0,0.0,2.1103,2.1653,2.2337,2.2853,2.2197,0.0,0.0,2.1077,2.1122,2.1077,2.0388,2.0386,2.0112,1.8548,0.0,0.0,1.6541,1.6132,1.5856,1.5736,1.5533,0.0,0.0,0.0,1.8269,0.0,0.0,0.0,2.0498,0.0,0.0,1.7226,1.7038,1.6769,1.6412,1.6342,1.6123,1.5692,1.4999,1.4505,1.4505,1.4464,1.4637,1.495,1.4958,1.4958,1.4958,1.4958,1.4778,1.4433,1.3717,1.3419,1.339,1.339,1.339,1.3462,1.4106,1.4386,1.4314,1.3673,1.339,1.3317,1.2592,1.2305,1.2338,0.0,0.0,0.0,0.0,0.0,0.0,1.1349,1.1788,1.1989,1.1258,1.1902,1.2579,1.2963,1.3753,1.4325,1.4567,0.0,0.0,0.0,0.0,0.0,0.0,0.0,0.0,0.0,0.0,0.0,0.0,0.0,0.0,0.0,0.0,0.0,0.0,0.0,0.0,0.0,0.0,0.0,0.0,0.0,0.0,0.0,0.0,0.0,0.0,0.0,0.0,0.0,0.0,0.0,0.0,2.0566,2.1315,0.0,0.0,2.1746,2.175,2.1985,2.1866,2.1578,2.1442,2.0979,2.0271,1.9131,0.0,1.743,1.6554,1.6175,1.6001,1.5913,1.5474,1.5421,0.0,1.6164,1.6745,1.8702,0.0,0.0,1.9239,1.8824,0.0,0.0,1.7037,1.6621,1.6342,1.6484,1.651,1.614,1.5471,1.518,1.533,1.4816,1.4665,1.4808,1.4816,1.4816,1.4816,1.4816,1.4736,1.4601,1.4322,1.4178,1.4178,1.4178,1.4178,1.4178,1.4466,1.4601,1.4601,1.425,1.4178,1.4099,1.3462,1.3219,1.3248,0.0,0.0,0.0,0.0,0.0,1.2151,1.1002,1.1203,1.124,1.0601,1.108,1.1744,1.2396,1.3454,1.4325,1.492,1.5169,0.0,0.0,0.0,0.0,0.0,0.0,0.0,0.0,0.0,1.785,1.8108,1.8214,1.8175,0.0,0.0,0.0,0.0,0.0,0.0,0.0,0.0,0.0,0.0,0.0,0.0,0.0,0.0,0.0,0.0,0.0,0.0,0.0,0.0,0.0,0.0,0.0,0.0,0.0,0.0,2.1855,2.2221,2.2408,2.2297,2.2214,2.2269,2.1299,2.014,0.0,1.8397,1.7187,1.6417,1.6175,1.6044,1.5957,1.5254,1.4884,1.5432,1.5139,1.5501,1.7144,1.778,0.0,0.0,0.0,1.8267,1.7772,1.6946,1.6546,1.6536,1.6589,1.6536,1.6386,1.5964,1.5762,1.5903,1.5463,1.5171,1.5171,1.5251,1.5251,1.5251,1.5251,1.5251,1.5251,1.5037,1.4966,1.4966,1.4966,1.4966,1.4966,1.518,1.5251,1.5251,1.5037,1.4966,1.4911,1.4374,1.4266,1.4261,0.0,0.0,0.0,0.0,0.0,0.0,1.0669,1.1239,1.1451,1.0256,1.1145,1.2024,1.2352,1.3442,1.4268,1.4683,1.5078,0.0,0.0,0.0,0.0,0.0,0.0,0.0,0.0,0.0,1.7322,1.772,1.8108,1.7988,1.7434,1.7828,1.7895,1.772,0.0,0.0,0.0,0.0,0.0,0.0,0.0,0.0,0.0,0.0,0.0,0.0,0.0,0.0,0.0,0.0,0.0,0.0,0.0,0.0,0.0,0.0,2.186,2.2567,2.1973,2.2428,2.3035,2.2754,2.1251,1.9808,0.0,1.8257,1.6633,1.6098,1.61,1.6113,1.5836,1.4971,1.4273,1.413,1.4272,1.4955,1.6475,1.7406,0.0,0.0,0.0,1.832,1.7735,1.6837,1.6555,1.7159,1.6361,1.6031,1.6546,1.627,1.6132,1.6272,1.6473,1.6603,1.6603,1.676,1.6908,1.6908,1.6908,1.6908,1.6839,1.6114,1.5762,1.5762,1.5762,1.5762,1.5833,1.6551,1.6908,1.683,1.6053,1.5762,1.5735,1.5308,1.5224,1.5319,0.0,0.0,0.0,0.0,0.0,0.0,0.0,1.1148,1.1158,1.0754,1.1056,1.1606,1.2396,1.3053,1.3591,1.4066,1.4402,0.0,0.0,0.0,0.0,0.0,0.0,0.0,0.0,0.0,1.6744,1.6828,1.705,1.7008,1.6714,1.687,1.6828,1.6769,1.6782,0.0,0.0,0.0,0.0,0.0,0.0,0.0,0.0,0.0,0.0,0.0,0.0,0.0,0.0,0.0,0.0,0.0,0.0,0.0,0.0,0.0,0.0,0.0,2.0979,2.0684,2.0341,2.0819,1.9514,1.8172,1.8292,1.7355,1.6316,1.5848,1.5913,1.6044,1.5957,1.5389,1.5126,1.5476,1.4693,0.0,0.0,0.0,0.0,1.7466,1.7584,1.737,1.6678,1.665,1.6567,1.6254,1.6156,1.6105,1.6057,1.5936,1.607,1.6473,1.6533,1.6682,1.683,1.6908,1.6908,1.6908,1.6908,1.6908,1.6908,1.6691,1.6551,1.6551,1.6551,1.6551,1.6551,1.683,1.6908,1.6908,1.6621,1.6713,1.6884,1.643,1.6429,1.6629,0.0,0.0,0.0,0.0,0.0,0.0,0.0,1.093,1.0884,1.0815,1.1085,1.1464,1.196,1.2671,1.3189,1.3389,1.3872,0.0,0.0,0.0,0.0,0.0,0.0,0.0,0.0,1.5874,1.6287,1.6114,1.6373,1.6343,1.6071,1.6232,1.6176,1.6046,1.6157,0.0,0.0,0.0,0.0,0.0,0.0,0.0,0.0,0.0,0.0,0.0,0.0,0.0,0.0,0.0,0.0,0.0,0.0,0.0,0.0,0.0,1.7458,0.0,0.0,1.9422,1.9157,1.9582,1.8516,1.7436,1.7567,1.6934,1.6187,1.5683,1.5812,1.6001,1.5913,1.5355,1.5068,1.5607,1.4639,0.0,0.0,0.0,0.0,1.6597,1.691,1.6902,1.6439,1.6569,1.6567,1.6251,1.6165,1.6156,1.6216,1.6088,1.6277,1.6839,1.6625,1.6614,1.6917,1.6912,1.6968,1.7038,1.7038,1.7038,1.7116,1.7038,1.7038,1.7038,1.6908,1.6991,0.0,1.7128,1.722,1.7367,1.7367,1.7513,1.7679,1.753,1.7663,1.7812,0.0,0.0,0.0,0.0,0.0,0.0,0.0,1.0751,1.0715,1.0609,1.1213,1.1582,1.1303,1.2356,1.3006,1.2828,0.0,0.0,0.0,0.0,0.0,0.0,0.0,0.0,0.0,1.5393,1.582,1.5501,1.5964,1.5932,1.5424,1.582,1.5808,1.5499,1.5852,1.5644,0.0,0.0,0.0,0.0,0.0,0.0,0.0,0.0,0.0,0.0,0.0,0.0,0.0,0.0,0.0,0.0,0.0,0.0,0.0,0.0,0.0,0.0,0.0,0.0,0.0,1.8841,1.7995,1.7255,1.7387,1.6812,0.0,1.5574,1.568,1.5869,1.5796,1.4926,1.4348,1.4772,1.4168,0.0,0.0,1.5562,0.0,0.0,1.6819,1.6793,1.6757,1.6494,1.6447,1.6816,1.6199,1.6114,1.6841,1.6542,1.6681,1.7229,1.6676,1.6599,1.6954,1.6962,1.706,1.726,1.726,1.7338,1.7555,1.7329,1.726,1.725,1.706,1.7202,1.7541,1.7541,1.777,1.8128,1.8128,1.8137,1.821,1.8577,1.8715,1.8705,0.0,0.0,0.0,0.0,0.0,0.0,0.0,0.0,0.0,0.0,1.142,1.1627,1.1858,1.25,1.301,0.0,0.0,0.0,0.0,0.0,0.0,0.0,0.0,0.0,0.0,1.4675,1.4869,1.4697,1.488,1.488,1.4651,1.4777,1.472,1.4525,1.4823,1.488,0.0,0.0,0.0,0.0,0.0,0.0,0.0,0.0,0.0,0.0,1.4363,1.4023,0.0,0.0,0.0,0.0,0.0,0.0,0.0,0.0,1.3757,1.3905,1.3999,0.0,1.6647,1.6556,1.6017,1.5441,0.0,1.5372,1.5349,0.0,0.0,0.0,0.0,0.0,0.0,1.4864,0.0,1.3775,1.5028,0.0,0.0,1.6439,1.624,1.5947,1.5644,1.5816,1.5968,1.6062,1.5899,1.6002,1.6456,1.6388,1.6719,1.7639,1.7345,1.7356,1.7584,1.7733,1.7834,1.7908,1.7908,1.7908,1.799,1.7908,1.7908,1.7908,1.7844,1.7889,1.7981,1.7981,1.8036,1.8128,1.8128,1.8311,1.8586,1.8678,1.8715,1.8669,0.0,0.0,0.0,0.0,0.0,0.0,0.0,0.0,0.0,0.0,0.0,0.0,0.0,0.0,0.0,0.0,0.0,0.0,0.0,0.0,0.0,0.0,0.0,0.0,1.4222,1.4326,1.4419,1.4373,1.4523,1.4424,1.4067,1.4378,1.4264,1.3885,1.4185,1.4259,0.0,0.0,0.0,0.0,0.0,0.0,0.0,0.0,0.0,0.0,1.3455,1.334,0.0,1.3263,1.3293,1.3263,0.0,0.0,0.0,0.0,1.316,1.317,1.3016,1.3747,1.4492,1.4446,1.4341,1.4174,0.0,0.0,0.0,0.0,0.0,0.0,0.0,0.0,0.0,0.0,1.4119,0.0,0.0,0.0,1.5668,1.6054,1.5762,1.5514,1.5489,1.5677,1.5805,1.5805,1.5959,1.6289,1.6733,1.6914,1.7362,1.8206,1.8168,1.8118,1.8091,1.8061,1.8119,1.8267,1.8267,1.8184,1.8184,1.8184,1.8193,1.8128,1.8128,1.8229,1.8394,1.8394,1.8495,1.8669,1.8669,1.8788,1.8981,1.8981,1.8871,1.865,0.0,0.0,0.0,0.0,0.0,0.0,0.0,0.0,0.0,0.0,0.0,0.0,0.0,0.0,0.0,0.0,0.0,0.0,0.0,0.0,0.0,0.0,0.0,1.4104,1.4222,1.4204,1.4298,1.4419,1.4384,1.4052,1.3607,1.4043,1.3963,1.3456,1.3713,1.3738,0.0,0.0,0.0,0.0,0.0,0.0,0.0,0.0,0.0,0.0,0.0,0.0,0.0,1.3077,1.3115,1.3241,1.3135,0.0,0.0,0.0,0.0,0.0,1.2929,1.292,1.29,1.293,1.3243,1.3429,0.0,0.0,0.0,0.0,0.0,0.0,0.0,0.0,0.0,0.0,0.0,0.0,1.5351,1.5256,1.5228,1.5476,1.5233,1.5116,1.5334,1.5451,1.5518,1.5518,1.6007,1.6519,1.6885,1.7535,1.8048,1.8523,1.8843,1.884,1.8506,1.84,1.8377,1.8518,1.8518,1.8434,1.8424,1.8443,1.8377,1.8236,1.8236,1.8419,1.8806,1.8806,1.8999,1.9301,1.9301,1.9301,1.9301,1.9301,1.9017,1.8559,0.0,0.0,0.0,0.0,0.0,0.0,0.0,0.0,0.0,0.0,0.0,0.0,0.0,0.0,0.0,0.0,0.0,0.0,0.0,0.0,0.0,0.0,1.428,1.4222,1.4373,1.4275,1.4333,1.4581,1.3542,1.3071,1.3097,1.2782,1.2779,1.307,1.3104,1.3133,1.3064,0.0,0.0,0.0,0.0,0.0,0.0,0.0,0.0,0.0,0.0,0.0,0.0,1.1913,1.1928,1.184,1.1787,0.0,0.0,0.0,0.0,0.0,1.1619,1.2035,1.2663,1.3447,1.3711,1.379,0.0,0.0,0.0,0.0,0.0,0.0,0.0,0.0,1.3485,0.0,0.0,1.4757,1.5073,1.5064,1.4859,1.4231,1.4119,1.3887,1.3401,1.3842,1.4238,1.4395,1.5396,1.5899,1.5786,1.7189,1.7952,1.7853,1.8594,1.9045,1.9131,1.9155,1.9118,1.9196,1.897,1.8891,1.8891,1.8752,1.8752,1.89,1.89,1.9006,1.921,1.921,1.9246,1.9301,1.9301,1.9301,1.9301,1.9301,1.8843,1.8109,0.0,0.0,0.0,0.0,0.0,0.0,0.0,0.0,0.0,0.0,0.0,0.0,0.0,0.0,0.0,0.0,0.0,0.0,0.0,0.0,0.0,1.3637,1.3741,1.381,1.3952,1.3379,1.3172,1.3351,1.267,1.2183,1.1916,1.1861,1.2243,1.2871,1.2809,1.27,1.251,1.2388,0.0,0.0,0.0,0.0,0.0,0.0,0.0,0.0,0.0,0.0,0.0,0.0,1.1118,1.0987,1.0926,0.0,0.0,0.0,0.0,0.0,1.0438,1.0886,1.1662,1.2787,1.3332,1.3662,0.0,0.0,0.0,0.0,0.0,0.0,0.0,0.0,1.4046,1.4563,0.0,1.3814,1.4061,1.39,1.3769,1.3819,1.3863,1.3894,1.3851,1.4177,1.4508,1.4584,1.5289,1.5708,1.5625,1.6613,1.7194,1.7188,1.7521,1.8006,1.8567,1.8567,1.8816,1.9301,1.9073,1.8922,1.8851,1.8772,1.8692,1.8683,1.8763,1.8922,1.9002,1.9002,1.9002,1.9002,1.9002,1.9073,1.9097,1.8747,1.844,1.8009,0.0,0.0,0.0,0.0,0.0,0.0,0.0,0.0,0.0,0.0,0.0,0.0,0.0,0.0,0.0,0.0,0.0,0.0,0.0,0.0,1.2812,1.2861,1.3005,1.3184,1.3314,1.2606,1.2213,1.2197,1.1709,1.1238,1.0794,1.1041,1.1591,1.2442,1.2419,1.2229,1.1904,1.1722,1.162,0.0,0.0,0.0,0.0,0.0,0.0,0.0,0.0,0.0,0.0,0.0,0.0,0.0,0.0,0.0,0.0,0.9865,0.9865,0.9814,0.9666,1.009,1.083,1.18,0.0,1.3296,1.3804,0.0,0.0,0.0,0.0,0.0,0.0,1.3697,0.0,1.412,1.3429,1.2968,1.3164,1.2983,1.298,1.3314,1.3593,1.3853,1.4095,1.4337,1.4459,1.4538,1.5085,1.5433,1.5425,1.6075,1.6468,1.637,1.6617,1.7025,1.7674,1.7674,1.8158,1.8975,1.8834,1.8594,1.8362,1.8371,1.8362,1.8442,1.8531,1.8692,1.87,1.87,1.87,1.87,1.87,1.8772,1.8824,1.8194,1.797,1.7944,0.0,0.0,0.0,0.0,0.0,0.0,0.0,0.0,0.0,0.0,0.0,0.0,0.0,0.0,0.0,0.0,0.0,0.0,0.0,0.0,1.2861,1.2967,1.248,1.23,1.2559,1.2584,1.2346,1.195,1.0812,1.0211,1.014,1.0137,1.0548,1.1436,1.1722,1.1679,1.1344,1.1137,1.107,1.0985,0.0,0.0,0.0,0.0,0.0,0.0,0.0,0.0,0.0,0.0,0.0,0.0,0.0,0.0,1.0167,1.0012,0.9969,0.9917,0.9658,1.0154,1.0684,1.0815,0.0,0.0,1.4621,1.4471,0.0,0.0,0.0,0.0,0.0,1.2836,1.2357,1.2631,1.276,1.287,1.277,1.3067,1.31,1.2454,1.2762,1.2988,1.275,1.2962,1.3199,1.3437,1.4434,1.4768,1.4216,1.5786,1.6288,1.556,1.6288,1.6698,1.678,1.678,1.7261,1.8078,1.7853,1.7691,1.7521,1.7294,1.7627,1.8442,1.8442,1.8531,1.87,1.87,1.87,1.87,1.87,1.87,1.8603,1.7814,1.7662,1.7748,0.0,0.0,0.0,0.0,0.0,0.0,0.0,0.0,0.0,0.0,0.0,0.0,0.0,0.0,0.0,0.0,0.0,0.0,0.0,0.0,1.1366,1.1414,1.1766,1.174,1.1377,1.1137,1.0771,1.0333,0.9909,0.9773,1.0063,1.0301,1.0731,1.1285,1.119,1.1044,1.0726,1.0493,1.0295,1.0098,0.9866,0.0,0.0,0.0,0.0,0.0,0.0,0.0,0.0,0.0,0.9078,0.9022,0.0,0.9192,0.9138,0.8942,0.8988,0.9093,0.8791,0.9493,1.0344,1.0666,0.0,0.0,0.0,0.0,0.0,0.0,1.453,0.0,0.0,0.0,1.2822,1.2193,1.2366,1.2425,1.2158,1.2305,1.2504,1.27,1.3003,1.3175,1.3246,1.3515,1.3748,1.3754,1.4176,1.4328,1.4088,1.4741,1.4908,1.458,1.4908,1.5311,1.5884,1.5884,1.6049,1.637,1.6714,1.6878,1.6796,1.6968,1.7302,1.7619,1.7951,1.8201,1.8282,1.8282,1.8282,1.8282,1.8442,1.8523,1.8435,1.7729,1.7823,1.81,0.0,0.0,0.0,0.0,0.0,0.0,0.0,0.0,0.0,0.0,0.0,0.0,0.0,0.0,0.0,0.0,0.0,0.0,1.0339,1.0392,1.0423,1.055,1.1157,1.12,1.0689,1.0259,0.9787,0.9401,0.924,0.9535,1.0195,1.0236,1.0506,1.0972,1.064,1.0354,1.0154,0.9848,0.9606,0.9413,0.9354,0.9277,0.0,0.0,0.0,0.0,0.0,0.0,0.0,0.0,0.7894,0.0,0.0,0.0,0.0,0.7906,0.8125,0.829,0.8262,0.8857,0.0,0.0,0.0,0.0,0.0,0.0,0.0,0.0,1.3815,0.0,1.2748,0.0,0.0,1.1598,1.1747,1.1851,1.1676,1.1621,1.1926,1.2875,1.3009,1.3252,1.3795,1.3997,1.4088,1.4088,1.4088,1.4088,1.4088,1.4088,1.4088,1.4088,1.4088,1.4419,1.4985,1.4985,1.4985,1.4992,1.5484,1.5816,1.5982,1.6319,1.6558,1.6804,1.7456,1.7538,1.7456,1.7789,1.804,1.804,1.8201,1.8273,1.8204,1.7707,1.7799,1.8113,0.0,0.0,0.0,0.0,0.0,0.0,0.0,0.0,0.0,0.0,0.0,0.0,0.0,0.0,0.0,0.0,0.0,0.0,0.9392,0.9834,1.0254,1.0646,1.072,1.068,1.068,1.0221,0.9787,0.9401,0.8948,0.9383,1.0663,0.9666,0.9635,1.0395,0.9969,0.971,0.9555,0.9309,0.9106,0.8949,0.8527,0.8474,0.0,0.0,0.0,0.0,0.0,0.0,0.0,0.0,0.6401,0.644,0.0,0.0,0.0,0.7131,0.7471,0.7776,0.8196,0.8309,0.0,0.0,0.0,0.0,0.0,0.0,0.0,0.0,0.0,1.2128,1.217,1.1141,1.0417,1.0677,1.0936,1.1186,1.1335,1.1188,1.1456,1.2771,1.2632,1.2819,1.3964,1.4088,1.4088,1.4088,1.4088,1.4088,1.4088,1.4088,1.4088,1.4088,1.4088,1.4088,1.4088,1.4088,1.4088,1.4088,1.4088,1.4419,1.509,1.509,1.5492,1.6139,1.6714,1.6624,1.6221,1.7456,1.7951,1.8031,1.8031,1.8031,1.7989,1.7603,1.7631,1.7804,0.0,0.0,0.0,0.0,0.0,0.0,0.0,0.0,0.0,0.0,0.0,0.0,0.0,0.0,0.0,0.0,0.0,0.0,0.9072,0.9495,0.9742,0.9773,1.0382,1.068,1.068,1.0123,0.9624,0.9323,0.9157,0.93,0.9721,0.9962,0.9782,0.9285,0.9655,0.9358,0.863,0.8604,0.8463,0.8197,0.797,0.7937,0.0,0.0,0.0,0.0,0.0,0.0,0.0,0.0,0.0,0.0,0.0,0.0,0.0,0.6622,0.7084,0.7568,0.7582,0.0,0.0,0.0,0.0,0.0,0.0,0.0,0.0,0.0,1.2063,1.1191,1.1352,1.1099,1.0846,1.0737,1.1016,1.1409,1.1558,1.1627,1.1784,1.1905,1.2508,1.2949,1.2895,1.3445,1.3913,1.4088,1.3828,1.3652,1.3822,1.3652,1.3568,1.3568,1.3737,1.3822,1.3822,1.3822,1.3913,1.4088,1.3913,1.399,1.4419,1.4838,1.5173,1.5492,1.655,1.6624,1.6139,1.7049,1.7326,1.7304,1.7994,1.8117,1.7874,1.79,1.8118,1.8408,0.0,0.0,0.0,0.0,0.0,0.0,0.0,0.0,0.0,0.0,0.0,0.0,0.0,0.0,0.0,0.0,0.0,0.0,0.0,0.0,0.9137,0.9109,0.9641,0.9987,1.0132,0.9743,0.9437,0.931,0.8906,0.9005,0.9565,0.9379,0.9144,0.8889,0.8726,0.8366,0.7828,0.7623,0.7535,0.7455,0.7361,0.7355,0.7314,0.0,0.0,0.0,0.0,0.0,0.0,0.0,0.0,0.0,0.0,0.0,0.0,0.6534,0.696,0.7432,0.8111,0.0,0.0,0.0,0.0,0.0,0.0,0.0,0.0,0.0,1.15,1.1022,1.1168,1.1224,1.1131,1.0973,1.1304,1.1558,1.1781,1.1632,1.1658,1.2011,1.2285,1.2501,1.2613,1.3061,1.3484,1.3658,1.3503,1.3476,1.3561,1.3483,1.3398,1.3398,1.3483,1.3568,1.3568,1.3568,1.3652,1.3828,1.3737,1.3737,1.3997,1.4503,1.4838,1.5173,1.5899,1.6304,1.6468,1.6632,1.7039,1.7562,1.8179,1.8302,1.8189,1.8258,1.8408,1.8576,0.0,0.0,0.0,0.0,0.0,0.0,0.0,0.0,0.0,0.0,0.0,0.0,0.0,0.0,0.0,0.0,0.0,0.0,0.0,0.0,0.8524,0.8675,0.8771,0.9004,0.9338,0.9296,0.9296,0.9296,0.8346,0.8548,0.9794,0.8311,0.8039,0.8699,0.7523,0.7053,0.7168,0.662,0.6521,0.6701,0.669,0.6686,0.6657,0.668,0.0,0.0,0.0,0.0,0.0,0.0,0.0,0.0,0.4916,0.0,0.5187,0.6533,0.6941,0.7366,0.0,0.0,0.0,0.0,0.0,0.0,0.0,0.0,1.1409,1.1409,0.0,1.1409,1.1409,1.1409,1.1409,1.1409,1.1632,1.1781,1.2003,1.1409,1.1352,1.2444,1.1883,1.1768,1.2666,1.2862,1.2946,1.2946,1.3175,1.3237,1.3322,1.3262,1.3275,1.3275,1.3379,1.3398,1.3398,1.3398,1.3398,1.3398,1.3561,1.3652,1.3652,1.3997,1.4503,1.509,1.509,1.5809,1.7009,1.6453,1.7001,1.8337,1.8416,1.8505,1.8647,1.8683,1.8612,1.8434,0.0,0.0,0.0,0.0,0.0,0.0,0.0,0.0,0.0,0.0,0.0,0.0,0.0,0.0,0.0,0.0,0.0,0.0,0.0,0.0,0.8204,0.8401,0.9009,0.9486,0.9855,0.9313,0.9113,0.9217,0.8283,0.8051,0.8426,0.8064,0.7563,0.698,0.7477,0.7147,0.6278,0.6462,0.6367,0.6064,0.5858,0.5795,0.572,0.5159,0.5104,0.0,0.0,0.0,0.0,0.0,0.0,0.0,0.5191,0.5128,0.5128,0.5419,0.6272,0.721,0.0,0.0,0.0,0.0,0.0,0.0,0.0,1.126,1.1335,1.1186,1.1186,1.1186,1.1335,1.1409,1.1484,1.1632,1.1781,1.1929,1.2003,1.2003,1.18,1.1265,1.184,1.1997,1.1438,1.2013,1.25,1.266,1.2388,1.2338,1.2507,1.2535,1.2569,1.2569,1.294,1.3137,1.3137,1.3137,1.3222,1.3398,1.3307,1.3307,1.3476,1.3913,1.4503,1.509,1.509,1.5681,1.6669,1.7001,1.7267,1.7508,1.8294,1.8505,1.8257,1.8585,1.8612,1.8399,0.0,0.0,0.0,0.0,0.0,0.0,0.0,0.0,0.0,0.0,0.0,0.0,0.0,0.0,0.0,0.0,0.0,0.0,0.0,0.0,0.7645,0.7839,0.8384,0.8755,0.8966,0.8332,0.8081,0.832,0.713,0.7074,0.8092,0.7429,0.6955,0.6605,0.665,0.6284,0.5669,0.5655,0.5485,0.5281,0.5072,0.4957,0.4835,0.4576,0.4613,0.4821,0.4718,0.0,0.0,0.0,0.0,0.0,0.0,0.0,0.5297,0.5758,0.6274,0.6939,0.0,0.0,0.0,0.0,0.0,0.0,0.0,1.1335,1.1409,1.1409,1.1409,1.1409,1.1484,1.1632,1.1706,1.1855,1.1929,1.2003,1.2157,1.2077,1.1855,1.1409,1.1759,1.1778,1.1241,1.1654,1.1975,1.2054,1.1933,1.192,1.2086,1.2134,1.2186,1.2312,1.2529,1.2753,1.2875,1.2881,1.2966,1.3052,1.3052,1.3222,1.3392,1.4075,1.458,1.4915,1.5409,1.6055,1.6798,1.7131,1.7473,1.7796,1.8364,1.8488,1.8408,1.8621,1.8612,1.8336,0.0,0.0,0.0,0.0,0.0,0.0,0.0,0.0,0.0,0.0,0.0,0.0,0.0,0.0,0.0,0.0,0.0,0.0,0.0,0.6715,0.6798,0.7116,0.7292,0.746,0.7548,0.6976,0.686,0.7132,0.5872,0.6098,0.0,0.0,0.619,0.6452,0.569,0.5265,0.5091,0.4792,0.4574,0.4456,0.4343,0.4214,0.4137,0.4319,0.4427,0.4513,0.4581,0.4736,0.4956,0.5183,0.0,0.0,0.0,0.0,0.5301,0.6105,0.6284,0.6753,0.0,0.0,0.0,0.0,0.0,0.0,0.0,1.1409,1.1558,1.1706,1.1706,1.1706,1.1781,1.1855,1.2003,1.2077,1.2003,1.2077,1.2231,1.1929,1.1781,1.1929,1.1632,1.1409,1.1409,1.1399,1.1461,1.1461,1.1661,1.1781,1.1781,1.183,1.1956,1.2168,1.2222,1.2373,1.2638,1.2638,1.2656,1.2705,1.2875,1.3137,1.3307,1.423,1.465,1.4734,1.5636,1.6468,1.7131,1.7302,1.7789,1.8442,1.8442,1.8523,1.8612,1.8612,1.8451,1.8345,0.0,0.0,0.0,0.0,0.0,0.0,0.0,0.0,0.0,0.0,0.0,0.693,0.7266,0.6689,0.0,0.0,0.0,0.0,0.5163,0.0,0.0,0.6003,0.6147,0.6353,0.6582,0.6158,0.601,0.6181,0.5756,0.0,0.0,0.0,0.0,0.5265,0.5399,0.5101,0.4447,0.467,0.4403,0.3832,0.3947,0.3865,0.3798,0.3866,0.4087,0.4403,0.429,0.4298,0.4388,0.4956,0.4556,0.0,0.0,0.0,0.4615,0.4783,0.5644,0.0,0.0,0.0,0.0,0.0,0.0,0.0,0.0,0.0,1.1929,1.1929,1.1855,1.1781,1.1929,1.2003,1.2077,1.2224,1.2077,1.2003,1.2003,1.1855,1.1706,1.1706,1.1558,1.1409,1.1409,1.1222,1.1166,1.1166,1.1202,1.122,1.122,1.1449,1.16,1.1636,1.186,1.2101,1.2361,1.2367,1.2481,1.2705,1.2705,1.279,1.279,1.3977,1.4566,1.4734,1.5462,1.6206,1.7123,1.7861,1.8273,1.8442,1.8442,1.8442,1.8442,1.8201,1.804,1.7989,0.0,0.0,0.0,0.0,0.0,0.0,0.0,0.0,0.0,0.0,0.0,0.591,0.6209,0.5696,0.0,0.0,0.0,0.0,0.4539,0.4826,0.0,0.0,0.5471,0.5553,0.5738,0.5149,0.4956,0.5193,0.0,0.0,0.0,0.4447,0.4425,0.0,0.0,0.0,0.4146,0.4228,0.4104,0.3755,0.3803,0.3622,0.3363,0.3732,0.3666,0.3488,0.3797,0.3816,0.3666,0.3858,0.3677,0.349,0.3858,0.0,0.0,0.0,0.0,0.0,0.0,0.0,0.0,0.0,0.0,0.0,0.0,0.0,1.1335,1.1484,1.1781,1.2077,1.215,1.2077,1.2003,1.215,1.1855,1.1706,1.1855,1.1558,1.1409,1.1484,1.1484,1.1335,1.126,1.126,1.1186,1.1111,1.1111,1.1111,1.1111,1.1602,1.2049,1.2203,1.2705,1.3144,1.3454,1.3608,1.3837,1.4216,1.4216,1.4216,1.4216,1.4727,1.4977,1.5144,1.6041,1.687,1.7619,1.8031,1.8201,1.8201,1.8201,1.8201,1.8201,1.804,1.804,1.8014,0.0,0.0,0.0,0.0,0.0,0.0,0.0,0.0,0.0,0.0,0.0,0.0,0.5183,0.0,0.0,0.0,0.0,0.0,0.3955,0.0,0.0,0.0,0.0,0.4508,0.4436,0.39,0.3684,0.0,0.0,0.0,0.3993,0.3649,0.3768,0.0,0.4054,0.3918,0.0,0.3898,0.3851,0.3728,0.3436,0.3055,0.27,0.3289,0.3161,0.2729,0.3236,0.3175,0.2954,0.2977,0.291,0.289,0.3258,0.3439,0.0,0.0,0.0,0.0,0.0,0.0,0.0,0.0,0.0,0.0,0.0,0.0,1.0887,1.1037,1.1706,1.2305,1.2224,1.215,1.2077,1.2077,1.1706,1.1558,1.1706,1.1335,1.1186,1.1409,1.1558,1.1558,1.1484,1.1781,1.1848,1.17,1.17,1.17,1.1626,1.2218,1.2695,1.2838,1.344,1.3899,1.4234,1.4619,1.494,1.527,1.535,1.5394,1.5394,1.5636,1.5718,1.5801,1.6542,1.7367,1.804,1.804,1.804,1.804,1.804,1.804,1.804,1.804,1.804,1.8112,0.0,0.0,0.0,0.0,0.0,0.0,0.0,0.0,0.0,0.0,0.0,0.0,0.0,0.0,0.4105,0.3967,0.0,0.0,0.0,0.0,0.0,0.0,0.0,0.0,0.2363,0.2365,0.2073,0.0,0.0,0.0,0.2047,0.2921,0.3224,0.3021,0.3918,0.3912,0.3376,0.3735,0.378,0.3529,0.2382,0.1818,0.1726,0.2212,0.2442,0.2497,0.2565,0.2395,0.2247,0.2757,0.2305,0.174,0.2531,0.2193,0.1459,0.0,0.0,0.0,0.0,0.0,0.0,0.0,0.0,0.0,0.0,0.0,1.1111,1.1111,1.1706,1.2224,1.2077,1.2157,1.2305,1.2305,1.1929,1.1706,1.1706,1.1335,1.1186,1.1409,1.1929,1.2298,1.2526,1.3025,1.339,1.339,1.339,1.331,1.3091,1.331,1.339,1.3185,1.3411,1.3638,1.396,1.4503,1.4823,1.4845,1.5248,1.5394,1.5394,1.6296,1.6617,1.6617,1.6698,1.7196,1.804,1.804,1.804,1.804,1.804,1.804,1.804,1.804,1.8201,1.8362,0.0,0.0,0.0,0.0,0.0,0.0,0.0,0.0,0.0,0.0,0.0,0.0,0.0,0.3615,0.3162,0.2775,0.251,0.0,0.0,0.0,0.0,0.0,0.0,0.0,0.0,0.2211,0.0,0.0,0.0,0.1667,0.2042,0.2071,0.2281,0.2622,0.3013,0.3163,0.3028,0.29,0.2779,0.2578,0.1956,0.1494,0.1233,0.1383,0.1548,0.1595,0.1599,0.1506,0.1459,0.1797,0.1572,0.1178,0.1403,0.129,0.101,0.0898,0.2023,0.0,0.0,0.0,0.0,0.0,0.0,0.6699,0.7567,0.868,0.9679,1.0201,1.0881,1.1484,1.1929,1.1929,1.1855,1.1706,1.1484,1.1484,1.2003,1.1929,1.207,1.2652,1.3025,1.3244,1.3171,1.3462,1.3608,1.3535,1.3535,1.3462,1.3382,1.389,1.4171,1.4099,1.4697,1.5161,1.5429,1.5681,1.6045,1.6507,1.6716,1.6823,1.7049,1.7367,1.7538,1.7538,1.7538,1.77,1.804,1.804,1.804,1.804,1.804,1.804,1.804,1.8193,1.8362,1.8442,0.0,0.0,0.0,0.0,0.0,0.0,0.0,0.0,0.0,0.3744,0.0,0.0,0.0,0.0,0.2169,0.2025,0.1715,0.1457,0.1286,0.1526,0.0,0.0,0.0,0.0,0.0,0.0,0.0,0.0,0.0,0.0,0.0,0.1396,0.1443,0.1256,0.1724,0.2147,0.0,0.1902,0.1657,0.1629,0.1483,0.1203,0.0991,0.0969,0.1043,0.1021,0.0796,0.0896,0.113,0.0968,0.0842,0.0842,0.0842,0.0842,0.0842,0.0785,0.1459,0.1983,0.0884,0.0,0.0,0.0,0.0,0.5776,0.7001,0.789,0.8599,0.9341,1.0282,1.1037,1.1484,1.1632,1.1632,1.1484,1.1558,1.1781,1.2305,1.2592,1.2879,1.3462,1.3825,1.4042,1.389,1.4258,1.4418,1.4266,1.4266,1.4266,1.4186,1.4689,1.4982,1.4982,1.5505,1.5917,1.6156,1.6276,1.6584,1.709,1.7346,1.7603,1.7852,1.798,1.804,1.804,1.804,1.804,1.804,1.804,1.804,1.804,1.804,1.804,1.8031,1.8282,1.8442,1.8523,0.0,0.0,0.0,0.0,0.0,0.0,0.0,0.0,0.2776,0.2551,0.0,0.0,0.0,0.0,0.0,0.1703,0.1496,0.1149,0.0671,0.0649,0.0,0.0,0.0,0.0,0.0,0.0,0.0,0.0,0.0,0.0,0.0,0.0,0.0716,-0.1074,0.009,0.0988,0.1569,0.0718,0.045,0.0637,0.0857,0.0918,0.0858,0.0967,0.0939,0.0856,0.0129,0.0469,0.119,0.0235,0.0225,0.0673,0.0842,0.0898,0.0842,0.0785,0.0617,0.0505,0.0,0.0,0.0,0.0,0.0,0.0,0.7136,0.7517,0.7883,0.8529,0.9895,1.095,1.0812,1.126,1.1706,1.1706,1.215,1.2526,1.2599,1.3105,1.3462,1.3535,1.4178,1.4601,1.4673,1.5355,1.5805,1.5805,1.5805,1.5726,1.5505,1.5655,1.5805,1.5805,1.5805,1.5805,1.5805,1.6139,1.6319,1.6345,1.7081,1.7519,1.7544,1.7843,1.8023,1.8023,1.8031,1.804,1.804,1.8031,1.804,1.804,1.804,1.8031,1.804,1.8362,1.8523,1.8772,0.0,0.0,0.0,0.0,0.0,0.3477,0.3279,0.255,0.1835,0.0,0.0,0.0,0.1299,0.0447,-0.0045,0.0134,-0.0219,-0.048,-0.0582,-0.031,-0.031,-0.0672,-0.0588,-0.0421,-0.0198,0.0,0.0,0.0,0.0,0.0,-0.1564,-0.0847,-0.0758,-0.125,-0.1119,-0.0805,-0.0446,-0.0403,-0.0642,-0.0955,-0.0204,-0.0114,-0.0515,0.0066,0.0063,-0.0282,-0.0818,-0.0876,-0.0734,-0.0324,-0.0121,0.0056,0.0673,0.0336,-0.0112,0.0617,0.0785,0.0673,0.0336,0.0,0.0,0.0,0.0,0.0,0.5004,0.6272,0.6941,0.7651,0.824,0.903,1.0548,1.0812,1.1037,1.1632,1.1632,1.1706,1.2305,1.2673,1.3244,1.4394,1.4681,1.5046,1.5621,1.5718,1.5805,1.5805,1.5805,1.5805,1.5726,1.5797,1.5805,1.5805,1.6333,1.6333,1.5805,1.6439,1.6626,1.6353,1.6633,1.7098,1.7907,1.8285,1.8766,1.9324,1.9085,1.8904,1.8904,1.8273,1.804,1.804,1.8193,1.8282,1.8353,1.8683,1.8843,1.8922,0.0,0.0,0.0,0.0,0.3404,0.3108,0.2815,0.2432,0.1884,0.0,0.0,0.0,-0.0045,-0.059,-0.0957,-0.0896,-0.1164,-0.1299,-0.1208,-0.1074,-0.103,-0.1119,-0.1164,-0.1016,-0.059,-0.077,-0.1116,0.0,-0.1792,-0.2178,-0.2778,-0.1997,-0.1801,-0.2062,-0.1804,-0.17,-0.1739,-0.1743,-0.1641,-0.1366,-0.0679,-0.06,-0.0885,-0.0556,-0.0672,-0.1161,-0.1607,-0.1703,-0.1486,-0.1227,-0.0954,-0.0673,-0.0615,-0.0727,-0.0894,-0.0504,0.0224,0.0842,0.0449,0.0168,-0.0,-0.0,0.0,0.0,0.3748,0.4886,0.5676,0.7212,0.7767,0.8477,0.9728,1.0288,1.0812,1.1335,1.1484,1.1706,1.2452,1.2966,1.3615,1.476,1.4903,1.5196,1.5929,1.5929,1.5938,1.5938,1.5938,1.5867,1.5805,1.5805,1.5938,1.6272,1.6664,1.6664,1.6272,1.6673,1.6781,1.6599,1.6766,1.7325,1.8218,1.8685,1.9193,1.9752,1.9621,1.9606,1.9766,1.8975,1.8505,1.8201,1.8442,1.8531,1.8523,1.8843,1.9002,1.9002,0.0,0.0,0.314,0.3098,0.2838,0.2436,0.1862,0.2163,0.202,0.0,-0.1349,-0.2492,-0.1726,-0.1631,-0.1594,-0.1502,-0.1666,-0.1706,-0.1533,-0.1706,-0.1612,-0.1253,-0.1119,-0.1049,-0.0998,-0.1195,-0.1656,-0.2467,-0.2198,-0.2686,-0.3866,-0.2611,-0.2427,-0.3119,-0.2187,-0.2016,-0.2415,-0.3004,-0.2509,-0.1298,-0.0897,-0.0839,-0.0979,-0.1004,-0.1322,-0.1798,-0.2356,-0.2193,-0.1675,-0.2202,-0.2049,-0.1689,-0.2257,-0.2032,-0.1652,-0.1967,-0.0846,0.0569,0.0678,0.0395,0.0057,0.0056,0.0056,0.0,0.2836,0.349,0.4271,0.667,0.7802,0.8426,0.8524,0.9489,1.0467,1.0879,1.1396,1.2004,1.2739,1.3477,1.4122,1.4689,1.4832,1.5054,1.5655,1.5929,1.6061,1.6061,1.6061,1.6,1.5797,1.5867,1.6272,1.6862,1.707,1.707,1.7001,1.707,1.707,1.701,1.73,1.783,1.8615,1.9046,1.9448,1.9979,1.9993,2.0183,2.0546,1.9963,1.9292,1.8594,1.8692,1.8772,1.886,1.9002,1.9082,1.9082,0.0,0.2359,0.2136,0.2232,0.2166,0.1489,-0.043,-0.0459,-0.0537,-0.1389,-0.1704,-0.1758,-0.147,-0.1733,-0.1918,-0.1964,-0.2185,-0.2361,-0.2345,-0.237,-0.2326,-0.2237,-0.2101,-0.2052,-0.2186,-0.2256,-0.2451,-0.2723,-0.2987,-0.3142,-0.3173,-0.2929,-0.2779,-0.2765,-0.2471,-0.2551,-0.2868,-0.2821,-0.2729,-0.2588,-0.1921,-0.2017,-0.2446,-0.1649,-0.1805,-0.2518,-0.2961,-0.2979,-0.2801,-0.2471,-0.2736,-0.3092,-0.239,-0.2645,-0.3001,-0.231,-0.1836,-0.1366,-0.0649,-0.0059,0.0361,0.0352,0.035,0.0,0.0962,0.1932,0.3206,0.4569,0.5681,0.6708,0.7608,0.739,0.771,0.9575,1.0066,1.0741,1.2231,1.2519,1.2952,1.3673,1.4114,1.4625,1.5275,1.578,1.5991,1.5867,1.6,1.6,1.5797,1.6482,1.689,1.6932,1.8017,1.8297,1.7755,1.8297,1.8297,1.7765,1.7842,1.8359,1.9189,1.9644,2.026,2.1098,2.1062,2.1124,2.1386,2.0994,2.0362,1.9599,1.9301,1.932,1.9408,1.9487,1.9478,1.9478,0.1474,0.1455,0.1348,0.1406,0.0917,0.0197,-0.0653,-0.1454,-0.1896,-0.1702,-0.1845,-0.1947,-0.2008,-0.2289,-0.2449,-0.2303,-0.2454,-0.2537,-0.2445,-0.2488,-0.2504,-0.2504,-0.237,-0.2303,-0.2355,-0.2498,-0.267,-0.2773,-0.3077,-0.3176,-0.3213,-0.2939,-0.2874,-0.2929,-0.2715,-0.2677,-0.2851,-0.2837,-0.2909,-0.2934,-0.2437,-0.2363,-0.2583,-0.2141,-0.2157,-0.2492,-0.3083,-0.3372,-0.3446,-0.3054,-0.3229,-0.3498,-0.3023,-0.3119,-0.3421,-0.3004,-0.2859,-0.2808,-0.2625,-0.2083,-0.1259,0.0295,0.0714,0.0,0.0,0.234,0.3134,0.4051,0.4637,0.5196,0.5727,0.6206,0.6836,0.7817,0.8811,0.9777,1.0429,1.1488,1.2445,1.3258,1.3622,1.3985,1.4561,1.5338,1.5912,1.6202,1.6272,1.6272,1.607,1.676,1.7295,1.756,1.8499,1.8844,1.8509,1.8844,1.8844,1.8509,1.8509,1.8977,1.9868,2.0105,2.0631,2.1375,2.1363,2.168,2.2136,2.1692,2.1473,2.1375,2.076,2.0391,2.0255,2.0255,2.002,1.9715,0.0793,0.0921,0.0866,0.072,-0.0051,-0.0647,-0.0556,-0.1789,-0.247,-0.1738,-0.2113,-0.253,-0.2702,-0.2887,-0.2876,-0.2624,-0.2529,-0.2523,-0.2488,-0.2604,-0.2733,-0.2871,-0.2645,-0.2499,-0.2431,-0.254,-0.262,-0.2672,-0.296,-0.3159,-0.3255,-0.2926,-0.2871,-0.3077,-0.2807,-0.2726,-0.2777,-0.2925,-0.3013,-0.3053,-0.2728,-0.2552,-0.2478,-0.2509,-0.2424,-0.2458,-0.3179,-0.3526,-0.3675,-0.3607,-0.3524,-0.3433,-0.3523,-0.3502,-0.343,-0.3505,-0.3522,-0.3698,-0.398,-0.383,-0.2877,-0.012,0.0731,0.1123,0.0,0.0,0.0,0.3496,0.3597,0.3605,0.3605,0.4857,0.586,0.5636,0.7136,0.8358,0.8161,0.9961,1.1546,1.2404,1.2933,1.3382,1.367,1.4662,1.56,1.6455,1.6468,1.639,1.6263,1.7097,1.7774,1.824,1.8911,1.9309,1.932,1.9309,1.9253,1.9253,1.9309,1.9726,2.0475,2.0464,2.0817,2.134,2.1441,2.1981,2.273,2.2369,2.2615,2.315,2.2069,2.1395,2.1021,2.0867,2.0401,1.9942,0.0793,0.0886,0.0823,0.0474,0.0529,0.0052,-0.1449,-0.1887,-0.2265,-0.2923,-0.2986,-0.3084,-0.3211,-0.2956,-0.2817,-0.2872,-0.2505,-0.2524,-0.316,-0.3282,-0.3588,-0.4264,-0.361,-0.3298,-0.3366,-0.2856,-0.262,-0.262,-0.3113,-0.3171,-0.289,-0.2948,-0.2846,-0.2602,-0.2613,-0.2755,-0.2978,-0.2847,-0.3026,-0.3299,-0.3003,-0.2975,-0.3059,-0.2534,-0.2559,-0.287,-0.3255,-0.3446,-0.348,-0.3466,-0.3519,-0.3459,-0.3304,-0.3361,-0.3422,-0.3216,-0.3372,-0.3529,-0.3384,-0.2935,-0.2229,-0.1147,-0.0383,0.0319,0.106,0.0,0.1269,0.1338,0.0,0.1333,0.1333,0.0,0.0,0.2664,0.4243,0.556,0.5868,0.7438,0.892,0.9958,1.2093,1.3201,1.2487,1.359,1.49,1.6219,1.5972,1.5891,1.6306,1.7755,1.8566,1.8442,1.9594,2.0335,2.0529,2.0335,2.027,2.027,2.0399,2.0529,2.0669,2.0786,2.1001,2.1284,2.1667,2.2182,2.2731,2.3107,2.3587,2.3897,2.1993,2.1328,2.1349,2.0654,2.0342,2.0186,0.041,0.0686,0.0804,0.0586,-0.016,-0.084,-0.1317,-0.2051,-0.2646,-0.2941,-0.2979,-0.3183,-0.371,-0.3439,-0.3268,-0.3364,-0.3062,-0.2824,-0.2715,-0.2728,-0.2892,-0.3243,-0.2894,-0.2642,-0.258,-0.2343,-0.2321,-0.2417,-0.2644,-0.2796,-0.2821,-0.2742,-0.2687,-0.263,-0.2571,-0.274,-0.3053,-0.2819,-0.289,-0.3153,-0.3122,-0.3187,-0.3203,-0.2688,-0.2601,-0.271,-0.2905,-0.3138,-0.3348,-0.3216,-0.3213,-0.3282,-0.3139,-0.3117,-0.3224,-0.3097,-0.3249,-0.3356,-0.3235,-0.3022,-0.2574,-0.1416,-0.0923,-0.0401,0.0768,0.1008,0.1001,0.1001,0.0,0.0,0.0,0.0,0.0,0.0,0.3479,0.4566,0.4335,0.618,0.7922,0.8816,0.9825,1.0902,1.2211,1.3308,1.4718,1.6524,1.61,1.5996,1.6603,1.7638,1.8104,1.8037,1.8844,1.9528,2.0074,2.0009,2.014,2.0604,2.0669,2.0733,2.085,2.0839,2.1019,2.1348,2.1504,2.195,2.2538,2.2913,2.3503,2.4001,2.2955,2.2392,2.2035,2.1797,2.1185,2.0489,0.0306,0.0534,0.0606,0.0162,-0.0809,-0.1551,-0.1565,-0.2338,-0.2943,-0.2866,-0.2902,-0.3205,-0.3986,-0.3653,-0.346,-0.3595,-0.3245,-0.2886,-0.2569,-0.2631,-0.2762,-0.3018,-0.2726,-0.2494,-0.2331,-0.2195,-0.2203,-0.225,-0.2363,-0.2503,0.0,-0.2644,-0.2663,-0.2647,-0.2697,-0.2849,-0.3084,-0.2921,-0.2947,-0.3216,-0.3264,-0.329,-0.3306,-0.2877,-0.2624,-0.2491,-0.2559,-0.2831,-0.3167,-0.2963,-0.2949,-0.3055,-0.2952,-0.2959,-0.2988,-0.2935,-0.3037,-0.3093,-0.3042,-0.2947,-0.2535,-0.1354,-0.0935,-0.0478,0.0718,0.1039,0.1042,0.1031,0.102,0.0,0.0,0.0,0.1249,0.1622,0.0,0.368,0.3406,0.5027,0.6556,0.7521,0.7886,0.9108,1.1715,1.2485,1.3832,1.621,1.5799,1.5817,1.683,1.7442,1.7774,1.7774,1.8307,1.8844,1.9396,1.9396,1.966,2.0194,2.0388,2.0582,2.0635,2.0892,2.1146,2.1388,2.1526,2.1818,2.2278,2.2573,2.2982,2.3324,2.3162,2.2563,2.1852,2.2155,2.1395,2.0245,0.0851,0.0639,0.0054,-0.1059,-0.1064,-0.1399,-0.274,-0.291,-0.2963,-0.3065,-0.3042,-0.3222,-0.3859,-0.3299,-0.3037,-0.3398,-0.2698,-0.2545,-0.3201,-0.3411,-0.376,-0.4498,-0.3981,-0.3547,-0.3372,-0.2852,-0.2442,-0.2123,-0.247,-0.2535,0.0,-0.2758,-0.2802,-0.2533,-0.3053,-0.324,-0.3191,-0.3213,-0.3374,-0.3632,-0.3458,-0.3368,-0.3333,-0.3006,-0.2619,-0.2221,-0.2491,-0.2632,-0.2651,-0.2787,-0.2821,-0.2818,-0.2634,-0.2725,-0.2872,-0.2666,-0.2722,-0.2867,-0.2651,-0.2143,-0.153,-0.1037,-0.0329,0.0401,0.091,0.1054,0.1063,0.1024,0.1178,0.126,0.1279,0.147,0.1543,0.1543,0.1885,0.0,0.0,0.3478,0.4222,0.5631,0.6953,0.8533,1.064,1.0528,1.1674,1.4941,1.4706,1.5167,1.6793,1.7569,1.7969,1.7969,1.8499,1.8834,1.9044,1.89,1.8834,1.89,1.9704,2.0042,1.9835,2.0933,2.1388,2.1388,2.1726,2.1905,2.1927,2.2147,2.2037,2.1668,2.1865,2.1246,2.0353,2.0904,2.0372,1.9301,0.0897,0.0486,-0.0055,-0.056,-0.1569,-0.2411,-0.286,-0.286,-0.2847,-0.3146,-0.2893,-0.3138,-0.4209,-0.3689,-0.3407,-0.3567,-0.3161,-0.282,-0.2661,-0.2699,-0.2873,-0.3223,-0.3038,-0.2809,-0.2698,-0.2424,-0.234,-0.2287,-0.2366,-0.2403,0.0,0.0,-0.2535,-0.2613,-0.2747,-0.2909,-0.3213,-0.3214,-0.3306,-0.3517,-0.3401,-0.3317,-0.3207,-0.302,-0.2759,-0.2443,-0.2583,-0.2612,-0.2578,-0.2482,-0.2588,-0.2799,-0.256,-0.2597,-0.2707,-0.2613,-0.2665,-0.2689,-0.2502,-0.2317,-0.1922,-0.0801,-0.04,-0.0067,0.093,0.112,0.105,0.1186,0.1199,0.1205,0.1455,0.1455,0.1449,0.1486,0.1661,0.194,0.0,0.3191,0.4085,0.4908,0.6245,0.7558,0.8933,1.004,1.157,1.3876,1.4468,1.5133,1.6105,1.689,1.7304,1.7304,1.7432,1.7765,1.8297,1.8297,1.8499,1.8977,1.9243,1.9309,1.9309,2.0291,2.0409,1.9857,2.0526,2.0562,2.0204,2.0474,2.0764,2.0976,2.1281,2.0787,2.0051,2.0508,2.0129,1.9301,0.0699,0.011,-0.0336,-0.0504,-0.1849,-0.2916,-0.286,-0.2805,-0.2868,-0.3053,-0.2869,-0.3053,-0.4119,-0.3583,-0.3334,-0.3601,-0.3227,-0.2797,-0.238,-0.2364,-0.2405,-0.246,-0.2479,-0.2415,-0.2249,-0.217,-0.2206,-0.2206,-0.2133,-0.216,-0.2395,0.0,0.0,-0.2575,-0.2677,-0.2896,-0.3221,-0.3322,-0.3453,-0.3526,-0.345,-0.3323,-0.3226,-0.3061,-0.2842,-0.2515,-0.2475,-0.2461,-0.251,-0.2524,-0.2584,-0.2707,-0.2761,-0.2688,-0.2547,-0.2633,-0.2581,-0.2423,-0.2055,-0.1798,-0.139,-0.02,0.02,0.0535,0.1181,0.1298,0.1298,0.1386,0.1391,0.14,0.17,0.1693,0.1672,0.1706,0.1701,0.1796,0.0,0.3164,0.4106,0.432,0.5358,0.6488,0.779,0.8943,1.0541,1.2848,1.3493,1.4277,1.5534,1.5965,1.6324,1.663,1.676,1.6959,1.7207,1.7354,1.756,1.7881,1.8085,1.8287,1.8355,1.9278,1.9399,1.8936,1.9661,1.9661,1.9156,1.9412,1.9589,1.9667,1.9965,1.9752,1.9316,2.0139,1.9825,1.9073,0.0336,-0.0448,-0.095,-0.1006,-0.2071,-0.286,-0.2747,-0.2809,-0.2879,-0.2881,-0.2841,-0.3015,-0.362,-0.3049,-0.2884,-0.3297,-0.2735,-0.2383,-0.2455,-0.2398,-0.2358,-0.236,-0.2359,-0.2317,-0.2065,-0.2128,-0.2058,-0.1882,-0.1881,-0.1877,-0.1926,0.0,0.0,0.0,-0.2897,-0.3162,-0.3309,-0.3604,-0.3726,-0.3765,-0.3532,-0.3448,-0.3437,-0.3214,-0.2811,-0.2376,-0.2252,-0.2232,-0.2335,-0.2847,-0.2743,-0.2505,-0.3107,-0.2849,-0.2418,-0.2568,-0.2377,-0.2032,-0.1341,-0.063,0.0069,0.0654,0.1449,0.2054,0.1634,0.1645,0.1741,0.1616,0.1683,0.1842,0.201,0.2124,0.2151,0.2146,0.2011,0.1908,0.2178,0.3383,0.4142,0.3899,0.4444,0.5455,0.7126,0.725,0.8612,1.1801,1.1859,1.2698,1.4942,1.4917,1.5201,1.5991,1.6324,1.6254,1.5833,1.6123,1.6123,1.5833,1.6437,1.6844,1.7111,1.7968,1.8449,1.8603,1.9058,1.9003,1.87,1.8844,1.8497,1.7952,1.822,1.8197,1.8315,1.9674,1.952,1.87,0.0168,-0.084,-0.1734,-0.2183,-0.2521,-0.2747,-0.2691,-0.2691,-0.2759,-0.2862,-0.2732,-0.2705,-0.2998,-0.2735,-0.2574,-0.2673,-0.2463,-0.2335,-0.2255,-0.235,-0.2299,-0.2099,-0.2199,-0.2148,-0.1861,-0.2151,-0.2176,-0.2058,-0.2221,-0.2345,-0.2323,0.0,0.0,0.0,-0.2685,-0.2937,-0.3245,-0.3558,-0.3672,-0.3534,-0.2824,-0.2763,-0.3057,-0.2942,-0.272,-0.2579,-0.2579,-0.2436,-0.2342,-0.2532,-0.2558,-0.2498,-0.1979,-0.1823,-0.1732,-0.1035,-0.0806,-0.0652,-0.0423,-0.021,0.0069,0.0805,0.1119,0.124,0.171,0.1693,0.1696,0.1839,0.1785,0.1782,0.2112,0.1961,0.1858,0.1842,0.1578,0.1834,0.3105,0.342,0.3901,0.5099,0.5715,0.6108,0.6075,0.729,0.8595,0.9764,1.1296,1.2498,1.3266,1.3329,1.3976,1.5147,1.5171,1.5401,1.5991,1.5982,1.5912,1.5833,1.5965,1.6175,1.6394,1.7257,1.7404,1.6941,1.7736,1.7736,1.7148,1.7217,1.7259,1.7469,1.7797,1.8303,1.8779,1.9036,1.8922,1.87,0.028,-0.084,-0.1902,-0.2577,-0.2691,-0.2604,-0.2563,-0.2553,-0.2576,-0.2523,-0.2362,-0.2304,-0.2414,-0.2304,-0.2161,-0.2155,-0.2132,-0.2146,-0.2101,-0.2094,-0.203,-0.1905,-0.195,-0.1924,-0.1781,-0.1976,-0.207,-0.2041,-0.2211,-0.2214,-0.1958,0.0,0.0,0.0,0.0,-0.2218,-0.2331,-0.2439,-0.2446,-0.2356,-0.1647,-0.1542,0.0,-0.1629,-0.1541,-0.1506,-0.1757,-0.2057,-0.2338,-0.2115,-0.1979,-0.184,-0.1744,-0.135,-0.0888,-0.0433,-0.0213,-0.0,0.0345,0.0413,0.0617,0.1418,0.1528,0.1577,0.1914,0.1957,0.196,0.2048,0.1998,0.2009,0.2262,0.2089,0.1884,0.1903,0.1907,0.2299,0.3153,0.3636,0.4229,0.5214,0.5839,0.6001,0.5559,0.7384,0.8554,0.8495,0.9965,1.1015,1.153,1.1749,1.2563,1.3924,1.4165,1.4466,1.5054,1.5125,1.5196,1.5275,1.5346,1.5488,1.57,1.6315,1.6394,1.614,1.6802,1.6872,1.6473,1.6682,1.6888,1.716,1.7742,1.8276,1.8768,1.8939,1.8922,1.8922,0.0505,-0.0616,-0.1621,-0.2296,-0.2313,-0.2147,-0.1977,-0.2216,-0.2355,-0.2082,-0.2004,-0.197,-0.1974,-0.1879,-0.1844,-0.1883,-0.185,-0.1808,-0.191,-0.1759,-0.1739,-0.1764,-0.155,-0.1479,-0.148,-0.1406,-0.1474,-0.1611,-0.1742,-0.1625,-0.1174,0.0,0.0,0.0,0.0,-0.1303,-0.111,-0.0941,-0.0887,-0.0864,-0.0313,-0.0157,-0.0235,-0.0078,-0.0,-0.0078,-0.0392,-0.1254,-0.2188,-0.1606,-0.1078,-0.0858,-0.1517,-0.0889,0.0072,-0.0,0.0137,0.047,0.1142,0.1277,0.1412,0.2085,0.2288,0.2341,0.2152,0.2204,0.2289,0.2221,0.2234,0.221,0.2358,0.2229,0.2129,0.2093,0.2596,0.3004,0.2981,0.411,0.4964,0.5006,0.5632,0.0,0.5479,0.7345,0.8302,0.7693,0.8199,0.902,0.9995,1.0245,1.1018,1.2615,1.3165,1.3528,1.3688,1.3977,1.4201,1.4425,1.4577,1.4784,1.4982,1.5213,1.5434,1.5655,1.5921,1.6061,1.6123,1.6473,1.6648,1.6774,1.7596,1.8064,1.8383,1.9076,1.9222,1.9143,0.0561,-0.0168,-0.067,-0.0782,-0.0468,-0.0185,-0.0066,-0.128,-0.2146,-0.1934,-0.1899,-0.187,-0.1934,-0.187,-0.1878,-0.1886,-0.188,-0.1855,-0.1809,-0.1806,-0.1711,-0.145,-0.065,-0.0217,-0.0217,0.042,0.0538,-0.0,-0.0248,-0.0415,-0.0559,-0.0503,0.0,0.0,0.0,-0.0605,-0.0546,-0.014,-0.0074,-0.0157,0.047,0.0392,-0.0078,-0.0,-0.0,0.0078,0.0705,0.0078,-0.1018,-0.0468,-0.0234,-0.0078,0.0372,0.0584,0.0793,0.1649,0.189,0.1883,0.2284,0.2218,0.2087,0.2288,0.2288,0.2218,0.2207,0.2204,0.2223,0.2215,0.2229,0.2223,0.2204,0.2048,0.1892,0.1805,0.2433,0.3283,0.4024,0.4886,0.5696,0.63,0.7018,0.705,0.5915,0.6513,0.6876,0.6646,0.7091,0.7922,0.93,0.8985,0.9793,1.2045,1.2044,1.2432,1.331,1.3178,1.3266,1.3484,1.3484,1.3695,1.4049,1.4049,1.4266,1.4561,1.4625,1.476,1.4887,1.4966,1.5217,1.561,1.6721,1.7438,1.7891,1.891,1.8816,1.8327,0.0561,0.028,0.0056,-0.0279,-0.0059,0.0256,0.0478,-0.0145,-0.0669,-0.095,-0.0958,-0.1119,-0.1587,-0.1625,-0.1572,-0.1572,-0.1572,-0.1407,-0.0926,-0.0848,-0.0613,-0.0,0.0448,0.0742,0.0742,0.1013,0.0966,0.0386,0.019,0.0121,0.0168,-0.0056,0.0112,0.0617,0.0,0.0719,0.0744,0.1161,0.1339,0.1254,0.1568,0.1568,0.1332,0.1332,0.1332,0.1332,0.1803,0.1489,0.094,0.0862,0.1097,0.1325,0.1655,0.1784,0.1838,0.2305,0.2475,0.2534,0.2696,0.2552,0.2421,0.2423,0.2357,0.2288,0.2221,0.2221,0.223,0.2192,0.2223,0.2166,0.2206,0.2405,0.2594,0.2557,0.3537,0.448,0.5041,0.5749,0.635,0.6768,0.7098,0.6975,0.6062,0.6063,0.6252,0.6507,0.6682,0.7511,0.9053,0.8539,0.9138,1.1247,1.1335,1.1774,1.2586,1.2445,1.2673,1.32,1.3331,1.3542,1.3833,1.3905,1.4049,1.4201,1.4274,1.4338,1.4474,1.4537,1.4704,1.4992,1.592,1.647,1.6685,1.7632,1.7674,1.7423,0.0856,0.0858,0.0803,0.0291,0.0435,0.0732,0.1053,0.1276,0.1159,0.0298,0.0222,-0.0074,-0.0741,-0.0767,-0.0785,-0.0785,-0.0785,-0.0471,0.0235,0.0313,0.0548,0.1254,0.1538,0.1598,0.1523,0.1643,0.1497,0.0992,0.0856,0.0879,0.1027,0.0507,0.0728,0.1691,0.1794,0.1929,0.2064,0.229,0.2474,0.2511,0.2511,0.2511,0.2511,0.2511,0.2511,0.2511,0.2511,0.2511,0.2431,0.2038,0.2117,0.25,0.2443,0.2574,0.27,0.2654,0.2745,0.2787,0.2863,0.2765,0.2686,0.2557,0.249,0.2423,0.2288,0.2221,0.2288,0.2421,0.2531,0.264,0.264,0.3136,0.3544,0.3623,0.474,0.5617,0.5856,0.6474,0.6913,0.7017,0.6846,0.6623,0.6343,0.5994,0.6129,0.6757,0.6652,0.7258,0.8815,0.8285,0.879,1.0413,1.0698,1.1021,1.1316,1.1675,1.215,1.2673,1.2952,1.3244,1.347,1.3615,1.3695,1.3695,1.3833,1.3905,1.3905,1.4034,1.4099,1.416,1.5015,1.538,1.5513,1.6365,1.6553,1.6535,0.1814,0.1894,0.1927,0.1968,0.2219,0.2439,0.2703,0.3083,0.2737,0.1324,0.1168,0.1168,0.109,0.1016,0.1019,0.1019,0.1019,0.1097,0.1175,0.1175,0.1254,0.1332,0.2187,0.2577,0.2423,0.3354,0.3571,0.3027,0.2693,0.2417,0.2137,0.1788,0.174,0.1977,0.2035,0.2399,0.2865,0.2534,0.2625,0.2982,0.2668,0.2511,0.2511,0.2511,0.2511,0.2511,0.2511,0.2511,0.2511,0.2431,0.2431,0.25,0.2668,0.2648,0.2783,0.3076,0.2997,0.2868,0.3213,0.3014,0.2753,0.2889,0.2822,0.2621,0.2423,0.2357,0.249,0.3017,0.3627,0.4102,0.4102,0.4188,0.4356,0.4446,0.5289,0.602,0.6159,0.6881,0.7374,0.722,0.7037,0.6986,0.695,0.6566,0.6639,0.7423,0.6804,0.6917,0.8032,0.8061,0.8587,0.9763,1.0019,0.9801,0.9139,1.0689,1.1335,1.1037,1.1632,1.2077,1.2445,1.2452,1.2445,1.2445,1.2445,1.2526,1.2519,1.2519,1.2519,1.2627,1.379,1.4409,1.4784,1.5929,1.6025,1.556,0.22,0.2147,0.2178,0.2277,0.2568,0.2865,0.3011,0.3396,0.3448,0.2899,0.2352,0.1803,0.1332,0.1332,0.1332,0.1332,0.1332,0.1489,0.196,0.2038,0.2273,0.2743,0.3212,0.337,0.3294,0.3684,0.3753,0.3279,0.2942,0.2598,0.232,0.2141,0.2208,0.2461,0.2613,0.2756,0.302,0.2735,0.2775,0.2904,0.2589,0.2511,0.2511,0.2511,0.2511,0.2511,0.2511,0.2511,0.2511,0.2511,0.2511,0.2506,0.256,0.2784,0.2926,0.3079,0.3182,0.3289,0.3458,0.3237,0.3097,0.3575,0.3531,0.3422,0.3761,0.3756,0.3754,0.3959,0.4159,0.4287,0.4287,0.466,0.5105,0.5328,0.6064,0.671,0.6977,0.7249,0.7456,0.7387,0.7224,0.7074,0.7036,0.6721,0.6693,0.686,0.6513,0.6762,0.7952,0.7768,0.7958,0.8755,0.9102,0.9095,0.8946,0.9632,0.9981,1.0051,1.0807,1.1335,1.1632,1.2077,1.2305,1.2305,1.2305,1.2305,1.2305,1.2305,1.2305,1.2405,1.3078,1.3474,1.3787,1.4401,1.4639,1.4664,0.2746,0.2414,0.2236,0.2327,0.2662,0.2941,0.3046,0.345,0.3763,0.3763,0.3294,0.2666,0.2116,0.2036,0.2036,0.2036,0.2036,0.2272,0.2823,0.2901,0.3137,0.3763,0.3763,0.3763,0.3763,0.3763,0.3701,0.3428,0.3086,0.2966,0.2975,0.3124,0.3344,0.3583,0.3749,0.3761,0.3765,0.3682,0.3602,0.3524,0.329,0.3212,0.3212,0.3212,0.3212,0.3212,0.3212,0.3212,0.3212,0.3212,0.3212,0.3134,0.2744,0.2981,0.3439,0.3455,0.3873,0.4285,0.4286,0.4113,0.4092,0.4544,0.4469,0.4397,0.4764,0.4749,0.468,0.4827,0.4891,0.5017,0.4951,0.5348,0.5787,0.604,0.6595,0.7078,0.7359,0.7484,0.7464,0.7415,0.7253,0.7114,0.7041,0.6867,0.6708,0.6587,0.6599,0.7018,0.7903,0.7626,0.7668,0.8089,0.8379,0.8534,0.8378,0.8888,0.9221,0.9372,1.0051,1.0582,1.0807,1.1323,1.1626,1.162,1.1848,1.1929,1.2003,1.2224,1.2305,1.2331,1.2708,1.2933,1.3247,1.3534,1.3834,1.4088,0.3524,0.2911,0.2371,0.2488,0.2665,0.2902,0.3062,0.3294,0.3604,0.3763,0.3763,0.3763,0.3763,0.3763,0.3763,0.3763,0.3763,0.3763,0.3763,0.3763,0.3763,0.3763,0.3763,0.3763,0.3763,0.3763,0.3763,0.3761,0.3443,0.3737,0.4493,0.5046,0.5276,0.5369,0.5612,0.5619,0.5559,0.5547,0.5464,0.5229,0.5079,0.5002,0.5002,0.5002,0.5002,0.5002,0.5002,0.5002,0.5002,0.5002,0.5002,0.4693,0.3294,0.337,0.4146,0.453,0.522,0.58,0.6013,0.6047,0.5894,0.5748,0.5714,0.56,0.5173,0.5071,0.5206,0.5547,0.6145,0.6609,0.6416,0.635,0.64,0.6545,0.6809,0.7078,0.721,0.7407,0.7419,0.7248,0.707,0.7025,0.7204,0.7058,0.7019,0.7019,0.7269,0.7618,0.7891,0.7916,0.7877,0.7877,0.8102,0.7807,0.6998,0.8736,0.9296,0.8699,0.9296,0.9744,0.9895,0.9895,0.9895,0.997,1.0807,1.1111,1.1186,1.2003,1.2305,1.2331,1.2708,1.2933,1.3247,1.3534,1.3834,1.4088,0.4647,0.4358,0.4151,0.4213,0.3912,0.368,0.3759,0.3602,0.3526,0.3604,0.3684,0.3763,0.3763,0.3763,0.3763,0.3763,0.3763,0.3763,0.3763,0.3763,0.3763,0.3763,0.4307,0.4616,0.4616,0.5157,0.5467,0.5467,0.513,0.5076,0.5287,0.5507,0.5718,0.5922,0.5695,0.5607,0.5607,0.5309,0.5157,0.5079,0.5002,0.5004,0.5004,0.5004,0.5004,0.5004,0.5004,0.5004,0.5004,0.5004,0.5004,0.4927,0.446,0.4611,0.4919,0.5074,0.5357,0.5711,0.5934,0.5682,0.5622,0.6335,0.6209,0.5938,0.6444,0.6346,0.6152,0.6152,0.635,0.6482,0.642,0.6522,0.6684,0.6844,0.6985,0.722,0.7375,0.7484,0.746,0.7407,0.735,0.7338,0.7395,0.735,0.7212,0.7044,0.7171,0.7167,0.6747,0.7179,0.7289,0.6897,0.7194,0.7243,0.7099,0.7681,0.794,0.7863,0.8623,0.9296,0.9895,0.9895,0.9895,0.9895,1.0196,1.0576,1.1111,1.1409,1.1781,1.2331,1.2708,1.2933,1.3247,1.3534,1.3834,1.4088,0.5544,0.5237,0.5004,0.5004,0.4766,0.4533,0.4533,0.438,0.4302,0.4302,0.4382,0.4538,0.4613,0.4613,0.446,0.4307,0.4229,0.4384,0.4693,0.4693,0.4693,0.4693,0.5157,0.5467,0.5467,0.5931,0.6163,0.6163,0.635,0.6397,0.6401,0.6708,0.6889,0.7015,0.6769,0.6531,0.6377,0.6157,0.6009,0.5931,0.5931,0.5931,0.5931,0.5931,0.5931,0.5931,0.5931,0.5931,0.5931,0.5931,0.5931,0.5931,0.5931,0.6009,0.6079,0.5848,0.6083,0.6475,0.6703,0.6478,0.6432,0.7013,0.6788,0.6571,0.6999,0.6946,0.6753,0.6548,0.6482,0.6502,0.6509,0.6615,0.6773,0.6937,0.7074,0.721,0.7383,0.7484,0.746,0.7395,0.7387,0.7387,0.7387,0.7387,0.7322,0.7163,0.7257,0.7102,0.669,0.7032,0.7092,0.6784,0.6988,0.7173,0.7334,0.7334,0.7407,0.7484,0.8016,0.8542,0.8988,0.8988,0.8988,0.8993,0.9296,0.975,1.0282,1.0881,1.1471,1.2041,1.2722,1.3106,1.3407,1.3701,1.3928,1.4088,0.6318,0.5699,0.5157,0.5157,0.5309,0.5384,0.5384,0.5464,0.5544,0.5544,0.5622,0.5699,0.5848,0.5848,0.5693,0.5157,0.5079,0.5389,0.6163,0.6163,0.6163,0.6163,0.624,0.6318,0.6318,0.6318,0.6395,0.6395,0.7169,0.7561,0.7561,0.8322,0.8542,0.838,0.838,0.8165,0.7804,0.7787,0.771,0.7484,0.7484,0.7484,0.7484,0.7484,0.7484,0.7484,0.7484,0.7484,0.7484,0.7484,0.7484,0.7484,0.7484,0.7484,0.7403,0.6777,0.7169,0.7804,0.8025,0.8102,0.7938,0.7636,0.7526,0.7342,0.6981,0.6889,0.6815,0.6675,0.6688,0.6685,0.6732,0.6717,0.6768,0.6869,0.7084,0.7226,0.7238,0.7407,0.7423,0.7261,0.7244,0.7244,0.7244,0.7244,0.7301,0.7435,0.7456,0.746,0.7447,0.7305,0.7305,0.7476,0.7484,0.7484,0.7484,0.7484,0.7484,0.7484,0.7484,0.7484,0.7484,0.7484,0.7484,0.7561,0.8322,0.8699,0.8927,1.0449,1.128,1.1689,1.2792,1.3407,1.3681,1.3975,1.4088,1.4088,0.7173,0.7015,0.6938,0.6938,0.6395,0.6005,0.6005,0.5619,0.5384,0.5384,0.5541,0.5622,0.5699,0.5699,0.5854,0.6398,0.6086,0.6009,0.6163,0.6173,0.6173,0.6163,0.6861,0.7173,0.7173,0.7783,0.8084,0.8084,0.8169,0.8174,0.8174,0.825,0.8246,0.8156,0.8008,0.7863,0.7804,0.7638,0.7561,0.7484,0.7484,0.7484,0.7484,0.7484,0.7484,0.7484,0.7484,0.7484,0.7484,0.7484,0.7484,0.7484,0.7484,0.7484,0.748,0.7326,0.7403,0.7642,0.7799,0.7799,0.766,0.7725,0.7375,0.7005,0.6784,0.6655,0.6486,0.6482,0.6597,0.6712,0.6688,0.692,0.7127,0.7138,0.7258,0.7435,0.7399,0.7484,0.7468,0.7427,0.7423,0.7423,0.7423,0.7423,0.7326,0.7167,0.7208,0.7224,0.7159,0.7171,0.7305,0.7476,0.7484,0.7484,0.7484,0.7484,0.7484,0.7484,0.7484,0.7484,0.7484,0.7484,0.7484,0.7484,0.771,0.8466,0.9685,1.0242,1.1284,1.2562,1.3253,1.3499,1.3681,1.3975,1.4088,1.4088,0.7484,0.7484,0.7484,0.7484,0.7096,0.6784,0.6784,0.6549,0.6314,0.6314,0.6395,0.6475,0.6633,0.6633,0.6861,0.7395,0.6857,0.6707,0.7015,0.7096,0.7096,0.7092,0.7553,0.7787,0.7791,0.8174,0.8403,0.8403,0.8327,0.8255,0.8255,0.8169,0.8012,0.7931,0.7846,0.7774,0.7642,0.7561,0.7484,0.7484,0.7484,0.7484,0.7484,0.7484,0.7484,0.7484,0.7484,0.7484,0.7484,0.7484,0.7484,0.7484,0.7484,0.7484,0.7484,0.7484,0.7484,0.7561,0.7642,0.7565,0.7516,0.7484,0.7229,0.6945,0.6884,0.6676,0.6546,0.6546,0.6623,0.6712,0.6798,0.7041,0.7327,0.778,0.7877,0.8067,0.8528,0.8458,0.8435,0.8604,0.8613,0.8613,0.8613,0.8613,0.852,0.8373,0.8022,0.804,0.829,0.8026,0.7761,0.748,0.7484,0.7484,0.7484,0.7484,0.7484,0.7484,0.7484,0.7484,0.7484,0.7484,0.771,0.8016,0.8016,0.877,0.9906,1.0416,1.1384,1.2505,1.3154,1.3607,1.3868,1.4028,1.4088,1.4088,0.7859,0.7787,0.771,0.771,0.7561,0.7484,0.7484,0.7484,0.7484,0.7484,0.7484,0.7561,0.7723,0.7723,0.7795,0.8008,0.748,0.7411,0.8025,0.8093,0.8089,0.8102,0.8093,0.8093,0.8102,0.8102,0.8102,0.8102,0.8106,0.803,0.8025,0.8012,0.7931,0.7783,0.7757,0.7685,0.7484,0.7484,0.7484,0.7484,0.7484,0.7484,0.7484,0.7484,0.7484,0.7484,0.7484,0.7484,0.7484,0.7484,0.7484,0.7484,0.7484,0.7557,0.771,0.771,0.7787,0.7863,0.7718,0.7795,0.7757,0.7526,0.7419,0.7418,0.7418,0.7276,0.7074,0.7074,0.7155,0.722,0.7388,0.75,0.7895,0.8703,0.8683,0.8857,0.9745,0.9701,0.9669,0.9868,0.9895,0.9895,0.9895,0.9895,0.9895,0.9895,0.9296,0.915,0.9895,0.9226,0.8546,0.771,0.7787,0.7859,0.7859,0.7859,0.7859,0.7859,0.7859,0.7859,0.7859,0.7859,0.8241,0.8851,0.8851,0.9372,1.0126,1.0889,1.1575,1.2234,1.3061,1.3647,1.4088,1.4088,1.4088,1.4088,0.9518,0.8998,0.8551,0.8551,0.794,0.7484,0.7484,0.7484,0.7484,0.7484,0.7484,0.7484,0.7561,0.7561,0.7561,0.7557,0.8124,0.8363,0.8106,0.8102,0.8102,0.8102,0.8111,0.8115,0.8102,0.8102,0.8102,0.8102,0.7953,0.7876,0.7876,0.7638,0.7557,0.7557,0.7553,0.7557,0.7484,0.7484,0.7484,0.7484,0.7484,0.7484,0.7484,0.7484,0.7484,0.7484,0.7484,0.7484,0.7484,0.7484,0.7484,0.7484,0.7484,0.7931,0.8528,0.8528,0.8983,0.9377,0.8669,0.898,0.9342,0.867,0.8867,0.9207,0.9207,0.9101,0.9002,0.9002,0.909,0.9165,0.9202,0.9316,0.9489,0.9406,0.9511,0.9638,0.9547,0.9739,0.9852,0.989,0.9895,0.9895,0.9895,0.9895,0.9895,0.9895,0.982,0.9744,0.9895,0.982,0.9372,0.8551,0.9145,0.9518,0.9518,0.9518,0.9518,0.9518,0.9518,0.9518,0.9518,0.9518,0.9593,0.9744,0.9744,1.0201,1.0992,1.1594,1.2311,1.3094,1.3672,1.4008,1.4088,1.4088,1.4088,1.4088,0.9868,0.9583,0.9372,0.9372,0.9069,0.8765,0.8765,0.8765,0.8765,0.8765,0.8765,0.8765,0.8765,0.8765,0.8775,0.8803,0.9108,0.9241,0.9049,0.8641,0.8196,0.7791,0.7799,0.7799,0.7791,0.7791,0.7791,0.7791,0.7718,0.7642,0.7642,0.7561,0.7484,0.7484,0.7484,0.7484,0.7484,0.7484,0.7484,0.7484,0.7642,0.7642,0.7642,0.7642,0.7642,0.7642,0.7561,0.7484,0.7573,0.8134,0.8249,0.8268,0.9027,0.9319,0.9412,0.9497,0.9734,0.9825,0.9473,0.963,0.9776,0.9453,0.9595,0.9739,0.9739,0.9628,0.9532,0.9532,0.9547,0.9623,0.9623,0.9739,1.0007,1.0273,1.0313,1.0454,1.0912,1.0973,1.1016,1.1156,1.1168,1.1168,1.1168,1.1168,1.1168,1.1168,1.0801,1.0726,1.1174,1.0801,1.0357,0.9981,0.9528,0.9448,0.9895,0.9895,0.9895,0.9895,0.9895,0.9895,0.9895,0.9895,1.0121,1.0576,1.0576,1.1025,1.1813,1.2229,1.2733,1.3253,1.3681,1.3948,1.4088,1.4088,1.4088,1.4088,1.0387,1.0254,1.0196,1.0196,1.0045,0.9895,0.9895,0.9895,0.9895,0.9895,0.9895,0.9895,0.9895,0.9895,0.9916,0.9889,1.0084,1.011,0.9921,0.9528,0.8875,0.8102,0.7876,0.7799,0.7787,0.7787,0.7787,0.7787,0.7944,0.7944,0.7783,0.7795,0.7646,0.7484,0.7484,0.7484,0.7484,0.7561,0.7561,0.7565,0.7804,0.7827,0.7819,0.7819,0.7994,0.8138,0.7991,0.8069,0.8398,0.9257,0.937,0.9364,1.0444,1.0628,1.0422,1.0511,1.0536,1.0415,1.0034,1.019,1.0421,1.0196,1.0346,1.0496,1.0496,1.0353,1.0216,1.0216,1.0216,1.0216,1.0216,1.037,1.0628,1.1175,1.1199,1.1367,1.2105,1.2064,1.2051,1.2278,1.2305,1.2305,1.2305,1.2305,1.2305,1.2305,1.1706,1.1632,1.2305,1.1706,1.1409,1.1409,0.9981,0.9679,1.0421,1.0496,1.0496,1.0496,1.0496,1.0496,1.0496,1.0496,1.0801,1.1409,1.1409,1.1745,1.2425,1.2726,1.3033,1.334,1.3634,1.3888,1.4088,1.4088,1.4088,1.4088,1.1848,1.1403,1.1037,1.1037,1.0426,0.9895,0.9895,0.9895,0.9895,0.9895,0.9895,0.9895,0.9895,0.9895,0.9916,0.9889,1.0553,1.0732,0.9921,1.057,1.0536,0.9732,0.899,0.8593,0.8627,0.8623,0.8623,0.8623,0.9342,0.9332,0.8604,0.8584,0.8209,0.7484,0.7484,0.7484,0.7484,0.7723,0.7804,0.7804,0.7961,0.7971,0.7941,0.7941,0.8556,0.9266,0.9242,0.9822,1.0546,1.0648,1.0627,1.0654,1.0739,1.13,1.1754,1.151,1.1765,1.1768,1.0301,1.0995,1.1929,1.1186,1.1558,1.215,1.215,1.2137,1.2117,1.2117,1.2117,1.2117,1.2117,1.2137,1.2065,1.1872,1.2032,1.2111,1.1937,1.2118,1.2278,1.2298,1.2305,1.2305,1.2305,1.2305,1.2305,1.2305,1.2231,1.2224,1.2305,1.2224,1.2224,1.2224,1.1403,1.1329,1.215,1.215,1.215,1.215,1.215,1.215,1.215,1.215,1.215,1.2224,1.2224,1.2384,1.2815,1.3053,1.3347,1.3641,1.3941,1.4068,1.4088,1.4088,1.4088,1.4088,1.1781,1.1632,1.149,1.1651,1.1409,1.1248,1.1397,1.1397,1.1397,1.1397,1.1397,1.1397,1.1397,1.1397,1.1409,1.1353,1.1645,1.1706,1.1378,1.1662,1.1292,0.9965,0.9593,0.9448,0.9448,0.9448,0.9448,0.9448,0.9721,0.9781,0.9482,0.9453,0.9301,0.8969,0.914,0.9243,0.9291,0.9546,0.9792,0.9917,0.9834,0.9942,1.0133,0.9956,1.0066,1.0376,1.0284,1.0519,1.0864,1.1589,1.1653,1.1676,1.255,1.2794,1.2718,1.2389,1.2437,1.2457,1.1577,1.1835,1.2224,1.1929,1.2077,1.2305,1.2305,1.2305,1.2305,1.2305,1.2305,1.2305,1.2305,1.2305,1.2265,1.2151,1.2231,1.2265,1.2151,1.2231,1.2305,1.2305,1.2305,1.2304,1.2346,1.2337,1.2304,1.2346,1.2337,1.2305,1.2305,1.2305,1.2305,1.2305,1.2003,1.2003,1.2305,1.2305,1.2305,1.2305,1.2305,1.2305,1.2305,1.2305,1.2305,1.2305,1.2305,1.2472,1.2849,1.308,1.338,1.3592,1.3975,1.4088,1.4088,1.4088,1.3997,1.3828,1.1632,1.1632,1.1713,1.1874,1.1942,1.1929,1.2077,1.215,1.2224,1.2224,1.2224,1.2305,1.2305,1.2305,1.2305,1.2305,1.2305,1.2305,1.2305,1.2305,1.1835,1.0679,1.0387,1.0254,1.0271,1.0276,1.0276,1.0276,1.0536,1.0507,1.0278,1.0301,1.0207,1.0073,1.0304,1.0498,1.0606,1.1011,1.1249,1.1369,1.1294,1.1356,1.1592,1.1235,1.1278,1.1492,1.1432,1.1571,1.1928,1.2692,1.2807,1.2801,1.3787,1.3748,1.3287,1.2979,1.2896,1.2755,1.2385,1.2305,1.2305,1.2305,1.2305,1.2305,1.2305,1.2305,1.2305,1.2305,1.2305,1.2305,1.2305,1.2305,1.2305,1.2305,1.2305,1.2305,1.2305,1.2305,1.2305,1.2305,1.2305,1.2311,1.2372,1.235,1.2317,1.2378,1.2344,1.2305,1.2305,1.2305,1.2305,1.2305,1.2305,1.2305,1.2305,1.2305,1.2305,1.2305,1.2305,1.2305,1.2305,1.2305,1.2305,1.2305,1.2405,1.2612,1.2913,1.322,1.3433,1.3629,1.3917,1.3913,1.3913,1.3913,1.3737,1.3652,1.1409,1.1558,1.1706,1.1706,1.1706,1.1706,1.1706,1.1855,1.2003,1.2003,1.215,1.2305,1.2305,1.2305,1.2305,1.2305,1.2305,1.2305,1.2305,1.2305,1.2305,1.2305,1.1502,1.1129,1.1111,1.1111,1.1111,1.1111,1.1929,1.189,1.1144,1.1144,1.0813,1.0309,1.0702,1.1002,1.1238,1.1697,1.1958,1.1906,1.1822,1.1794,1.1753,1.1481,1.1918,1.2687,1.2674,1.3307,1.4088,1.4088,1.4088,1.4088,1.4088,1.3881,1.3587,1.33,1.2993,1.2761,1.2385,1.2305,1.2305,1.2305,1.2305,1.2305,1.2305,1.2305,1.2305,1.2305,1.2305,1.2305,1.2305,1.2305,1.2305,1.2305,1.2305,1.2305,1.2305,1.2305,1.2305,1.2305,1.2305,1.2305,1.2305,1.2305,1.2305,1.2305,1.2305,1.2305,1.2305,1.2305,1.2305,1.2305,1.2305,1.2305,1.2305,1.2305,1.2305,1.2305,1.2305,1.2305,1.2305,1.2305,1.2305,1.2318,1.2694,1.2926,1.3233,1.3527,1.3649,1.3737,1.3737,1.3568,1.3398,1.3398,1.3398,1.3398,1.2872,1.2439,1.2177,1.233,1.1832,1.1564,1.1651,1.1713,1.1781,1.1781,1.1929,1.207,1.2057,1.2218,1.2305,1.2305,1.2305,1.2305,1.2305,1.2305,1.2305,1.2305,1.2083,1.1935,1.1929,1.1929,1.1929,1.1929,1.215,1.2211,1.1964,1.1964,1.199,1.2081,1.2586,1.2953,1.3302,1.3854,1.4218,1.4327,1.3907,1.3722,1.375,1.3379,1.336,1.3444,1.3646,1.3828,1.4088,1.4088,1.4088,1.4088,1.4088,1.4028,1.3854,1.3353,1.3146,1.2959,1.2438,1.2305,1.2305,1.2305,1.2305,1.2305,1.2305,1.2305,1.2305,1.2305,1.2305,1.2305,1.2305,1.2305,1.2305,1.2305,1.2305,1.2305,1.2305,1.2305,1.2305,1.2305,1.2305,1.2311,1.2378,1.2357,1.2317,1.2385,1.235,1.2305,1.2305,1.2305,1.2224,1.2077,1.2224,1.2157,1.1855,1.2157,1.2305,1.2305,1.2305,1.2305,1.2305,1.2305,1.2418,1.2694,1.2788,1.2961,1.3277,1.3362,1.3393,1.3483,1.3483,1.3476,1.3392,1.3568,1.3483,1.3483,1.3535,1.3098,1.2826,1.2903,1.2553,1.2291,1.2378,1.2445,1.2512,1.2512,1.2739,1.2806,1.2865,1.2952,1.2886,1.2599,1.2298,1.215,1.215,1.2224,1.2305,1.2305,1.2305,1.2305,1.2305,1.2305,1.2305,1.2305,1.2305,1.2305,1.2305,1.2425,1.2639,1.2959,1.3674,1.4155,1.4469,1.5057,1.5311,1.5376,1.4923,1.4596,1.4401,1.4057,1.3822,1.3737,1.3906,1.3997,1.4088,1.4088,1.4088,1.4088,1.4088,1.4088,1.3968,1.338,1.3213,1.308,1.2472,1.2224,1.215,1.215,1.2224,1.2305,1.2305,1.2305,1.2305,1.2305,1.2305,1.2305,1.2305,1.2305,1.2305,1.2305,1.2305,1.2305,1.2305,1.2224,1.215,1.215,1.2077,1.2074,1.2257,1.2114,1.2081,1.2112,1.2107,1.2077,1.2077,1.2077,1.2003,1.1855,1.2003,1.1929,1.1706,1.1929,1.2077,1.2077,1.2077,1.2077,1.215,1.215,1.2315,1.2682,1.2802,1.2962,1.3155,1.3265,1.3329,1.3313,1.3398,1.3313,1.3313,1.3815,1.3899,1.3899,1.3753,1.368,1.3608,1.3608,1.3535,1.3535,1.3535,1.368,1.376,1.3768,1.3985,1.4049,1.4049,1.4057,1.384,1.3046,1.2452,1.2077,1.2003,1.215,1.2305,1.2305,1.2305,1.2305,1.2305,1.2305,1.2305,1.2305,1.2305,1.2318,1.2345,1.2694,1.2926,1.3287,1.4142,1.4689,1.5003,1.5585,1.5665,1.5371,1.5077,1.4694,1.4135,1.3848,1.3737,1.3737,1.3737,1.3913,1.4088,1.4088,1.4088,1.4088,1.4088,1.4088,1.3975,1.346,1.3286,1.3151,1.2614,1.2372,1.2224,1.2224,1.2298,1.2445,1.2305,1.2224,1.2305,1.2231,1.2231,1.2231,1.2231,1.2305,1.2378,1.2378,1.2378,1.2452,1.2378,1.2224,1.2077,1.2003,1.1855,1.1855,1.1929,1.1781,1.1706,1.1706,1.1706,1.1706,1.1706,1.1706,1.1706,1.1706,1.1706,1.1706,1.1632,1.1706,1.1781,1.1706,1.1706,1.1793,1.2048,1.2048,1.2224,1.2628,1.289,1.3085,1.3283,1.3536,1.3476,1.3307,1.3476,1.3476,1.3392,1.4223,1.4559,1.4636,1.5355,1.476,1.4386,1.4386,1.389,1.3535,1.3535,1.3535,1.3557,1.3536,1.3717,1.389,1.3852,1.4034,1.4057,1.384,1.3112,1.2526,1.2003,1.2003,1.215,1.2298,1.2305,1.2305,1.2305,1.2305,1.2305,1.2305,1.2305,1.2418,1.2728,1.2795,1.3033,1.3581,1.4229,1.4689,1.5003,1.5585,1.5665,1.5371,1.5077,1.4694,1.4228,1.4025,1.3906,1.3737,1.3913,1.4082,1.4088,1.4088,1.4088,1.4088,1.4088,1.4088,1.4129,1.4064,1.3967,1.3924,1.3866,1.376,1.3615,1.3615,1.3688,1.3397,1.215,1.1929,1.2003,1.1855,1.1855,1.1855,1.1855,1.2378,1.2746,1.2746,1.3331,1.347,1.2893,1.2753,1.2452,1.1855,1.2305,1.2378,1.1855,1.1706,1.1706,1.1706,1.1706,1.1706,1.1706,1.1706,1.1632,1.1484,1.1632,1.1558,1.126,1.2003,1.215,1.1706,1.1706,1.1827,1.2056,1.2056,1.2713,1.3929,1.3992,1.4423,1.5112,1.5177,1.5047,1.4894,1.4977,1.4977,1.497,1.5296,1.5455,1.5455,1.607,1.5709,1.5417,1.5417,1.5078,1.4808,1.4856,1.4784,1.4729,1.4745,1.4729,1.4768,1.4744,1.484,1.4776,1.4402,1.3688,1.3178,1.2879,1.2592,1.2526,1.2746,1.2378,1.2224,1.2305,1.2305,1.2305,1.2305,1.2445,1.2672,1.2973,1.3253,1.3627,1.4088,1.4676,1.5023,1.519,1.5491,1.5451,1.5164,1.487,1.4401,1.3946,1.3881,1.3822,1.3737,1.3841,1.4004,1.4088,1.4088,1.4088,1.4173,1.4503,1.4587,1.4657,1.4874,1.4788,1.4572,1.4439,1.4179,1.3985,1.3985,1.3985,1.376,1.3025,1.2952,1.2959,1.2879,1.2806,1.2806,1.2806,1.3178,1.3477,1.3477,1.384,1.3985,1.355,1.3404,1.3178,1.2732,1.2959,1.3032,1.2586,1.2659,1.2512,1.2003,1.2365,1.2365,1.2003,1.2365,1.2512,1.2439,1.2505,1.2439,1.2285,1.2806,1.2952,1.2652,1.2586,1.275,1.3127,1.3127,1.3769,1.475,1.475,1.5087,1.5545,1.5545,1.547,1.5394,1.547,1.5545,1.5628,1.6124,1.6535,1.6788,1.6342,1.6289,1.6307,1.6307,1.6272,1.629,1.6307,1.6184,1.6114,1.6079,1.5938,1.5867,1.5805,1.5805,1.5505,1.4681,1.4178,1.3897,1.3833,1.3331,1.3119,1.32,1.2526,1.2224,1.2305,1.2305,1.2305,1.2305,1.2681,1.2933,1.33,1.3834,1.4269,1.4623,1.5157,1.5398,1.5398,1.5451,1.5277,1.4943,1.4696,1.4303,1.3737,1.3737,1.3737,1.3737,1.3756,1.401,1.425,1.425,1.4334,1.4503,1.5082,1.5249,1.535,1.5733,1.5599,1.5304,1.4976,1.4576,1.4263,1.4137,1.4122,1.4201,1.4346,1.4201,1.4057,1.3977,1.3977,1.3977,1.3977,1.4129,1.4201,1.4201,1.4274,1.4346,1.4194,1.4049,1.3897,1.376,1.3608,1.3535,1.3673,1.3753,1.3397,1.2592,1.3098,1.3244,1.2519,1.3171,1.3535,1.3535,1.3535,1.3528,1.3528,1.3818,1.3962,1.3962,1.4023,1.4154,1.4336,1.4388,1.4817,1.5541,1.5541,1.5627,1.5809,1.5809,1.5809,1.5891,1.6041,1.6116,1.6198,1.687,1.7538,1.804,1.6281,1.6281,1.6281,1.6281,1.6289,1.6281,1.6324,1.6245,1.6202,1.6122,1.6096,1.6,1.5805,1.5805,1.5505,1.4681,1.453,1.4322,1.3825,1.3688,1.355,1.3193,1.3119,1.2826,1.2305,1.2305,1.2305,1.2305,1.2681,1.3033,1.3512,1.3928,1.4382,1.4917,1.5251,1.5398,1.5418,1.5665,1.5458,1.4963,1.4917,1.4576,1.4082,1.4082,1.4082,1.4082,1.4088,1.4426,1.4922,1.4922,1.5325,1.5809,1.5974,1.5974,1.607,1.6532,1.649,1.6312,1.6319,1.6164,1.5973,1.5589,1.5513,1.5513,1.5584,1.4705,1.376,1.3608,1.3608,1.3608,1.3608,1.4106,1.4537,1.4537,1.5133,1.5363,1.4609,1.4537,1.425,1.3608,1.3535,1.3745,1.4394,1.389,1.3462,1.3317,1.3462,1.3462,1.3317,1.3462,1.3535,1.3535,1.36,1.3673,1.3673,1.4545,1.4982,1.4991,1.6024,1.584,1.4657,1.487,1.5526,1.6545,1.6545,1.6903,1.7627,1.7627,1.7627,1.7627,1.7708,1.77,1.7708,1.7789,1.7951,1.804,1.663,1.6621,1.6621,1.6621,1.6621,1.6621,1.6612,1.6464,1.6272,1.6237,1.6017,1.5938,1.5797,1.5805,1.5655,1.5275,1.5275,1.5133,1.4927,1.4474,1.4186,1.4122,1.376,1.3477,1.3397,1.3039,1.2893,1.2952,1.2925,1.3061,1.3402,1.377,1.4373,1.5028,1.5153,1.5392,1.5631,1.5605,1.5438,1.5177,1.4754,1.473,1.4815,1.4517,1.4796,1.5235,1.5235,1.5401,1.565,1.565,1.5891,1.6139,1.655,1.664,1.6772,1.7346,1.7242,1.7044,1.6816,1.659,1.6332,1.5891,1.5805,1.5805,1.5805,1.5363,1.4919,1.4776,1.4776,1.4776,1.4776,1.5062,1.5275,1.5275,1.5576,1.5655,1.5346,1.5275,1.5133,1.4848,1.4776,1.4919,1.5204,1.4991,1.4625,1.4178,1.4553,1.4625,1.4178,1.4553,1.484,1.4974,1.4974,1.5046,1.5117,1.5692,1.6086,1.6312,1.706,1.7029,1.6277,1.6563,1.7092,1.761,1.761,1.7781,1.804,1.804,1.804,1.804,1.804,1.804,1.804,1.804,1.804,1.7959]},{"header":{"parameterUnit":"m.s-1","parameterCategory":1,"la1":30.6,"la2":28.766,"lo1":-90.7593,"lo2":-88.6598,"dy":0.0162,"dx":0.0183,"nx":116,"ny":114,"refTime":"2024-06-04T18:00:00:Z","depth":0,"parameterNumber":3,"parameterNumberName":"V-component_of_WINDS"},"data":[0.0,0.0,0.0,0.0,0.0,0.0,0.0,0.0,0.0,0.0,0.0,0.0,0.0,0.0,0.0,0.0,0.0,0.0,0.0,0.0,0.0,0.0,0.0,0.0,0.0,0.0,0.0,0.0,0.0,0.0,0.0,0.0,0.0,0.0,0.0,0.0,0.0,0.0,0.0,0.0,0.0,0.0,0.0,0.0,0.0,0.0,0.0,0.0,0.0,0.0,0.0,0.0,0.0,0.0,0.0,0.0,0.0,0.0,0.0,0.0,0.0,0.0,0.0,0.0,0.0,0.0,0.0,0.0,0.0,0.0,0.0,0.0,0.0,0.0,0.0,0.0,0.0,0.0,0.0,0.0,0.0,0.0,0.0,0.0,0.0,0.0,0.0,0.0,0.0,0.0,0.0,0.0,0.0,0.0,0.0,0.0,0.0,0.0,0.0,0.0,0.0,0.0,0.0,0.0,0.0,0.0,0.0,0.0,0.0,0.0,0.0,0.0,0.0,0.0,0.0,0.0,0.0,0.0,0.0,0.0,0.0,0.0,0.0,0.0,0.0,0.0,0.0,0.0,0.0,0.0,0.0,0.0,0.0,0.0,0.0,0.0,0.0,0.0,0.0,0.0,0.0,0.0,0.0,0.0,0.0,0.0,0.0,0.0,0.0,0.0,0.0,0.0,0.0,0.0,0.0,0.0,0.0,0.0,0.0,0.0,0.0,0.0,0.0,0.0,0.0,0.0,0.0,0.0,0.0,0.0,0.0,0.0,0.0,0.0,0.0,0.0,0.0,0.0,0.0,0.0,0.0,0.0,0.0,0.0,0.0,0.0,0.0,0.0,0.0,0.0,0.0,0.0,0.0,0.0,0.0,0.0,0.0,0.0,0.0,0.0,0.0,0.0,0.0,0.0,0.0,0.0,0.0,0.0,0.0,0.0,0.0,0.0,0.0,0.0,0.0,0.0,0.0,0.0,0.0,0.0,0.0,0.0,0.0,0.0,0.0,0.0,0.0,0.0,0.0,0.0,0.0,0.0,0.0,0.0,0.0,0.0,0.0,0.0,0.0,0.0,0.0,0.0,0.0,0.0,0.0,0.0,0.0,0.0,0.0,0.0,0.0,0.0,0.0,0.0,0.0,0.0,0.0,0.0,0.0,0.0,0.0,0.0,0.0,0.0,0.0,0.0,0.0,0.0,0.0,0.0,0.0,0.0,0.0,0.0,0.0,0.0,0.0,0.0,0.0,0.0,0.0,0.0,0.0,0.0,0.0,0.0,0.0,0.0,0.0,0.0,0.0,0.0,0.0,0.0,0.0,0.0,0.0,0.0,0.0,0.0,0.0,0.0,0.0,0.0,0.0,0.0,0.0,0.0,0.0,0.0,0.0,0.0,0.0,0.0,0.0,0.0,0.0,0.0,0.0,0.0,0.0,0.0,0.0,0.0,0.0,0.0,0.0,0.0,0.0,0.0,0.0,0.0,0.0,0.0,0.0,0.0,0.0,0.0,0.0,0.0,0.0,0.0,0.0,0.0,0.0,0.0,0.0,0.0,0.0,0.0,0.0,0.0,0.0,0.0,0.0,0.0,0.0,0.0,0.0,0.0,0.0,0.0,0.0,0.0,0.0,0.0,0.0,0.0,0.0,0.0,0.0,0.0,0.0,0.0,0.0,0.0,0.0,0.0,0.0,0.0,0.0,0.0,0.0,0.0,0.0,0.0,0.0,0.0,0.0,0.0,0.0,0.0,0.0,0.0,0.0,0.0,0.0,0.0,0.0,0.0,0.0,0.0,0.0,0.0,0.0,0.0,0.0,0.0,0.0,0.0,0.0,0.0,0.0,0.0,0.0,0.0,0.0,0.0,0.0,0.0,0.0,0.0,0.0,0.0,0.0,0.0,0.0,0.0,0.0,0.0,0.0,0.0,0.0,0.0,0.0,0.0,0.0,0.0,0.0,0.0,0.0,0.0,0.0,0.0,0.0,0.0,0.0,0.0,0.0,0.0,0.0,0.0,0.0,0.0,0.0,0.0,0.0,0.0,0.0,0.0,0.0,0.0,0.0,0.0,0.0,0.0,0.0,0.0,0.0,0.0,0.0,0.0,0.0,0.0,0.0,0.0,0.0,0.0,0.0,0.0,0.0,0.0,0.0,0.0,0.0,0.0,0.0,0.0,0.0,0.0,0.0,0.0,0.0,0.0,0.0,0.0,0.0,0.0,0.0,0.0,0.0,0.0,0.0,0.0,0.0,0.0,0.0,0.0,0.0,0.0,0.0,0.0,0.0,0.0,0.0,0.0,0.0,0.0,0.0,0.0,0.0,0.0,0.0,0.0,0.0,0.0,0.0,0.0,0.0,0.0,0.0,0.0,0.0,0.0,0.0,0.0,0.0,0.0,0.0,0.0,0.0,0.0,0.0,0.0,0.0,0.0,0.0,0.0,0.0,0.0,0.0,0.0,0.0,0.0,0.0,0.0,0.0,0.0,0.0,0.0,0.0,0.0,0.0,0.0,0.0,0.0,0.0,0.0,0.0,0.0,0.0,0.0,0.0,0.0,0.0,0.0,0.0,0.0,0.0,0.0,0.0,0.0,0.0,0.0,0.0,0.0,0.0,0.0,0.0,0.0,0.0,0.0,0.0,0.0,0.0,0.0,0.0,0.0,0.0,0.0,0.0,0.0,0.0,0.0,0.0,0.0,0.0,0.0,0.0,0.0,0.0,0.0,0.0,0.0,0.0,0.0,0.0,0.0,0.0,0.0,0.0,0.0,0.0,0.0,0.0,0.0,0.0,0.0,0.0,0.0,0.0,0.0,0.0,0.0,0.0,0.0,0.0,0.0,0.0,0.0,0.0,0.0,0.0,0.0,0.0,0.0,0.0,0.0,0.0,0.0,0.0,0.0,0.0,0.0,0.0,0.0,0.0,0.0,0.0,0.0,0.0,0.0,0.0,0.0,0.0,0.0,0.0,0.0,0.0,0.0,0.0,0.0,0.0,0.0,0.0,0.0,0.0,0.0,0.0,0.0,0.0,0.0,0.0,0.0,0.0,0.0,0.0,0.0,0.0,0.0,0.0,0.0,0.0,0.0,0.0,0.0,0.0,0.0,0.0,0.0,0.0,0.0,0.0,0.0,0.0,0.0,0.0,0.0,0.0,0.0,0.0,0.0,0.0,0.0,0.0,0.0,0.0,0.0,0.0,0.0,0.0,0.0,0.0,0.0,0.0,0.0,0.0,0.0,0.0,0.0,0.0,0.0,0.0,0.0,0.0,0.0,0.0,0.0,0.0,0.0,0.0,0.0,0.0,0.0,0.0,0.0,0.0,0.0,0.0,0.0,0.0,0.0,0.0,0.0,0.0,0.0,0.0,0.0,0.0,0.0,0.0,0.0,0.0,0.0,0.0,0.0,0.0,0.0,0.0,0.0,0.0,0.0,0.0,0.0,0.0,0.0,0.0,0.0,0.0,0.0,0.0,0.0,0.0,0.0,0.0,0.0,0.0,0.0,0.0,0.0,0.0,0.0,0.0,0.0,0.0,0.0,0.0,0.0,0.0,0.0,0.0,0.0,0.0,0.0,0.0,0.0,0.0,0.0,0.0,0.0,0.0,0.0,0.0,0.0,0.0,0.0,0.0,0.0,0.0,0.0,0.0,0.0,0.0,0.0,0.0,0.0,0.0,0.0,0.0,0.0,0.0,0.0,0.0,0.0,0.0,0.0,0.0,0.0,0.0,0.0,0.0,0.0,0.0,0.0,0.0,0.0,0.0,0.0,0.0,0.0,0.0,0.0,0.0,0.0,0.0,0.0,0.0,0.0,0.0,0.0,0.0,0.0,0.0,0.0,0.0,0.0,0.0,0.0,0.0,0.0,0.0,0.0,0.0,0.0,0.0,0.0,0.0,0.0,0.0,0.0,0.0,0.0,0.0,0.0,0.0,0.0,0.0,0.0,0.0,0.0,0.0,0.0,0.0,0.0,0.0,0.0,0.0,0.0,0.0,0.0,0.0,0.0,0.0,0.0,0.0,0.0,0.0,0.0,0.0,0.0,0.0,0.0,0.0,0.0,0.0,0.0,0.0,0.0,0.0,0.0,0.0,0.0,0.0,0.0,0.0,0.0,0.0,0.0,0.0,0.0,0.0,0.0,0.0,0.0,0.0,0.0,0.0,0.0,0.0,0.0,0.0,0.0,0.0,0.0,0.0,0.0,0.0,0.0,0.0,0.0,0.0,0.0,0.0,0.0,0.0,0.0,0.0,0.0,0.0,0.0,0.0,0.0,0.0,0.0,0.0,0.0,0.0,0.0,0.0,0.0,0.0,0.0,0.0,0.0,0.0,0.0,0.0,0.0,0.0,0.0,0.0,0.0,0.0,0.0,0.0,0.0,0.0,0.0,0.0,0.0,0.0,0.0,0.0,0.0,0.0,0.0,0.0,0.0,0.0,0.0,0.0,0.0,0.0,0.0,0.0,0.0,0.0,0.0,0.0,0.0,0.0,0.0,0.0,0.0,0.0,0.0,0.0,0.0,0.0,0.0,0.0,0.0,0.0,0.0,0.0,0.0,0.0,0.0,0.0,0.0,0.0,0.0,0.0,0.0,0.0,0.0,0.0,0.0,0.0,0.0,0.0,0.0,0.0,0.0,0.0,0.0,0.0,0.0,0.0,0.0,0.0,0.0,0.0,0.0,0.0,0.0,0.0,0.0,0.0,0.0,0.0,0.0,0.0,0.0,0.0,0.0,0.0,0.0,0.0,0.0,0.0,0.0,0.0,0.0,0.0,0.0,0.0,0.0,0.0,0.0,0.0,0.0,0.0,0.0,0.0,0.0,0.0,0.0,0.0,0.0,0.0,0.0,0.0,0.0,0.0,0.0,0.0,0.0,0.0,0.0,0.0,0.0,0.0,0.0,0.0,0.0,0.0,0.0,0.0,0.0,0.0,0.0,0.0,0.0,0.0,0.0,0.0,0.0,0.0,0.0,0.0,0.0,0.0,0.0,0.0,0.0,0.0,0.0,0.0,0.0,0.0,0.0,0.0,0.0,0.0,0.0,0.0,0.0,0.0,0.0,0.0,0.0,0.0,0.0,0.0,0.0,0.0,0.0,0.0,0.0,0.0,0.0,0.0,0.0,0.0,0.0,0.0,0.0,0.0,0.0,0.0,0.0,0.0,0.0,0.0,0.0,0.0,0.0,0.0,0.0,0.0,0.0,0.0,0.0,0.0,0.0,0.0,0.0,0.0,0.0,0.0,0.0,0.0,0.0,0.0,0.0,0.0,0.0,0.0,0.0,0.0,0.0,0.0,0.0,0.0,0.0,0.0,0.0,0.0,0.0,0.0,0.0,0.0,0.0,0.0,0.0,0.0,0.0,0.0,0.0,0.0,0.0,0.0,0.0,0.0,0.0,0.0,0.0,0.0,0.0,0.0,0.0,0.0,0.0,0.0,0.0,0.0,0.0,0.0,0.0,0.0,0.0,0.0,0.0,0.0,0.0,0.0,0.0,0.0,0.0,0.0,0.0,0.0,0.0,0.0,0.0,0.0,0.0,0.0,0.0,0.0,0.0,0.0,0.0,0.0,0.0,0.0,0.0,0.0,0.0,0.0,0.0,0.0,0.0,0.0,0.0,0.0,0.0,0.0,0.0,0.0,0.0,0.0,0.0,0.0,0.0,0.0,0.0,0.0,0.0,0.0,0.0,0.0,0.0,0.0,0.0,0.0,0.0,0.0,0.0,0.0,0.0,0.0,0.0,0.0,0.0,0.0,0.0,0.0,0.0,0.0,0.0,0.0,0.0,0.0,0.0,0.0,0.0,0.0,0.0,0.0,0.0,0.0,0.0,0.0,0.0,0.0,0.0,0.0,0.0,0.0,0.0,0.0,0.0,0.0,0.0,0.0,0.0,0.0,0.0,0.0,0.0,0.0,0.0,0.0,0.0,0.0,0.0,0.0,0.0,0.0,0.0,0.0,0.0,0.0,0.0,0.0,0.0,0.0,0.0,0.0,0.0,0.0,0.0,0.0,0.0,0.0,0.0,0.0,0.0,0.0,0.0,0.0,0.0,0.0,0.0,0.0,0.0,0.0,0.0,0.0,0.0,0.0,0.0,0.0,0.0,0.0,0.0,0.0,0.0,-2.7834,-2.6816,0.0,0.0,0.0,0.0,0.0,0.0,0.0,0.0,0.0,0.0,0.0,0.0,0.0,0.0,0.0,0.0,0.0,0.0,0.0,0.0,0.0,0.0,0.0,-1.265,-1.3174,-1.4571,-1.4624,-1.4592,-1.4592,0.0,0.0,0.0,0.0,0.0,-1.424,-1.447,-1.477,-1.5122,-1.5285,-1.5806,-1.6683,-1.6515,-1.6325,-1.6083,0.0,0.0,0.0,0.0,0.0,0.0,0.0,0.0,0.0,0.0,0.0,0.0,0.0,0.0,0.0,0.0,0.0,0.0,0.0,0.0,0.0,0.0,0.0,0.0,0.0,0.0,0.0,0.0,0.0,0.0,0.0,0.0,0.0,0.0,0.0,0.0,0.0,0.0,0.0,0.0,0.0,0.0,0.0,0.0,0.0,0.0,0.0,0.0,0.0,0.0,0.0,0.0,0.0,0.0,0.0,0.0,0.0,0.0,0.0,0.0,0.0,0.0,0.0,0.0,0.0,0.0,0.0,0.0,0.0,0.0,-2.9374,-2.8479,0.0,0.0,0.0,0.0,0.0,0.0,0.0,0.0,0.0,0.0,0.0,0.0,0.0,0.0,0.0,0.0,0.0,0.0,0.0,0.0,0.0,-1.1515,-1.2733,-1.2816,-1.3313,-1.4571,-1.4714,-1.4613,-1.4426,-1.4693,0.0,0.0,0.0,-1.5037,-1.4998,-1.5079,-1.5365,-1.5918,-1.6302,-1.6848,-1.7556,-1.7633,-1.7385,-1.6903,-1.6141,0.0,0.0,0.0,0.0,0.0,0.0,0.0,0.0,0.0,0.0,0.0,0.0,0.0,0.0,0.0,0.0,0.0,0.0,0.0,0.0,0.0,0.0,0.0,0.0,0.0,0.0,0.0,0.0,0.0,0.0,0.0,0.0,0.0,0.0,0.0,0.0,0.0,0.0,0.0,0.0,0.0,0.0,0.0,0.0,0.0,0.0,0.0,0.0,0.0,0.0,0.0,0.0,0.0,0.0,0.0,0.0,0.0,0.0,0.0,0.0,0.0,0.0,0.0,-2.9641,-2.9883,-3.0781,-3.0063,-3.0487,-3.1771,-3.1188,-3.0595,-2.9964,-2.9034,0.0,0.0,0.0,0.0,0.0,0.0,0.0,0.0,0.0,0.0,0.0,0.0,0.0,0.0,0.0,0.0,0.0,0.0,0.0,-1.192,-1.2581,-1.3203,-1.3857,-1.4613,-1.4714,-1.4477,-1.4006,-1.4757,0.0,0.0,-1.5482,-1.6145,-1.6161,-1.6512,-1.6823,-1.7083,-1.7799,-1.817,-1.8194,-1.8465,0.0,-1.7888,-1.7605,-1.7501,-1.7515,0.0,0.0,0.0,0.0,0.0,0.0,0.0,0.0,0.0,0.0,0.0,0.0,0.0,0.0,0.0,0.0,0.0,0.0,0.0,0.0,0.0,0.0,0.0,0.0,0.0,0.0,0.0,0.0,0.0,0.0,0.0,0.0,0.0,0.0,0.0,0.0,0.0,0.0,0.0,0.0,0.0,-2.4557,-2.5041,0.0,0.0,0.0,0.0,0.0,0.0,0.0,0.0,0.0,0.0,0.0,0.0,0.0,-2.9785,-2.9897,-3.065,-3.1369,-3.2052,-3.26,-3.3393,-3.4404,-3.4308,-3.4091,-3.3846,-3.4434,0.0,-3.1405,-3.2176,0.0,0.0,0.0,0.0,0.0,0.0,0.0,0.0,0.0,0.0,0.0,0.0,0.0,0.0,0.0,0.0,0.0,0.0,0.0,0.0,0.0,-1.3813,-1.4637,-1.5744,-1.5747,-1.5468,-1.4886,-1.5461,-1.5471,-1.4775,-1.5532,-1.6065,-1.6301,-1.6617,-1.7194,-1.8111,-1.8407,-1.8713,-1.9034,0.0,0.0,0.0,-1.8907,-1.8598,-1.8092,-1.8134,0.0,0.0,0.0,0.0,0.0,0.0,0.0,0.0,0.0,0.0,0.0,0.0,0.0,0.0,0.0,0.0,0.0,0.0,0.0,0.0,0.0,0.0,0.0,0.0,0.0,0.0,0.0,0.0,0.0,0.0,0.0,0.0,0.0,0.0,0.0,0.0,0.0,0.0,0.0,-2.418,-2.5392,-2.502,-2.5484,-2.5596,0.0,0.0,0.0,0.0,0.0,0.0,0.0,0.0,0.0,-3.0781,-3.1148,-3.1675,-3.2403,-3.2919,-3.3316,-3.3634,-3.4073,-3.4565,-3.5043,-3.5159,-3.5109,-3.4955,-3.5383,-3.4932,-3.3877,-3.3383,-3.2566,-3.1494,0.0,0.0,0.0,0.0,-3.0721,-3.0584,0.0,0.0,0.0,0.0,0.0,0.0,0.0,0.0,0.0,0.0,0.0,0.0,-1.3607,-1.4429,-1.5259,-1.6143,-1.6257,-1.5971,0.0,0.0,-1.6177,-1.5314,-1.5889,-1.643,-1.6868,-1.7136,-1.7799,-1.8861,-1.8925,-1.9146,0.0,0.0,0.0,0.0,0.0,0.0,0.0,0.0,0.0,0.0,0.0,0.0,0.0,0.0,0.0,0.0,0.0,0.0,0.0,0.0,0.0,0.0,0.0,0.0,0.0,0.0,0.0,0.0,0.0,0.0,0.0,0.0,0.0,0.0,0.0,0.0,0.0,0.0,0.0,0.0,0.0,0.0,0.0,0.0,0.0,0.0,0.0,-2.5572,-2.6327,-2.5543,-2.6513,-2.6793,0.0,0.0,0.0,0.0,0.0,0.0,-2.9975,-3.0471,-3.1337,-3.2566,-3.2842,-3.3424,-3.4409,-3.467,-3.4752,-3.4693,-3.4907,-3.5062,-3.5158,-3.5309,-3.5465,-3.5621,-3.5706,-3.5768,-3.5684,-3.4431,-3.3777,-3.3468,-3.2326,-3.1749,-3.1631,-3.2452,-3.2393,-3.2178,0.0,0.0,0.0,0.0,0.0,0.0,0.0,0.0,0.0,0.0,0.0,-1.3635,-1.3793,-1.4886,-1.5436,-1.4949,-1.5394,-1.5226,0.0,0.0,-1.7056,-1.5814,-1.6936,-1.7937,-1.8657,-1.8999,-1.9211,0.0,0.0,0.0,0.0,0.0,0.0,0.0,0.0,0.0,0.0,0.0,0.0,-1.8559,0.0,0.0,0.0,0.0,0.0,0.0,0.0,0.0,0.0,0.0,0.0,0.0,0.0,0.0,0.0,0.0,0.0,0.0,0.0,0.0,0.0,0.0,0.0,0.0,0.0,0.0,0.0,0.0,0.0,0.0,0.0,0.0,0.0,0.0,0.0,0.0,0.0,0.0,0.0,-2.75,-2.8749,0.0,0.0,0.0,0.0,-2.9512,-3.0449,-3.1261,-3.1837,-3.2786,-3.3612,-3.4259,-3.4553,-3.4713,-3.4768,-3.4906,-3.4975,-3.4975,-3.5181,-3.538,-3.557,-3.5581,-3.5696,-3.5883,-3.5883,-3.5934,-3.5988,-3.5887,-3.5373,-3.462,-3.4541,-3.4,-3.3375,-3.4254,-3.4546,-3.4644,0.0,0.0,0.0,0.0,0.0,-1.1108,-1.1132,-1.1374,-1.1799,-1.2493,-1.3276,-1.4114,0.0,-1.5436,-1.5792,-1.607,-1.6247,-1.5974,-1.5117,0.0,-1.6834,-1.577,-1.6955,-1.7847,-1.8283,-1.8706,-1.9004,0.0,0.0,0.0,0.0,0.0,0.0,0.0,0.0,0.0,0.0,0.0,0.0,-1.9842,-2.0347,-2.0336,0.0,0.0,0.0,0.0,0.0,0.0,0.0,0.0,0.0,0.0,0.0,0.0,0.0,0.0,0.0,0.0,0.0,0.0,0.0,0.0,0.0,0.0,0.0,0.0,0.0,0.0,0.0,0.0,0.0,0.0,0.0,0.0,0.0,0.0,0.0,0.0,0.0,-2.8562,-2.9958,0.0,-2.9195,-3.0259,-3.1084,-3.1185,-3.24,-3.3256,-3.3534,-3.3982,-3.4391,-3.4775,-3.4832,-3.4942,-3.5127,-3.5185,-3.5196,-3.5196,-3.5361,-3.548,-3.5601,-3.5721,-3.5853,-3.5953,-3.5962,-3.5974,-3.6004,-3.601,-3.5815,-3.5539,-3.5542,-3.5347,-3.5112,-3.5425,-3.5542,-3.5581,0.0,0.0,0.0,0.0,-1.1085,-1.1108,-1.1132,-1.1556,-1.2229,-1.3137,-1.3752,-1.4536,-1.5637,-1.5736,-1.5806,-1.6098,-1.6275,-1.6087,-1.5455,0.0,-1.6872,-1.5951,-1.723,-1.7988,-1.8014,-1.8638,0.0,0.0,0.0,0.0,0.0,0.0,0.0,0.0,0.0,0.0,0.0,0.0,0.0,0.0,-2.1293,-2.1225,-2.0834,0.0,0.0,0.0,0.0,0.0,0.0,0.0,0.0,0.0,0.0,0.0,0.0,0.0,0.0,0.0,0.0,0.0,0.0,0.0,0.0,0.0,0.0,0.0,0.0,0.0,0.0,0.0,0.0,0.0,0.0,0.0,0.0,0.0,0.0,-2.9533,-3.0557,-2.947,-3.1138,-3.1844,-3.0526,-3.1894,-3.2908,-3.2951,-3.388,-3.4495,-3.4564,-3.4649,-3.4926,-3.546,-3.5441,-3.5672,-3.6136,-3.5933,-3.5835,-3.5835,-3.5698,-3.5821,-3.6134,-3.597,-3.6084,-3.6382,-3.6083,-3.5974,-3.5997,-3.6004,-3.601,-3.5991,-3.5991,-3.5991,-3.5991,-3.5991,-3.5991,-3.5991,0.0,0.0,0.0,-1.1085,-1.1085,-1.1108,-1.1192,-1.1633,-1.2437,-1.3841,-1.4429,-1.4984,-1.5646,-1.5674,-1.5422,-1.485,-1.531,-1.544,-1.4836,-1.6591,-1.7243,-1.6396,-1.7852,-1.8451,-1.8021,0.0,0.0,0.0,0.0,0.0,0.0,0.0,0.0,0.0,0.0,0.0,0.0,0.0,0.0,0.0,-2.213,-2.194,-2.1341,0.0,0.0,0.0,0.0,0.0,0.0,0.0,0.0,0.0,0.0,0.0,0.0,0.0,0.0,0.0,0.0,0.0,0.0,0.0,0.0,0.0,0.0,0.0,0.0,0.0,0.0,0.0,0.0,0.0,0.0,0.0,0.0,0.0,-3.0229,-3.0612,-3.0803,-3.036,-3.232,-3.3243,-3.2064,-3.3561,-3.4666,-3.4788,-3.4788,-3.481,-3.4908,-3.4926,-3.5394,-3.6374,-3.6507,-3.6964,-3.7795,-3.7215,-3.692,-3.6939,-3.6236,-3.6376,-3.7214,-3.6337,-3.6395,-3.7155,-3.6314,-3.5953,-3.6005,-3.5997,-3.6004,-3.5991,-3.5991,-3.5991,-3.5991,-3.5991,-3.5991,-3.5991,0.0,0.0,-1.1085,-1.1085,-1.1085,-1.1085,-1.1062,-1.1987,-1.3123,-1.4356,-1.4665,-1.5202,-1.6372,-1.5501,-1.4836,-1.4871,-1.484,-1.4917,-1.5163,0.0,-1.6892,-1.7514,-1.7946,0.0,-1.8232,0.0,0.0,0.0,0.0,0.0,0.0,0.0,0.0,0.0,0.0,0.0,0.0,0.0,0.0,-2.1466,-2.2072,-2.2665,-2.3187,0.0,0.0,0.0,0.0,0.0,0.0,0.0,0.0,0.0,0.0,0.0,0.0,0.0,0.0,0.0,0.0,0.0,0.0,0.0,0.0,0.0,0.0,0.0,0.0,0.0,0.0,0.0,0.0,0.0,0.0,0.0,-2.9715,-3.0966,-3.0784,-3.1882,-3.2679,-3.2538,-3.3385,-3.3864,-3.3523,-3.4214,-3.4687,-3.4708,-3.4687,-3.4728,-3.4908,-3.5514,-3.6105,-3.6665,-3.7313,-3.7878,-3.8299,-3.7532,-3.743,-3.8033,-3.6598,-3.6688,-3.811,-3.7233,-3.696,-3.7194,-3.6947,-3.6528,-3.6005,-3.6004,-3.5991,-3.5991,-3.5991,-3.5991,-3.5991,-3.5991,-3.5991,-3.5991,0.0,-1.0951,-1.1233,-1.1233,-1.1132,-1.1122,-1.1388,-1.2295,-1.3473,-1.4928,-1.4931,-1.5304,-1.6626,-1.5459,-1.4686,-1.4825,-1.4732,-1.4828,-1.5255,0.0,-1.6746,-1.7935,0.0,0.0,0.0,0.0,0.0,0.0,0.0,0.0,0.0,0.0,0.0,0.0,0.0,0.0,0.0,0.0,0.0,-2.114,-2.1664,-2.2443,-2.3331,-2.3705,-2.3326,-2.2535,-2.2525,-2.1798,-2.0853,-2.0938,0.0,0.0,0.0,0.0,0.0,0.0,0.0,0.0,0.0,0.0,0.0,0.0,0.0,0.0,0.0,0.0,0.0,0.0,0.0,0.0,0.0,0.0,0.0,0.0,-3.0994,-3.2055,-3.2174,-3.2948,-3.3549,-3.3569,-3.3961,-3.4184,-3.4148,-3.4517,-3.4747,-3.4666,-3.4645,-3.473,-3.4963,-3.585,-3.6635,-3.737,-3.8257,-3.8984,-3.9546,-3.8669,-3.8526,-3.9026,-3.7642,-3.7701,-3.9026,-3.8149,-3.794,-3.8258,-3.7518,-3.6941,-3.652,-3.6144,-3.5991,-3.5991,0.0,0.0,0.0,0.0,-3.5991,-3.5991,0.0,-1.1137,-1.14,-1.14,-1.1244,-1.1308,-1.1903,-1.2563,-1.3654,-1.545,0.0,-1.5286,-1.655,-1.552,-1.4735,-1.4696,-1.4752,-1.5008,0.0,0.0,0.0,-1.7935,-1.778,0.0,0.0,0.0,0.0,0.0,0.0,0.0,0.0,0.0,0.0,0.0,0.0,0.0,0.0,0.0,-2.0237,-2.0648,-2.1057,-2.1716,-2.2554,-2.3289,-2.3241,-2.2739,-2.2149,-2.1995,-2.1885,-2.0858,0.0,0.0,0.0,0.0,0.0,0.0,0.0,0.0,0.0,0.0,0.0,0.0,0.0,0.0,0.0,0.0,0.0,0.0,0.0,0.0,0.0,0.0,0.0,0.0,-3.2371,-3.3491,-3.378,-3.378,-3.3788,-3.3847,-3.4171,-3.4353,-3.4245,-3.4623,-3.4788,-3.4623,-3.4645,-3.4849,-3.5204,-3.6135,0.0,0.0,0.0,-4.0157,-4.0996,-4.0147,-3.9792,-3.9922,-3.885,-3.8909,-3.9902,-3.8934,-3.8979,-3.9716,-3.8166,-3.7418,-3.7234,-3.6479,-3.6088,-3.5991,-3.5991,-3.5991,-3.5991,-3.5991,-3.5991,-3.5991,0.0,-1.1278,-1.14,-1.14,-1.1637,-1.1822,-1.1908,-1.2954,-1.4174,-1.544,-1.5156,-1.524,-1.6404,-1.5346,-1.4446,-1.4093,-1.4637,-1.5395,0.0,0.0,0.0,0.0,0.0,0.0,0.0,0.0,0.0,0.0,0.0,0.0,0.0,0.0,0.0,0.0,0.0,0.0,0.0,0.0,-1.9546,-1.9951,-2.0565,-2.1667,-2.2919,-2.3255,-2.3452,-2.3625,-2.3966,-2.3378,-2.2481,-2.2915,-2.2002,-2.0822,-2.1632,0.0,0.0,0.0,0.0,0.0,0.0,0.0,0.0,0.0,0.0,0.0,0.0,0.0,0.0,0.0,0.0,0.0,0.0,0.0,0.0,-3.093,-3.2332,-3.3491,-3.378,-3.3972,-3.4124,-3.413,-3.4274,-3.4386,-3.4363,-3.4539,-3.4645,-3.4583,-3.4623,-3.5013,-3.5951,-3.6979,-3.8055,-3.9139,-4.0178,-4.0816,-4.0999,-4.0195,-4.0142,-4.0818,-3.855,0.0,-4.0797,-3.9214,-3.8985,-3.9784,-3.9447,-3.8534,-3.7292,-3.7123,-3.6638,-3.5991,-3.5991,-3.5991,-3.5991,-3.5991,-3.5991,-3.5991,-1.236,-1.2363,-1.2358,-1.2358,-1.2656,-1.3001,-1.3321,-1.389,-1.4747,-1.6004,-1.563,-1.5601,-1.6492,-1.5696,-1.502,-1.4819,-1.5447,0.0,0.0,0.0,0.0,0.0,0.0,0.0,0.0,0.0,0.0,0.0,0.0,0.0,0.0,0.0,0.0,0.0,0.0,0.0,0.0,-1.9124,-1.9575,-1.9975,-2.0677,-2.1622,-2.2565,-2.298,-2.3219,-2.3371,-2.4009,-2.3769,-2.3117,-2.2986,-2.2298,-2.1456,-2.1223,-2.1452,-2.1789,0.0,0.0,0.0,0.0,0.0,0.0,0.0,0.0,0.0,0.0,0.0,0.0,0.0,0.0,-2.9311,0.0,0.0,-3.1727,-3.2087,-3.2857,-3.3491,-3.378,-3.4349,-3.4791,-3.4907,-3.5113,-3.5221,-3.5173,-3.5221,-3.5055,-3.462,-3.4602,-3.5068,-3.6141,-3.7125,-3.8134,-3.9225,-4.0281,-4.0858,-4.0848,-4.0545,-4.0641,-4.1075,-3.9775,-3.9838,-4.1067,-4.0194,-4.0047,-4.0422,-3.9997,-3.9107,-3.7884,-3.7006,-3.6384,-3.5991,-3.5991,-3.5991,-3.5991,-3.5991,-3.5991,-3.5991,-1.3484,-1.3687,-1.3695,-1.351,-1.3755,-1.4191,-1.4716,-1.4842,-1.5338,-1.6547,-1.6114,-1.595,-1.6591,-1.6099,-1.571,0.0,0.0,0.0,0.0,0.0,0.0,0.0,0.0,0.0,0.0,0.0,0.0,0.0,0.0,0.0,0.0,0.0,0.0,0.0,0.0,0.0,0.0,-1.9109,-1.9753,-2.0193,-2.0857,-2.1363,-2.1819,-2.2601,-2.2858,-2.2836,-2.3405,-2.3676,-2.3601,-2.2674,-2.2455,-2.2298,-2.1098,-2.1176,-2.172,-2.1383,-2.1996,0.0,0.0,0.0,0.0,0.0,0.0,0.0,0.0,0.0,-2.8258,-2.8869,-2.9725,-3.0585,-3.1273,-3.197,-3.2622,-3.3225,-3.3364,-3.3481,-3.3698,-3.4594,-3.5384,-3.5727,-3.5938,-3.6012,-3.5901,-3.5754,-3.5359,-3.4639,-3.4602,-3.5143,-3.6349,-3.711,-3.8058,-3.9272,-4.0202,-4.0672,-4.0699,-4.0874,-4.1007,-4.1086,-4.0911,-4.0935,-4.1096,-4.0925,-4.0929,-4.1039,-4.0005,-3.9091,-3.8238,-3.6657,-3.5988,-3.5981,-3.5981,-3.5958,-3.5955,-3.5988,-3.5991,-3.5991,0.0,-1.459,-1.5145,-1.4256,-1.443,-1.4701,-1.4791,-1.5259,-1.5845,-1.6607,-1.6114,-1.5906,-1.6455,-1.604,-1.571,0.0,0.0,0.0,0.0,0.0,0.0,0.0,0.0,0.0,0.0,0.0,0.0,0.0,0.0,0.0,0.0,0.0,0.0,0.0,0.0,0.0,-1.8711,-1.8823,-1.9419,-2.0288,-2.0373,-2.0598,-2.0963,-2.2064,-2.2554,-2.2724,-2.2851,-2.32,-2.3576,-2.3409,-2.3359,-2.3467,-2.4064,-2.3063,-2.1781,-2.2214,0.0,-2.1539,-2.0891,-2.2186,-2.4248,-2.6392,-2.6584,-2.7139,0.0,0.0,-3.0238,-3.1912,-3.2335,-3.2474,-3.2798,-3.3046,-3.3184,-3.3147,-3.3286,-3.3393,-3.3452,-3.4365,-3.5358,-3.6295,-3.6115,-3.591,-3.5888,-3.5208,-3.4717,-3.4602,-3.4602,-3.5343,-3.7076,-3.7375,-3.8289,-4.0023,-4.0369,-4.0578,-4.0703,-4.078,-4.0894,-4.1,-4.029,-4.0345,-4.1074,-4.0301,-4.0363,-4.101,-3.9429,-3.8238,-3.7379,-3.6404,-3.5955,-3.5919,-3.5919,-3.5846,-3.576,-3.5927,-3.5991,-3.5991,0.0,-1.494,-1.5618,-1.5546,-1.5718,-1.5852,-1.5852,-1.6072,-1.6323,-1.6604,-1.6416,-1.6296,-1.6517,-1.6357,-1.6471,0.0,0.0,0.0,0.0,0.0,0.0,0.0,0.0,0.0,0.0,0.0,0.0,0.0,0.0,0.0,0.0,0.0,0.0,0.0,0.0,-1.9076,-1.935,-1.9582,-2.0144,-2.0878,-2.1126,-2.1241,-2.1355,-2.183,-2.1742,-2.1564,-2.2544,-2.3065,0.0,0.0,-2.2363,-2.2026,-2.2499,-2.1929,-2.1148,-2.1263,-2.1585,0.0,-2.2468,-2.4184,-2.6038,0.0,-2.8048,-2.9244,-3.0587,-3.082,-3.0981,-3.1969,-3.2453,-3.2734,-3.2894,-3.3135,-3.3292,0.0,-3.3334,-3.3556,-3.4027,-3.4991,-3.5797,-3.6213,-3.621,-3.6285,-3.6577,-3.5863,-3.5146,-3.4639,-3.4602,-3.5399,-3.7206,-3.7368,-3.819,-3.9962,-4.0208,-4.0335,-4.0414,-4.0546,-4.0652,-4.0704,-4.045,-4.0505,-4.0852,-4.0532,-4.0331,-4.0163,-3.8955,-3.7923,-3.7066,-3.6183,-3.5814,-3.5787,-3.5787,-3.5753,-3.5702,-3.5795,-3.5833,-3.5833,0.0,-1.5231,-1.6003,-1.6449,-1.6554,-1.6596,-1.6596,-1.6596,-1.6596,-1.6596,-1.6596,-1.6596,-1.6596,-1.677,-1.7195,0.0,0.0,0.0,0.0,0.0,0.0,0.0,0.0,0.0,0.0,0.0,0.0,0.0,0.0,0.0,0.0,0.0,0.0,0.0,0.0,-1.9826,-1.9976,-2.044,-2.0976,-2.1592,-2.2084,-2.2186,-2.2112,-2.2079,-2.1623,-2.1097,-2.2185,-2.2531,0.0,0.0,-2.1675,-2.1137,-2.1384,-2.1128,-2.0701,-2.0703,-2.1226,-2.213,-2.3424,0.0,0.0,-2.6814,-2.833,-2.9725,-2.9797,-3.0331,-3.0925,-3.1319,-3.1969,-3.2537,-3.2749,-3.2993,-3.3232,-3.3352,-3.3563,-3.3936,-3.4534,-3.5412,-3.6035,-3.6087,-3.6048,-3.612,-3.6558,-3.5899,-3.5327,-3.498,-3.4736,-3.5515,-3.7548,-3.7454,-3.8121,-3.9851,-4.0043,-4.0136,-4.0208,-4.0331,-4.0447,-4.0494,-4.0602,-4.0645,-4.0649,-4.0722,-4.0218,-3.9207,-3.8557,-3.7664,-3.6584,-3.5954,-3.5685,-3.5678,-3.5678,-3.566,-3.5641,-3.5641,-3.5669,-3.5693,0.0,0.0,-1.6496,-1.6581,-1.6596,-1.6596,-1.6596,-1.6596,-1.6596,-1.6596,-1.6596,-1.6596,-1.6596,-1.7227,-1.754,0.0,0.0,0.0,0.0,-1.9307,0.0,0.0,0.0,0.0,0.0,0.0,0.0,0.0,0.0,0.0,0.0,0.0,0.0,0.0,-1.9867,-2.0106,-2.068,-2.1172,-2.1708,-2.2305,-2.2902,-2.316,-2.3144,-2.3083,-2.2662,-2.2098,-2.1606,0.0,0.0,0.0,-2.1886,-2.1855,-2.2231,-2.1608,0.0,-2.1306,-2.1222,0.0,0.0,0.0,-2.3992,-2.556,-2.6351,-2.7104,-2.8511,-2.9362,-3.0002,-3.0539,-3.1267,-3.202,-3.2603,-3.2834,-3.2979,-3.3262,-3.4003,-3.457,-3.4606,-3.5294,-3.5877,-3.6076,-3.5418,-3.5027,-3.5235,-3.4717,-3.4764,-3.5778,-3.5139,-3.5824,-3.8426,-3.7821,-3.8182,-3.9832,-3.9911,-3.9998,-4.0214,-4.0214,-4.0298,-4.0491,-4.0505,-4.0513,-4.05,-4.0649,-3.983,-3.8343,-3.8305,-3.7333,-3.5732,-3.5713,-3.5669,-3.5588,-3.5588,-3.5558,-3.5507,-3.5507,-3.5604,-3.5693,0.0,0.0,0.0,-1.6501,-1.6528,-1.6554,-1.6596,-1.6596,-1.6596,-1.6596,-1.6811,0.0,0.0,0.0,0.0,0.0,0.0,0.0,0.0,-1.9782,0.0,0.0,0.0,0.0,0.0,0.0,0.0,0.0,0.0,0.0,0.0,0.0,0.0,0.0,-2.2083,-2.2192,-2.2369,-2.2101,-2.2359,-2.2902,-2.2698,-2.2617,-2.259,-2.2588,-2.2104,-2.1426,0.0,0.0,0.0,0.0,-2.0948,-2.0609,-2.1329,0.0,0.0,-2.041,-2.0947,-2.1543,-2.2437,0.0,-2.5017,-2.5528,-2.6439,-2.7566,-2.8741,-2.9185,-2.9619,-3.0588,-3.0885,-3.0851,-3.0508,-3.1192,-3.176,-3.1536,-3.2649,-3.379,-3.4503,-3.4842,-3.5036,-3.5109,-3.5345,-3.5362,-3.5092,-3.4958,-3.505,-3.5411,-3.5665,-3.6459,-3.7921,-3.7971,-3.8446,-3.9585,-3.9804,-3.9933,-3.9998,-3.9998,-4.004,-4.0101,-4.023,-4.0351,-4.0446,-4.054,-3.9675,-3.8099,-3.8099,-3.7153,-3.5577,-3.5577,-3.5553,-3.5534,-3.5534,-3.5528,-3.5493,-3.5493,-3.5522,-3.5577,0.0,0.0,0.0,0.0,0.0,0.0,0.0,0.0,0.0,0.0,0.0,0.0,0.0,0.0,0.0,0.0,0.0,0.0,0.0,0.0,0.0,0.0,0.0,0.0,0.0,0.0,0.0,0.0,0.0,0.0,0.0,0.0,0.0,-2.3175,-2.3175,-2.3189,-2.3162,-2.2807,-2.2875,-2.3148,-2.2807,-2.2644,-2.2617,-2.2588,-2.1979,0.0,0.0,0.0,0.0,0.0,0.0,0.0,0.0,0.0,0.0,-2.0448,-2.1134,-2.1811,-2.2656,-2.379,-2.4782,-2.5025,-2.5759,-2.6654,-2.7526,-2.8111,-2.8756,-2.9712,-3.0061,-3.0094,-2.9779,-3.0524,-3.1009,-3.054,-3.1782,-3.3059,-3.3786,-3.3952,-3.4122,-3.446,-3.5028,-3.526,-3.4914,-3.5475,-3.5965,-3.6184,-3.6361,-3.6998,-3.8228,-3.8208,-3.8552,-3.9383,-3.9551,-3.9623,-3.958,-3.958,-3.958,-3.958,-3.9832,-4.0001,-4.0101,-3.9961,-3.9166,-3.7878,-3.7602,-3.6714,-3.5427,-3.5493,-3.5493,-3.5493,-3.5493,-3.5493,-3.5493,-3.5493,-3.5446,-3.5403,0.0,0.0,0.0,0.0,0.0,0.0,0.0,0.0,0.0,0.0,0.0,0.0,0.0,0.0,0.0,0.0,0.0,0.0,0.0,0.0,0.0,0.0,0.0,-1.9938,-2.0172,-2.0199,-2.0594,0.0,0.0,0.0,0.0,0.0,0.0,-2.3001,-2.3107,-2.3134,-2.3134,-2.3107,-2.3107,-2.3134,-2.3067,-2.3067,-2.3078,-2.3034,0.0,0.0,0.0,0.0,0.0,0.0,0.0,0.0,0.0,0.0,0.0,-2.1432,-2.169,-2.19,-2.2886,-2.3136,-2.336,-2.4045,-2.4245,-2.4426,-2.5084,-2.6278,-2.746,-2.7984,-2.8899,-2.9681,0.0,0.0,-3.0677,-3.018,-3.1447,-3.2539,-3.2657,-3.2848,-3.3288,0.0,0.0,0.0,0.0,0.0,-3.7266,-3.7865,-3.7132,-3.7373,-3.9096,-3.8488,-3.838,-3.909,-3.9165,-3.9137,-3.9008,-3.9008,-3.9008,-3.9008,-3.9338,-3.9519,-3.9505,-3.8986,-3.8347,-3.7561,-3.6862,-3.6071,-3.5266,-3.5412,-3.546,-3.546,-3.5479,-3.5479,-3.5479,-3.546,-3.5354,-3.5209,0.0,0.0,0.0,0.0,0.0,0.0,0.0,0.0,0.0,0.0,0.0,0.0,0.0,0.0,0.0,0.0,0.0,0.0,0.0,0.0,0.0,0.0,0.0,0.0,0.0,-2.044,0.0,0.0,0.0,0.0,0.0,0.0,0.0,0.0,-2.2446,-2.2702,-2.2661,-2.2151,-2.2169,-2.2495,0.0,-2.1309,-2.1799,0.0,0.0,0.0,0.0,0.0,0.0,0.0,0.0,0.0,0.0,0.0,-2.0985,0.0,0.0,-2.1659,-2.2169,-2.2576,-2.2862,-2.3043,-2.3519,-2.42,-2.5181,-2.578,-2.6271,-2.668,-2.7339,-2.7374,0.0,0.0,0.0,-2.9155,-3.0882,0.0,-3.3315,-3.3009,0.0,-3.3004,0.0,-3.4142,-3.4442,-3.5345,-3.615,-3.6693,-3.6909,-3.7234,-3.7698,-3.7784,-3.7831,-3.7931,-3.8767,-3.9137,-3.9008,-3.9008,-3.9008,-3.9008,-3.9197,-3.8964,-3.8396,-3.8357,-3.7602,-3.6288,-3.61,-3.5571,-3.4851,-3.4944,-3.4982,-3.4982,-3.5018,-3.5054,-3.5054,-3.5051,-3.4999,-3.4908,0.0,0.0,0.0,0.0,0.0,0.0,0.0,0.0,0.0,0.0,0.0,0.0,0.0,0.0,0.0,0.0,0.0,0.0,0.0,0.0,0.0,0.0,0.0,0.0,0.0,0.0,0.0,0.0,0.0,0.0,0.0,0.0,-2.1388,-2.1291,-2.1789,-2.2038,-2.1997,0.0,0.0,0.0,0.0,0.0,0.0,0.0,0.0,0.0,0.0,0.0,0.0,0.0,0.0,-2.1365,-2.0978,-2.0876,-2.1058,-2.1639,0.0,-2.1344,-2.1968,-2.2368,-2.2652,-2.2735,-2.3356,-2.404,-2.4337,-2.4724,-2.5056,-2.5187,-2.5632,0.0,-2.463,-2.6775,0.0,0.0,0.0,0.0,-3.2773,-3.2599,-3.2438,0.0,-3.3262,0.0,-3.4171,-3.4888,-3.5454,-3.576,-3.6352,-3.673,-3.6796,-3.6985,-3.7208,-3.7404,-3.8022,-3.8485,-3.8741,-3.873,-3.873,-3.8759,-3.8961,-3.8645,-3.7854,-3.7667,-3.6902,-3.5691,-3.5359,-3.5007,-3.4632,-3.4733,-3.4714,-3.4695,-3.4754,-3.4793,-3.4735,-3.4794,-3.4715,-3.4572,0.0,0.0,0.0,0.0,0.0,0.0,0.0,0.0,0.0,0.0,0.0,0.0,0.0,0.0,0.0,0.0,0.0,0.0,0.0,0.0,0.0,0.0,0.0,0.0,0.0,0.0,0.0,0.0,0.0,0.0,0.0,0.0,0.0,0.0,0.0,0.0,0.0,0.0,0.0,0.0,0.0,0.0,0.0,0.0,0.0,0.0,0.0,0.0,0.0,0.0,-2.1833,-2.1696,-2.1241,-2.0969,-2.0955,-2.1729,-2.1341,-2.0896,-2.1854,-2.217,-2.2322,-2.2544,-2.3379,-2.3899,-2.3188,-2.3534,-2.3938,-2.3498,0.0,-2.4349,-2.4562,-2.6268,-2.7759,-2.8066,0.0,-3.1402,-3.1854,-3.21,-3.2283,-3.2336,-3.3055,-3.358,-3.3699,-3.4319,-3.4762,-3.4779,-3.5336,-3.578,-3.6062,-3.6062,-3.638,-3.7138,-3.7125,-3.7497,-3.8218,-3.8237,-3.8237,-3.8218,-3.8548,-3.8188,-3.7294,-3.6753,-3.61,-3.5304,-3.467,-3.4398,-3.442,-3.4529,-3.4532,-3.4433,-3.4572,-3.4532,-3.4451,-3.4572,-3.4464,-3.4242,0.0,0.0,0.0,0.0,0.0,0.0,0.0,0.0,0.0,0.0,-1.6943,-1.7573,0.0,0.0,0.0,0.0,0.0,0.0,0.0,0.0,0.0,0.0,0.0,0.0,0.0,0.0,0.0,0.0,0.0,0.0,0.0,0.0,0.0,0.0,0.0,0.0,0.0,0.0,0.0,0.0,0.0,0.0,0.0,0.0,0.0,0.0,0.0,0.0,0.0,0.0,-2.2007,-2.2602,-2.22,-2.1684,-2.1409,-2.1988,-2.1215,-2.0358,-2.0924,-2.1051,-2.1093,-2.1547,-2.2602,-2.343,-2.3091,-2.3209,0.0,0.0,-2.2394,-2.2911,-2.1709,-2.421,-2.6645,-2.7081,0.0,0.0,0.0,0.0,-3.2522,0.0,-3.232,-3.2264,-3.2546,-3.2703,-3.2892,-3.3173,-3.3301,-3.3777,-3.477,-3.4806,-3.5278,-3.6296,-3.6243,-3.6614,-3.7398,-3.7416,-3.7416,-3.7416,-3.7478,-3.6742,-3.5316,-3.518,-3.4752,-3.4017,-3.3897,-3.385,-3.3928,-3.4005,-3.403,-3.4012,-3.4105,-3.4105,-3.4087,-3.4179,-3.4105,-3.3979,0.0,0.0,0.0,0.0,0.0,0.0,0.0,-1.6344,-1.6743,-1.5748,-1.6476,-1.7137,-1.7206,-1.7078,-1.6996,0.0,0.0,0.0,0.0,0.0,0.0,0.0,0.0,0.0,0.0,0.0,0.0,0.0,0.0,0.0,0.0,0.0,0.0,0.0,0.0,0.0,0.0,0.0,0.0,0.0,0.0,0.0,0.0,0.0,0.0,0.0,0.0,0.0,0.0,0.0,-2.2097,-2.2981,-2.2551,-2.1997,-2.1568,-2.1902,-2.1218,-2.0423,-2.0895,-2.0996,-2.1169,-2.1789,-2.2666,-2.324,-2.2612,0.0,0.0,0.0,-2.1155,-2.1623,-2.0989,0.0,0.0,0.0,0.0,0.0,0.0,0.0,0.0,-3.2571,-3.2021,-3.1763,-3.202,-3.202,-3.2126,-3.2266,-3.2266,-3.2679,-3.3571,-3.4171,-3.474,-3.526,-3.5853,-3.6351,-3.6735,-3.6735,-3.6735,-3.6735,-3.6735,-3.6095,-3.4906,-3.4906,-3.4467,-3.3753,-3.3753,-3.378,-3.3788,-3.3815,-3.3834,-3.3788,-3.3868,-3.3868,-3.3842,-3.3921,-3.3895,-3.3842,0.0,0.0,0.0,0.0,0.0,0.0,0.0,-1.6146,-1.6606,-1.5345,-1.6099,-1.6796,-1.6819,-1.6761,-1.6655,0.0,0.0,0.0,0.0,0.0,0.0,0.0,0.0,0.0,0.0,0.0,0.0,0.0,0.0,0.0,0.0,0.0,0.0,0.0,0.0,0.0,0.0,0.0,0.0,0.0,0.0,0.0,0.0,0.0,0.0,0.0,0.0,0.0,0.0,0.0,-2.2101,-2.277,-2.2724,-2.2275,-2.178,-2.1739,-2.1144,-2.0574,-2.0986,-2.1122,-2.1302,-2.2017,-2.2759,-2.3065,-2.2124,-2.1901,0.0,0.0,-2.0258,-2.0648,-2.0812,0.0,0.0,0.0,0.0,0.0,0.0,0.0,0.0,0.0,-3.1834,0.0,-3.1709,-3.18,-3.1837,-3.1873,-3.1856,-3.2126,-3.2651,-3.3607,-3.4135,-3.4135,-3.5048,-3.5634,-3.5816,-3.5816,-3.5816,-3.5816,-3.5816,-3.5349,-3.4527,-3.4603,-3.4284,-3.368,-3.368,-3.368,-3.368,-3.3625,-3.355,-3.3512,-3.3652,-3.3652,-3.3625,-3.3734,-3.3807,-3.3825,0.0,0.0,0.0,0.0,0.0,0.0,0.0,-1.6345,-1.6557,-1.5274,-1.605,-1.6757,-1.6863,-1.6616,-1.6177,0.0,0.0,0.0,0.0,0.0,0.0,0.0,0.0,0.0,0.0,0.0,0.0,0.0,0.0,0.0,0.0,0.0,0.0,0.0,0.0,0.0,0.0,0.0,0.0,0.0,0.0,0.0,0.0,0.0,0.0,0.0,0.0,0.0,0.0,0.0,0.0,-2.1569,-2.3018,-2.293,-2.2165,-2.1718,0.0,0.0,-2.0712,-2.0666,-2.0712,-2.1391,-2.2248,-2.2732,-2.1813,0.0,0.0,-2.0156,-2.001,-2.0204,-2.0323,-2.1379,0.0,0.0,0.0,-2.9095,0.0,0.0,0.0,-3.2331,0.0,0.0,-3.1562,-3.1709,-3.1873,-3.2037,-3.2073,-3.2161,-3.2352,-3.2722,-3.2965,-3.2965,-3.3069,-3.3462,-3.4178,-3.4196,-3.4196,-3.4196,-3.4196,-3.3784,-3.2997,-3.3322,-3.3422,-3.335,-3.335,-3.335,-3.3321,-3.3032,-3.289,-3.2921,-3.3214,-3.335,-3.3379,-3.368,-3.3807,-3.3899,0.0,0.0,0.0,0.0,0.0,0.0,-1.4925,-1.5573,-1.5837,-1.4872,-1.5511,-1.6172,-1.6517,-1.7136,-1.73,-1.6684,0.0,0.0,0.0,0.0,0.0,0.0,0.0,0.0,0.0,0.0,0.0,0.0,0.0,0.0,0.0,0.0,0.0,0.0,0.0,0.0,0.0,0.0,0.0,0.0,0.0,0.0,0.0,0.0,0.0,0.0,0.0,0.0,0.0,0.0,0.0,0.0,-2.0837,-2.1222,0.0,0.0,-2.2033,-2.1281,-2.1794,-2.1582,-2.1484,-2.2301,-2.2204,-2.1929,-2.2007,0.0,-2.0865,-1.9993,-1.9975,-2.0115,-2.0185,-2.0816,-2.182,0.0,-2.525,-2.7191,-2.9075,0.0,0.0,-3.155,-3.164,0.0,0.0,-3.2041,-3.1929,-3.2073,-3.2526,-3.2579,-3.2196,-3.2437,-3.2553,-3.2504,-3.2699,-3.2938,-3.3259,-3.3277,-3.3277,-3.3277,-3.3277,-3.3098,-3.2795,-3.2939,-3.3001,-3.3001,-3.3001,-3.3001,-3.3001,-3.2876,-3.2795,-3.2795,-3.297,-3.3001,-3.3014,-3.3321,-3.3775,-3.4287,0.0,0.0,0.0,0.0,0.0,-1.5836,-1.46,-1.5278,-1.5613,-1.4726,-1.5391,-1.6165,-1.6752,-1.7692,-1.8253,-1.81,-1.7918,0.0,0.0,0.0,0.0,0.0,0.0,0.0,0.0,0.0,-1.8085,-1.8187,-1.8135,-1.8175,0.0,0.0,0.0,0.0,0.0,0.0,0.0,0.0,0.0,0.0,0.0,0.0,0.0,0.0,0.0,0.0,0.0,0.0,0.0,0.0,0.0,0.0,0.0,0.0,0.0,0.0,-2.2337,-2.2028,-2.2311,-2.22,-2.2118,-2.286,-2.2249,-2.1598,0.0,-2.1351,-2.0483,-2.0005,-1.9975,-2.008,-2.015,-2.0614,-2.1456,-2.2879,-2.4464,-2.6185,-2.8252,-2.9738,0.0,0.0,0.0,-3.2123,-3.2732,-3.2553,-3.2473,-3.2806,-3.2911,-3.2806,-3.251,-3.2371,-3.2318,-3.2249,-3.2419,-3.2535,-3.2535,-3.2519,-3.2519,-3.2519,-3.2519,-3.2519,-3.2519,-3.2619,-3.2651,-3.2651,-3.2651,-3.2651,-3.2651,-3.2553,-3.2519,-3.2519,-3.2619,-3.2651,-3.2719,-3.3257,-3.3813,-3.4429,0.0,0.0,0.0,0.0,0.0,0.0,-1.4821,-1.583,-1.6278,-1.5063,-1.5991,-1.7093,-1.7888,-1.8165,-1.8594,-1.9309,-1.9127,0.0,0.0,0.0,0.0,0.0,0.0,0.0,0.0,0.0,-1.7782,-1.8592,-1.8187,-1.8305,-1.886,-1.8461,-1.845,-1.8673,0.0,0.0,0.0,0.0,0.0,0.0,0.0,0.0,0.0,0.0,0.0,0.0,0.0,0.0,0.0,0.0,0.0,0.0,0.0,0.0,0.0,0.0,-2.167,-2.2567,-2.1973,-2.204,-2.2342,-2.2655,-2.2296,-2.1903,0.0,-2.1471,-2.091,-2.0238,-2.0061,-2.0076,-2.027,-2.0797,-2.1564,-2.2723,-2.4596,-2.6568,-2.8535,-2.9257,0.0,0.0,0.0,-3.1257,-3.2664,-3.3223,-3.3756,-3.4416,-3.3177,-3.2687,-3.3369,-3.2634,-3.2179,-3.2108,-3.1984,-3.1894,-3.1894,-3.1856,-3.18,-3.18,-3.18,-3.18,-3.1837,-3.2144,-3.2318,-3.2318,-3.2318,-3.2318,-3.2283,-3.1965,-3.18,-3.1819,-3.2197,-3.2318,-3.244,-3.359,-3.3993,-3.4207,0.0,0.0,0.0,0.0,0.0,0.0,0.0,-1.5775,-1.5935,-1.5574,-1.5863,-1.6575,-1.7786,-1.847,-1.9142,-1.9811,-1.9641,0.0,0.0,0.0,0.0,0.0,0.0,0.0,0.0,0.0,-1.9009,-1.9273,-1.9103,-1.914,-1.9398,-1.9236,-1.9273,-1.9376,-1.9391,0.0,0.0,0.0,0.0,0.0,0.0,0.0,0.0,0.0,0.0,0.0,0.0,0.0,0.0,0.0,0.0,0.0,0.0,0.0,0.0,0.0,0.0,0.0,-2.2204,-2.1891,-2.1435,-2.1843,-2.1484,-2.1183,-2.1799,-2.1054,-2.0238,-2.0285,-2.0185,-2.008,-2.015,-2.0514,-2.1502,-2.3718,-2.4575,0.0,0.0,0.0,0.0,-3.087,-3.1722,-3.2328,-3.2383,-3.3579,-3.3968,-3.3143,-3.3125,-3.302,-3.2739,-3.2494,-3.2232,-3.1984,-3.193,-3.1875,-3.1819,-3.18,-3.18,-3.18,-3.18,-3.18,-3.18,-3.1893,-3.1965,-3.1965,-3.1965,-3.1965,-3.1965,-3.1819,-3.18,-3.18,-3.1929,-3.2277,-3.2782,-3.3317,-3.4252,-3.526,0.0,0.0,0.0,0.0,0.0,0.0,0.0,-1.5903,-1.5911,-1.5958,-1.6128,-1.6602,-1.7565,-1.8522,-1.928,-1.9758,-2.0185,0.0,0.0,0.0,0.0,0.0,0.0,0.0,0.0,-1.9515,-1.9758,-1.9899,-1.9687,-1.9737,-1.9934,-1.9778,-1.9798,-1.9904,-1.9864,0.0,0.0,0.0,0.0,0.0,0.0,0.0,0.0,0.0,0.0,0.0,0.0,0.0,0.0,0.0,0.0,0.0,0.0,0.0,0.0,0.0,-2.0714,0.0,0.0,-2.1856,-2.1464,-2.1844,-2.1584,-2.1341,-2.1889,-2.1194,-2.0441,-2.0438,-2.0239,-2.0115,-2.0185,-2.0563,-2.1519,-2.3468,-2.4243,0.0,0.0,0.0,0.0,-3.1545,-3.2483,-3.2993,-3.2615,-3.3598,-3.3968,-3.3318,-3.3143,-3.3125,-3.3248,-3.2985,-3.2826,-3.2871,-3.2279,-3.2086,-3.2325,-3.1975,-3.1746,-3.1709,-3.1709,-3.1709,-3.1688,-3.1709,-3.1709,-3.1709,-3.18,-3.1955,0.0,-3.2214,-3.2386,-3.2662,-3.2662,-3.2938,-3.3425,-3.3856,-3.4666,-3.5531,0.0,0.0,0.0,0.0,0.0,0.0,0.0,-1.6166,-1.6189,-1.6259,-1.6702,-1.709,-1.7322,-1.8405,-1.9192,-1.9381,0.0,0.0,0.0,0.0,0.0,0.0,0.0,0.0,0.0,-1.9971,-2.0158,-2.0478,-2.007,-2.012,-2.0561,-2.0158,-2.0143,-2.0382,-2.0108,-2.0296,0.0,0.0,0.0,0.0,0.0,0.0,0.0,0.0,0.0,0.0,0.0,0.0,0.0,0.0,0.0,0.0,0.0,0.0,0.0,0.0,0.0,0.0,0.0,0.0,0.0,-2.2256,-2.2221,-2.2086,-2.1957,-2.1713,0.0,-2.0668,-2.0342,-2.022,-2.04,-2.0925,-2.1678,-2.2638,-2.3933,0.0,0.0,-3.0541,0.0,0.0,-3.3188,-3.3136,-3.3066,-3.3264,-3.3722,-3.4477,-3.3213,-3.3038,-3.453,-3.3915,-3.3825,-3.4556,-3.3085,-3.2577,-3.3273,-3.2412,-3.1918,-3.1788,-3.1788,-3.1768,-3.1671,-3.1751,-3.1788,-3.1771,-3.1918,-3.2352,-3.299,-3.299,-3.3421,-3.4093,-3.4093,-3.4111,-3.4249,-3.4938,-3.5197,-3.518,0.0,0.0,0.0,0.0,0.0,0.0,0.0,0.0,0.0,0.0,-1.701,-1.7319,-1.7915,-1.8708,-1.9471,0.0,0.0,0.0,0.0,0.0,0.0,0.0,0.0,0.0,0.0,-2.0959,-2.0942,-2.1087,-2.0958,-2.0958,-2.1119,-2.1007,-2.1023,-2.1134,-2.0974,-2.0958,0.0,0.0,0.0,0.0,0.0,0.0,0.0,0.0,0.0,0.0,-2.4022,-2.3338,0.0,0.0,0.0,0.0,0.0,0.0,0.0,0.0,-2.1804,-2.1617,-2.1974,0.0,-2.0649,-2.0721,-2.0969,-2.1252,0.0,-2.1158,-2.0933,0.0,0.0,0.0,0.0,0.0,0.0,-2.536,0.0,-2.632,-3.0307,0.0,0.0,-3.3335,-3.2932,-3.2336,-3.1723,-3.2248,-3.2739,-3.2932,-3.2599,-3.2809,-3.374,-3.3599,-3.409,-3.5378,-3.4411,-3.388,-3.396,-3.3706,-3.3542,-3.3503,-3.3503,-3.3503,-3.3481,-3.3503,-3.3503,-3.3503,-3.3559,-3.3645,-3.3818,-3.3818,-3.3921,-3.4093,-3.4093,-3.4438,-3.4956,-3.5128,-3.5197,-3.5111,0.0,0.0,0.0,0.0,0.0,0.0,0.0,0.0,0.0,0.0,0.0,0.0,0.0,0.0,0.0,0.0,0.0,0.0,0.0,0.0,0.0,0.0,0.0,0.0,-2.1386,-2.134,-2.1277,-2.1309,-2.123,-2.1085,-2.0855,-2.1117,-2.1147,-2.0977,-2.1738,-2.1853,0.0,0.0,0.0,0.0,0.0,0.0,0.0,0.0,0.0,0.0,-2.3422,-2.3105,0.0,-2.2743,-2.268,-2.2517,0.0,0.0,0.0,0.0,-2.201,-2.2027,-2.2096,-2.1579,-2.1086,-2.1118,-2.1565,-2.1931,0.0,0.0,0.0,0.0,0.0,0.0,0.0,0.0,0.0,0.0,-2.6004,0.0,0.0,0.0,-3.2125,-3.2915,-3.2318,-3.1809,-3.1756,-3.2142,-3.2406,-3.2406,-3.2722,-3.3213,-3.393,-3.4298,-3.5014,-3.612,-3.5658,-3.5179,-3.4753,-3.4328,-3.4076,-3.3997,-3.3997,-3.4019,-3.4019,-3.4019,-3.4037,-3.4093,-3.4093,-3.4283,-3.4594,-3.4594,-3.4783,-3.5111,-3.5111,-3.5335,-3.5697,-3.5697,-3.549,-3.5076,0.0,0.0,0.0,0.0,0.0,0.0,0.0,0.0,0.0,0.0,0.0,0.0,0.0,0.0,0.0,0.0,0.0,0.0,0.0,0.0,0.0,0.0,0.0,-2.1511,-2.1386,-2.1562,-2.15,-2.1277,-2.1325,-2.103,-2.0364,-2.0919,-2.0996,-2.0721,-2.2269,-2.2528,0.0,0.0,0.0,0.0,0.0,0.0,0.0,0.0,0.0,0.0,0.0,0.0,0.0,-2.2535,-2.2716,-2.305,-2.2298,0.0,0.0,0.0,0.0,0.0,-2.2169,-2.2378,-2.257,-2.2395,-2.2823,-2.3144,0.0,0.0,0.0,0.0,0.0,0.0,0.0,0.0,0.0,0.0,0.0,0.0,-3.1301,-3.163,-3.1925,-3.2629,-3.2117,-3.187,-3.2329,-3.2576,-3.2717,-3.2717,-3.3371,-3.4057,-3.4812,-3.5364,-3.6003,-3.6748,-3.6585,-3.6191,-3.555,-3.4789,-3.4381,-3.4283,-3.4283,-3.4306,-3.4289,-3.4324,-3.4381,-3.4478,-3.4478,-3.4823,-3.537,-3.537,-3.5732,-3.6301,-3.6301,-3.6301,-3.6301,-3.6301,-3.5766,-3.4904,0.0,0.0,0.0,0.0,0.0,0.0,0.0,0.0,0.0,0.0,0.0,0.0,0.0,0.0,0.0,0.0,0.0,0.0,0.0,0.0,0.0,0.0,-2.1371,-2.1386,-2.1309,-2.2192,-2.2177,-2.1215,-2.1777,-2.154,-2.0558,-2.0961,-2.1373,-2.1859,-2.2135,-2.2185,-2.2068,0.0,0.0,0.0,0.0,0.0,0.0,0.0,0.0,0.0,0.0,0.0,0.0,-2.3763,-2.3537,-2.2989,-2.2885,0.0,0.0,0.0,0.0,0.0,-2.2927,-2.3877,-2.4587,-2.3291,-2.3046,-2.3294,0.0,0.0,0.0,0.0,0.0,0.0,0.0,0.0,-2.5767,0.0,0.0,-3.0765,-3.3268,-3.3636,-3.377,-3.4145,-3.4086,-3.3527,-3.2354,-3.3418,-3.4163,-3.4119,-3.4579,-3.5295,-3.6306,-3.5837,-3.6007,-3.7013,-3.669,-3.6392,-3.617,-3.6025,-3.5956,-3.5914,-3.6056,-3.6098,-3.6098,-3.6214,-3.6214,-3.6115,-3.6115,-3.6125,-3.6128,-3.6128,-3.6197,-3.6301,-3.6301,-3.6301,-3.6301,-3.6301,-3.5439,-3.4059,0.0,0.0,0.0,0.0,0.0,0.0,0.0,0.0,0.0,0.0,0.0,0.0,0.0,0.0,0.0,0.0,0.0,0.0,0.0,0.0,0.0,-2.1718,-2.2205,-2.2209,-2.1587,-2.1832,-2.1707,-2.116,-2.0983,-2.0478,-1.9636,-2.0237,-2.11,-2.2181,-2.2756,-2.2794,-2.2453,-2.3055,0.0,0.0,0.0,0.0,0.0,0.0,0.0,0.0,0.0,0.0,0.0,0.0,-2.4682,-2.3969,-2.3975,0.0,0.0,0.0,0.0,0.0,-2.3445,-2.3886,-2.4451,-2.4962,-2.534,-2.5695,0.0,0.0,0.0,0.0,0.0,0.0,0.0,0.0,-2.8483,-3.0533,0.0,-3.0665,-3.3327,-3.3352,-3.3448,-3.4419,-3.4528,-3.4389,-3.4069,-3.4653,-3.5024,-3.4993,-3.5585,-3.6127,-3.6588,-3.6666,-3.6872,-3.7283,-3.715,-3.6917,-3.6638,-3.6638,-3.6533,-3.6301,-3.6444,-3.6544,-3.6602,-3.6643,-3.6684,-3.6667,-3.6626,-3.6544,-3.6502,-3.6502,-3.6502,-3.6502,-3.6502,-3.6444,-3.6298,-3.5445,-3.468,-3.3869,0.0,0.0,0.0,0.0,0.0,0.0,0.0,0.0,0.0,0.0,0.0,0.0,0.0,0.0,0.0,0.0,0.0,0.0,0.0,0.0,-2.2192,-2.2164,-2.2869,-2.2721,-2.162,-2.1725,-2.1477,-2.081,-2.0281,-1.9762,-1.9273,-1.9918,-2.102,-2.2446,-2.348,-2.3492,-2.2868,-2.3901,-2.4363,0.0,0.0,0.0,0.0,0.0,0.0,0.0,0.0,0.0,0.0,0.0,0.0,0.0,0.0,0.0,0.0,-2.3671,-2.3671,-2.3692,-2.3774,-2.3916,-2.4468,-2.6195,0.0,-2.711,-2.7992,0.0,0.0,0.0,0.0,0.0,0.0,-2.8717,0.0,-3.2089,-3.107,-3.0926,-3.3419,-3.3385,-3.3595,-3.4911,-3.518,-3.5393,-3.5781,-3.5937,-3.6014,-3.5983,-3.6645,-3.703,-3.7012,-3.7416,-3.765,-3.765,-3.7542,-3.7358,-3.7055,-3.7055,-3.6821,-3.6451,-3.6568,-3.669,-3.6829,-3.6846,-3.6829,-3.6788,-3.6766,-3.6684,-3.6702,-3.6702,-3.6702,-3.6702,-3.6702,-3.6643,-3.6353,-3.4765,-3.4155,-3.3926,0.0,0.0,0.0,0.0,0.0,0.0,0.0,0.0,0.0,0.0,0.0,0.0,0.0,0.0,0.0,0.0,0.0,0.0,0.0,0.0,-2.2164,-2.2124,-2.2515,-2.219,-2.1005,-2.2702,-2.2388,-1.9889,-2.0442,-2.0705,-2.0675,-2.0785,-2.1627,-2.3063,-2.3901,-2.3814,-2.313,-2.4158,-2.4575,-2.4528,0.0,0.0,0.0,0.0,0.0,0.0,0.0,0.0,0.0,0.0,0.0,0.0,0.0,0.0,-2.3522,-2.3588,-2.3628,-2.3649,-2.3756,-2.482,-2.5953,-2.611,0.0,0.0,-2.885,-2.8554,0.0,0.0,0.0,0.0,0.0,-2.9347,-3.0017,-3.0875,-3.1582,-3.2674,-3.4614,-3.542,-3.5991,-3.6426,-3.7064,-3.7192,-3.651,-3.7118,-3.7532,-3.7426,-3.7849,-3.8223,-3.8535,-3.7877,-3.7685,-3.8034,-3.7685,-3.7505,-3.7469,-3.7469,-3.7228,-3.686,-3.7013,-3.7091,-3.715,-3.7299,-3.7164,-3.6788,-3.6788,-3.6766,-3.6702,-3.6702,-3.6702,-3.6702,-3.6702,-3.6702,-3.651,-3.4961,-3.4293,-3.4094,0.0,0.0,0.0,0.0,0.0,0.0,0.0,0.0,0.0,0.0,0.0,0.0,0.0,0.0,0.0,0.0,0.0,0.0,0.0,0.0,-2.2069,-2.2044,-2.3093,-2.3041,-2.1623,-2.1857,-2.1255,-1.9745,-1.9983,-2.0375,-2.0864,-2.1356,-2.2125,-2.3137,-2.4134,-2.4093,-2.3401,-2.4423,-2.455,-2.4082,-2.3819,0.0,0.0,0.0,0.0,0.0,0.0,0.0,0.0,0.0,-2.4942,-2.413,0.0,-2.4421,-2.3961,-2.4077,-2.4039,-2.3999,-2.4153,-2.4411,-2.4974,-2.6235,0.0,0.0,0.0,0.0,0.0,0.0,-3.0808,0.0,0.0,0.0,-3.1936,-3.1973,-3.2638,-3.368,-3.5061,-3.5486,-3.6058,-3.7147,-3.7497,-3.7727,-3.7929,-3.8166,-3.829,-3.8309,-3.8425,-3.8578,-3.8707,-3.8401,-3.8336,-3.8483,-3.8336,-3.8135,-3.7879,-3.7879,-3.7809,-3.765,-3.7541,-3.7468,-3.7504,-3.7449,-3.7317,-3.7147,-3.7009,-3.6908,-3.6869,-3.6869,-3.6869,-3.6869,-3.6788,-3.6748,-3.6574,-3.4983,-3.4606,-3.477,0.0,0.0,0.0,0.0,0.0,0.0,0.0,0.0,0.0,0.0,0.0,0.0,0.0,0.0,0.0,0.0,0.0,0.0,-2.0182,-2.1073,-2.1731,-2.1995,-2.3003,-2.3091,-2.2037,-2.1268,-2.052,-1.9709,-1.9482,-1.9991,-2.1256,-2.1582,-2.2276,-2.3265,-2.4039,-2.41,-2.3634,-2.4375,-2.4387,-2.3896,-2.3899,-2.4326,0.0,0.0,0.0,0.0,0.0,0.0,0.0,0.0,-2.5424,0.0,0.0,0.0,0.0,-2.4334,-2.4282,-2.4247,-2.4339,-2.417,0.0,0.0,0.0,0.0,0.0,0.0,0.0,0.0,-3.1583,0.0,-3.1355,0.0,0.0,-3.2753,-3.3405,-3.4175,-3.4895,-3.5243,-3.5903,-3.7128,-3.7515,-3.7948,-3.8688,-3.8719,-3.8707,-3.8707,-3.8707,-3.8707,-3.8707,-3.8707,-3.8707,-3.8707,-3.8707,-3.8564,-3.8285,-3.8285,-3.8285,-3.8303,-3.8086,-3.7949,-3.788,-3.7757,-3.7631,-3.7522,-3.7223,-3.7185,-3.7223,-3.7087,-3.6987,-3.6987,-3.6908,-3.6851,-3.6711,-3.5322,-3.5122,-3.5357,0.0,0.0,0.0,0.0,0.0,0.0,0.0,0.0,0.0,0.0,0.0,0.0,0.0,0.0,0.0,0.0,0.0,0.0,-1.9691,-2.0389,-2.1141,-2.1949,-2.1978,-2.2019,-2.2019,-2.1308,-2.052,-1.9709,-1.8972,-1.9782,-2.1984,-2.1458,-2.2028,-2.3486,-2.3628,-2.3735,-2.3798,-2.3937,-2.4036,-2.4095,-2.4247,-2.4266,0.0,0.0,0.0,0.0,0.0,0.0,0.0,0.0,-2.4752,-2.4681,0.0,0.0,0.0,-2.4267,-2.4246,-2.4293,-2.432,-2.4302,0.0,0.0,0.0,0.0,0.0,0.0,0.0,0.0,0.0,-3.1391,-3.2336,-3.2127,-3.2061,-3.286,-3.3658,-3.4173,-3.4124,-3.4952,-3.5789,-3.6316,-3.7211,-3.8035,-3.8628,-3.8707,-3.8707,-3.8707,-3.8707,-3.8707,-3.8707,-3.8707,-3.8707,-3.8707,-3.8707,-3.8707,-3.8707,-3.8707,-3.8707,-3.8707,-3.8707,-3.8564,-3.8307,-3.8307,-3.8104,-3.7792,-3.7541,-3.7559,-3.7756,-3.7223,-3.7009,-3.697,-3.697,-3.697,-3.6882,-3.6092,-3.5752,-3.571,0.0,0.0,0.0,0.0,0.0,0.0,0.0,0.0,0.0,0.0,0.0,0.0,0.0,0.0,0.0,0.0,0.0,0.0,-1.8913,-1.9577,-2.0086,-2.0375,-2.1404,-2.2019,-2.2019,-2.1959,-2.1242,-1.9767,-2.021,-2.0766,-2.1455,-2.2375,-2.2497,-2.2008,-2.3166,-2.3161,-2.2336,-2.3639,-2.3897,-2.3473,-2.4169,-2.4426,0.0,0.0,0.0,0.0,0.0,0.0,0.0,0.0,0.0,0.0,0.0,0.0,0.0,-2.4714,-2.4504,-2.4564,-2.5804,0.0,0.0,0.0,0.0,0.0,0.0,0.0,0.0,0.0,-3.2918,-3.2502,-3.2736,-3.3173,-3.338,-3.3045,-3.3653,-3.4099,-3.4049,-3.4252,-3.4715,-3.5581,-3.6325,-3.7081,-3.7988,-3.8501,-3.875,-3.8707,-3.878,-3.8822,-3.8762,-3.8822,-3.8851,-3.8851,-3.8792,-3.8762,-3.8762,-3.8762,-3.875,-3.8707,-3.875,-3.8701,-3.8564,-3.8405,-3.8274,-3.8104,-3.7613,-3.7559,-3.7792,-3.7411,-3.6529,-3.5478,-3.6488,-3.6536,-3.6046,-3.5706,-3.5946,-3.6324,0.0,0.0,0.0,0.0,0.0,0.0,0.0,0.0,0.0,0.0,0.0,0.0,0.0,0.0,0.0,0.0,0.0,0.0,0.0,0.0,-1.9595,-2.0339,-2.1277,-2.1914,-2.2234,-2.2407,-2.1965,-2.0912,-2.0854,-2.1087,-2.1611,-2.2096,-2.194,-2.1327,-2.2152,-2.2228,-2.1801,-2.2617,-2.2852,-2.2776,-2.3708,-2.4057,-2.411,0.0,0.0,0.0,0.0,0.0,0.0,0.0,0.0,0.0,0.0,0.0,0.0,-2.504,-2.4885,-2.4891,-2.5724,0.0,0.0,0.0,0.0,0.0,0.0,0.0,0.0,0.0,-3.3635,-3.3425,-3.3376,-3.379,-3.4006,-3.3523,-3.3784,-3.4049,-3.3972,-3.4023,-3.4345,-3.5132,-3.5678,-3.6306,-3.7156,-3.7931,-3.8343,-3.8302,-3.8667,-3.8862,-3.8833,-3.8881,-3.891,-3.891,-3.8881,-3.8851,-3.8851,-3.8851,-3.8822,-3.878,-3.8792,-3.8792,-3.8719,-3.8533,-3.8405,-3.8274,-3.7915,-3.7721,-3.765,-3.7577,-3.675,-3.5612,-3.6462,-3.6509,-3.6085,-3.6028,-3.6324,-3.6655,0.0,0.0,0.0,0.0,0.0,0.0,0.0,0.0,0.0,0.0,0.0,0.0,0.0,0.0,0.0,0.0,0.0,0.0,0.0,0.0,-1.9487,-2.1204,-2.1439,-2.1872,-2.2684,-2.2723,-2.2723,-2.2723,-2.1189,-2.1024,-2.2128,-2.1098,-2.0806,-2.1131,-2.0811,-2.1078,-2.1739,-2.1156,-2.133,-2.2092,-2.2951,-2.3318,-2.3408,-2.4294,0.0,0.0,0.0,0.0,0.0,0.0,0.0,0.0,-2.5288,0.0,-2.5214,-2.5263,-2.5458,-2.548,0.0,0.0,0.0,0.0,0.0,0.0,0.0,0.0,-3.4099,-3.4099,0.0,-3.4099,-3.4099,-3.4099,-3.4099,-3.4099,-3.4023,-3.3972,-3.3895,-3.4099,-3.4427,-3.4898,-3.5258,-3.5688,-3.627,-3.7091,-3.7599,-3.7599,-3.8264,-3.8718,-3.8689,-3.8792,-3.8828,-3.8828,-3.8855,-3.891,-3.891,-3.891,-3.891,-3.891,-3.8833,-3.8822,-3.8822,-3.8719,-3.8533,-3.8307,-3.8307,-3.7931,-3.7323,-3.7614,-3.7305,-3.6579,-3.6736,-3.6713,-3.6597,-3.6667,-3.6725,-3.6771,0.0,0.0,0.0,0.0,0.0,0.0,0.0,0.0,0.0,0.0,0.0,0.0,0.0,0.0,0.0,0.0,0.0,0.0,0.0,0.0,-1.9327,-2.0409,-2.1616,-2.2623,-2.3358,-2.3642,-2.3741,-2.3701,-2.2154,-2.1532,-2.1808,-2.1569,-2.0921,-1.9988,-2.0266,-2.0323,-2.022,-2.0653,-2.0989,-2.1322,-2.225,-2.2609,-2.2729,-2.3763,-2.4014,0.0,0.0,0.0,0.0,0.0,0.0,0.0,-2.5233,-2.5206,-2.5206,-2.5225,-2.6635,-2.7629,0.0,0.0,0.0,0.0,0.0,0.0,0.0,-3.4148,-3.4124,-3.4173,-3.4173,-3.4173,-3.4124,-3.4099,-3.4074,-3.4023,-3.3972,-3.3921,-3.3895,-3.3895,-3.4028,-3.4414,-3.4881,-3.5343,-3.5733,-3.643,-3.6823,-3.6768,-3.7025,-3.7145,-3.7109,-3.7738,-3.8118,-3.8118,-3.8674,-3.8979,-3.8979,-3.8979,-3.895,-3.891,-3.8921,-3.8921,-3.8862,-3.875,-3.8533,-3.8307,-3.8307,-3.7625,-3.6576,-3.709,-3.6406,-3.5116,-3.6295,-3.6319,-3.5832,-3.6475,-3.6725,-3.6701,0.0,0.0,0.0,0.0,0.0,0.0,0.0,0.0,0.0,0.0,0.0,0.0,0.0,0.0,0.0,0.0,0.0,0.0,0.0,0.0,-1.9659,-2.0965,-2.2575,-2.3417,-2.3358,-2.4026,-2.4153,-2.3658,-2.2613,-2.1934,-2.1642,-2.1424,-2.0637,-1.9456,-1.9874,-1.9931,-1.977,-2.022,-2.0469,-2.0604,-2.154,-2.1907,-2.2034,-2.3006,-2.3457,-2.3694,-2.4849,0.0,0.0,0.0,0.0,0.0,0.0,0.0,-2.5191,-2.519,-2.6132,-2.7074,0.0,0.0,0.0,0.0,0.0,0.0,0.0,-3.4124,-3.4099,-3.4099,-3.4099,-3.4099,-3.4074,-3.4023,-3.3998,-3.3947,-3.3921,-3.3895,-3.386,-3.3868,-3.3947,-3.4099,-3.4393,-3.4696,-3.4853,-3.5602,-3.6051,-3.6025,-3.6456,-3.6686,-3.6652,-3.7068,-3.7503,-3.7894,-3.8275,-3.8674,-3.9045,-3.9064,-3.9036,-3.9007,-3.9007,-3.895,-3.8892,-3.867,-3.8483,-3.8354,-3.8138,-3.7594,-3.686,-3.7159,-3.6632,-3.5692,-3.6434,-3.6481,-3.6127,-3.6545,-3.6725,-3.6776,0.0,0.0,0.0,0.0,0.0,0.0,0.0,0.0,0.0,0.0,0.0,0.0,0.0,0.0,0.0,0.0,0.0,0.0,0.0,-1.9501,-2.0319,-2.19,-2.3484,-2.4025,-2.3403,-2.4129,-2.4122,-2.3329,-2.2912,-2.2367,0.0,0.0,-2.0247,-1.9425,-1.9682,-1.9821,-1.9866,-1.996,-2.0011,-2.0098,-2.0881,-2.1186,-2.1281,-2.2221,-2.2777,-2.3218,-2.4716,-2.5243,-2.5201,-2.5195,0.0,0.0,0.0,0.0,-2.521,-2.5189,-2.5205,-2.5649,0.0,0.0,0.0,0.0,0.0,0.0,0.0,-3.4099,-3.4049,-3.3998,-3.3998,-3.3998,-3.3972,-3.3947,-3.3895,-3.3868,-3.3895,-3.3868,-3.3834,-3.3921,-3.3972,-3.3921,-3.4023,-3.4099,-3.4099,-3.4822,-3.5274,-3.5274,-3.5887,-3.6259,-3.6259,-3.6408,-3.6798,-3.7448,-3.7615,-3.8079,-3.8897,-3.8897,-3.8952,-3.9101,-3.9045,-3.8979,-3.8921,-3.8572,-3.8415,-3.8382,-3.7982,-3.765,-3.7374,-3.7317,-3.7087,-3.6788,-3.6788,-3.6748,-3.6725,-3.6725,-3.6806,-3.6794,0.0,0.0,0.0,0.0,0.0,0.0,0.0,0.0,0.0,0.0,0.0,-1.9301,-1.9178,-1.9427,0.0,0.0,0.0,0.0,-1.9787,0.0,0.0,-2.2211,-2.3143,-2.3917,-2.4563,-2.4028,-2.3663,-2.3477,-2.3525,0.0,0.0,0.0,0.0,-1.9821,-1.9804,-1.9904,-2.006,-2.0029,-2.0069,-2.0186,-2.0304,-2.0359,-2.0491,-2.165,-2.1529,-2.1168,-2.4332,-2.5341,-2.5207,-2.5201,-2.5197,0.0,0.0,0.0,-2.5206,-2.5194,-2.5196,0.0,0.0,0.0,0.0,0.0,0.0,0.0,0.0,0.0,-3.3921,-3.3921,-3.3947,-3.3972,-3.3921,-3.3895,-3.3868,-3.3815,-3.3868,-3.3895,-3.3895,-3.3947,-3.3998,-3.3998,-3.4049,-3.4099,-3.4099,-3.4284,-3.4364,-3.4364,-3.4476,-3.4531,-3.4531,-3.5237,-3.5702,-3.5813,-3.65,-3.7243,-3.8042,-3.8061,-3.8414,-3.9101,-3.9101,-3.9073,-3.9073,-3.8664,-3.8446,-3.8382,-3.8032,-3.7721,-3.7356,-3.7031,-3.6851,-3.6788,-3.6788,-3.6788,-3.6788,-3.6908,-3.6987,-3.6882,0.0,0.0,0.0,0.0,0.0,0.0,0.0,0.0,0.0,0.0,0.0,-1.9638,-1.9545,-1.9701,0.0,0.0,0.0,0.0,-1.9277,-2.0494,0.0,0.0,-2.279,-2.3132,-2.3449,-2.3225,-2.2827,-2.2274,0.0,0.0,0.0,-2.1378,-2.1044,0.0,0.0,0.0,-2.0842,-2.0327,-2.0173,-2.026,-2.0271,-2.0285,-2.0369,-2.09,-2.0792,-2.0566,-2.2098,-2.3758,-2.5282,-2.5432,-2.536,-2.5229,-2.5432,0.0,0.0,0.0,0.0,0.0,0.0,0.0,0.0,0.0,0.0,0.0,0.0,0.0,-3.4124,-3.4074,-3.3972,-3.3868,-3.3842,-3.3868,-3.3895,-3.3842,-3.3947,-3.3998,-3.3947,-3.4049,-3.4099,-3.4074,-3.4074,-3.4124,-3.4148,-3.4148,-3.4173,-3.4197,-3.4197,-3.4197,-3.4197,-3.4426,-3.4747,-3.519,-3.5386,-3.5871,-3.6714,-3.7136,-3.7759,-3.8535,-3.8535,-3.8535,-3.8535,-3.8364,-3.8267,-3.8201,-3.7791,-3.745,-3.7147,-3.697,-3.6908,-3.6908,-3.6908,-3.6908,-3.6908,-3.6987,-3.6987,-3.6935,0.0,0.0,0.0,0.0,0.0,0.0,0.0,0.0,0.0,0.0,0.0,0.0,-1.9862,0.0,0.0,0.0,0.0,0.0,-1.9226,0.0,0.0,0.0,0.0,-2.2661,-2.2556,-2.2695,-2.2315,0.0,0.0,0.0,-2.2361,-2.2103,-2.2222,0.0,-2.1874,-2.1402,0.0,-2.0532,-2.0282,-2.0365,-2.0812,-2.0753,-2.0507,-2.1369,-2.1152,-2.0385,-2.0429,-2.259,-2.5434,-2.5628,-2.5538,-2.5363,-2.5614,-2.5689,0.0,0.0,0.0,0.0,0.0,0.0,0.0,0.0,0.0,0.0,0.0,0.0,-3.4269,-3.4221,-3.3998,-3.3807,-3.3815,-3.3842,-3.3868,-3.3868,-3.3998,-3.4049,-3.3998,-3.4124,-3.4173,-3.4099,-3.4049,-3.4049,-3.4074,-3.3972,-3.3928,-3.3979,-3.3979,-3.3979,-3.4005,-3.3797,-3.3954,-3.4568,-3.4338,-3.4619,-3.5452,-3.6413,-3.721,-3.7794,-3.7993,-3.8101,-3.8101,-3.7982,-3.7948,-3.7913,-3.7596,-3.7243,-3.6987,-3.6987,-3.6987,-3.6987,-3.6987,-3.6987,-3.6987,-3.6987,-3.6987,-3.693,0.0,0.0,0.0,0.0,0.0,0.0,0.0,0.0,0.0,0.0,0.0,0.0,0.0,0.0,-1.9734,-1.8865,0.0,0.0,0.0,0.0,0.0,0.0,0.0,0.0,-2.2965,-2.2984,-2.2561,0.0,0.0,0.0,-2.1759,-2.2566,-2.2939,-2.2946,-2.1938,-2.1105,-2.0446,-2.0403,-2.0395,-2.0539,-2.2197,-2.1878,-2.0768,-2.4078,-2.3231,-2.0336,-2.0524,-2.2785,-2.5683,-2.5692,-2.5698,-2.5683,-2.5696,-2.5707,-2.5701,0.0,0.0,0.0,0.0,0.0,0.0,0.0,0.0,0.0,0.0,0.0,-3.4197,-3.4197,-3.3998,-3.3815,-3.3868,-3.386,-3.3807,-3.3807,-3.3921,-3.3998,-3.3998,-3.4124,-3.4173,-3.4099,-3.3921,-3.3788,-3.3726,-3.3494,-3.335,-3.335,-3.335,-3.3361,-3.3447,-3.3361,-3.335,-3.3473,-3.3404,-3.3755,-3.4552,-3.6123,-3.692,-3.6975,-3.7739,-3.8101,-3.8101,-3.7703,-3.7542,-3.7542,-3.7505,-3.7301,-3.6987,-3.6987,-3.6987,-3.6987,-3.6987,-3.6987,-3.6987,-3.6987,-3.6908,-3.6829,0.0,0.0,0.0,0.0,0.0,0.0,0.0,0.0,0.0,0.0,0.0,0.0,0.0,-2.0246,-1.9966,-1.9136,-1.9389,0.0,0.0,0.0,0.0,0.0,0.0,0.0,0.0,-2.1959,0.0,0.0,0.0,-2.1184,-2.1701,-2.2012,-2.2168,-2.215,-2.1785,-2.1487,-2.1211,-2.0637,-2.0417,-2.0621,-2.2356,-2.2059,-2.0901,-2.4355,-2.6243,-2.7043,-2.7121,-2.652,-2.5701,-2.5699,-2.5694,-2.5696,-2.5704,-2.569,-2.5703,-2.5707,-2.5702,0.0,0.0,0.0,0.0,0.0,0.0,-3.3298,-3.4132,-3.4491,-3.4609,-3.4439,-3.425,-3.4074,-3.3921,-3.3921,-3.3947,-3.3998,-3.4074,-3.4074,-3.3895,-3.3921,-3.385,-3.3616,-3.3494,-3.3408,-3.3437,-3.3321,-3.3262,-3.3291,-3.3291,-3.3321,-3.3332,-3.3124,-3.2983,-3.3014,-3.2816,-3.3077,-3.3857,-3.4408,-3.5208,-3.6221,-3.6469,-3.6914,-3.7411,-3.7243,-3.7185,-3.7185,-3.7185,-3.7108,-3.6987,-3.6987,-3.6987,-3.6987,-3.6987,-3.6987,-3.6987,-3.6891,-3.6829,-3.6788,0.0,0.0,0.0,0.0,0.0,0.0,0.0,0.0,0.0,-2.0203,0.0,0.0,0.0,0.0,-2.0216,-1.9681,-1.9122,-1.9046,-1.9626,-1.9942,0.0,0.0,0.0,0.0,0.0,0.0,0.0,0.0,0.0,0.0,0.0,-2.1302,-2.1299,-2.1291,-2.1317,-2.1318,0.0,-2.0694,-2.048,-2.0698,-2.2627,-2.2957,-2.2693,-2.6115,-2.8106,-2.924,-3.038,-2.9342,-2.7242,-2.6095,-2.5709,-2.5709,-2.5709,-2.5709,-2.5709,-2.5691,-2.5701,-2.592,-2.6997,0.0,0.0,0.0,0.0,-3.1943,-3.3295,-3.3838,-3.4169,-3.4561,-3.4435,-3.4221,-3.4074,-3.4023,-3.4023,-3.4074,-3.4049,-3.3972,-3.3807,-3.368,-3.355,-3.3321,-3.3172,-3.3081,-3.3124,-3.2988,-3.2961,-3.3006,-3.3006,-3.3006,-3.3019,-3.2798,-3.2687,-3.2687,-3.2507,-3.2634,-3.3125,-3.3371,-3.4003,-3.5039,-3.5565,-3.6092,-3.6601,-3.6865,-3.6987,-3.6987,-3.6987,-3.6987,-3.6987,-3.6987,-3.6987,-3.6987,-3.6987,-3.6987,-3.697,-3.6869,-3.6788,-3.6748,0.0,0.0,0.0,0.0,0.0,0.0,0.0,0.0,-2.0398,-2.0408,0.0,0.0,0.0,0.0,0.0,-2.0496,-1.9004,-1.8793,-2.0497,-1.9814,0.0,0.0,0.0,0.0,0.0,0.0,0.0,0.0,0.0,0.0,0.0,0.0,-2.0495,-2.0499,-2.0566,-2.0562,-2.0506,-2.0573,-2.062,-2.085,-2.309,-2.4749,-2.6216,-2.9535,-2.8676,-2.6138,-2.9453,-3.0719,-3.0289,-2.6972,-2.578,-2.5694,-2.5709,-2.5707,-2.5709,-2.5691,-2.5696,-2.5698,0.0,0.0,0.0,0.0,0.0,0.0,-3.2187,-3.2561,-3.2836,-3.4529,-3.4508,-3.4208,-3.4293,-3.4148,-3.3998,-3.3998,-3.3842,-3.3726,-3.3698,-3.3484,-3.3321,-3.3291,-3.3001,-3.2795,-3.2763,-3.2557,-3.2406,-3.2406,-3.2406,-3.2422,-3.2507,-3.2457,-3.2406,-3.2406,-3.2406,-3.2406,-3.2406,-3.309,-3.3459,-3.3512,-3.5021,-3.572,-3.5773,-3.6584,-3.6952,-3.6952,-3.697,-3.6987,-3.6987,-3.697,-3.6987,-3.6987,-3.6987,-3.697,-3.6987,-3.6829,-3.6748,-3.6643,0.0,0.0,0.0,0.0,0.0,-2.2921,-2.297,-2.1549,-2.0465,0.0,0.0,0.0,-2.0506,-2.0503,-2.0508,-2.0507,-2.0077,-2.0014,-2.05,-2.0291,-2.0271,-2.0516,-2.0734,-2.1461,-2.2733,0.0,0.0,0.0,0.0,0.0,-2.0448,-2.0432,-2.0435,-2.0431,-2.0497,-2.0492,-2.0425,-2.0504,-2.1006,-2.1874,-2.3339,-2.6113,-2.9488,-3.0449,-2.8672,-2.5819,-2.6765,-2.8678,-3.0597,-2.9686,-2.7754,-2.5703,-2.5694,-2.5662,-2.5644,-2.5696,-2.5691,-2.5694,-2.5701,0.0,0.0,0.0,0.0,0.0,-3.0728,-3.1531,-3.231,-3.3813,-3.3996,-3.3997,-3.4232,-3.4293,-3.4221,-3.4023,-3.4023,-3.3998,-3.3807,-3.3671,-3.3408,-3.2908,-3.2781,-3.2636,-3.2386,-3.2405,-3.2406,-3.2406,-3.2406,-3.2406,-3.2422,-3.2388,-3.2406,-3.2406,-3.2055,-3.2055,-3.2406,-3.2264,-3.263,-3.3529,-3.3914,-3.4294,-3.4584,-3.5312,-3.548,-3.5223,-3.6084,-3.6509,-3.6509,-3.6851,-3.6987,-3.6987,-3.6891,-3.6869,-3.6811,-3.6667,-3.6585,-3.6544,0.0,0.0,0.0,0.0,-2.384,-2.2836,-2.252,-2.1346,-2.05,0.0,0.0,0.0,-2.0508,-2.0792,-2.0876,-2.0527,-2.0494,-2.0506,-2.0492,-2.0499,-2.0501,-2.0497,-2.0494,-2.1147,-2.2531,-2.2057,-2.2218,0.0,-2.2154,-2.1629,-2.1462,-2.0744,-2.0585,-2.0934,-2.0624,-2.0457,-2.0395,-2.0434,-2.0853,-2.1558,-2.2236,-2.4993,-2.8971,-3.1831,-3.0793,-2.7984,-2.9429,-3.1184,-3.2407,-2.9584,-2.7327,-2.5694,-2.5637,-2.5615,-2.5609,-2.5659,-2.5683,-2.5709,-2.5699,-2.5703,-2.5801,-2.623,0.0,0.0,-2.9981,-3.0846,-3.1782,-3.3929,-3.4327,-3.432,-3.4494,-3.4454,-3.4293,-3.4124,-3.4074,-3.3998,-3.3753,-3.3559,-3.328,-3.2766,-3.2702,-3.2588,-3.2301,-3.2301,-3.2319,-3.2319,-3.2319,-3.2354,-3.2406,-3.2406,-3.2319,-3.2108,-3.1841,-3.1841,-3.2108,-3.1858,-3.2066,-3.2753,-3.3084,-3.328,-3.3379,-3.4059,-3.4448,-3.4558,-3.5215,-3.5737,-3.6028,-3.6451,-3.6713,-3.6908,-3.6788,-3.6766,-3.6748,-3.6585,-3.6502,-3.6502,0.0,0.0,-2.5117,-2.4354,-2.354,-2.2702,-2.1835,-2.1022,-2.0506,0.0,-2.0581,-2.0671,-2.0768,-2.1324,-2.1445,-2.0825,-2.0597,-2.0535,-2.0627,-2.0535,-2.0483,-2.0489,-2.0497,-2.0892,-2.1774,-2.1881,-2.2282,-2.2993,-2.2314,-2.228,-2.2799,-2.1266,-2.0895,-2.1513,-2.0803,-2.0467,-2.0404,-2.0405,-2.0432,-2.0486,-2.0547,-2.2621,-2.6388,-3.2875,-3.3646,-3.1668,-3.4783,-3.5851,-3.4862,-2.8783,-2.6777,-2.6665,-2.58,-2.5819,-2.608,-2.5706,-2.5845,-2.6087,-2.589,-2.5895,-2.5957,-2.5879,-2.584,0.0,-2.9454,-3.0052,-3.0878,-3.3921,-3.448,-3.4433,-3.451,-3.4216,-3.3971,-3.3985,-3.3815,-3.3666,-3.3625,-3.3357,-3.3068,-3.2798,-3.2734,-3.2654,-3.2457,-3.2301,-3.2214,-3.2214,-3.2214,-3.2267,-3.2388,-3.2354,-3.2108,-3.1714,-3.1603,-3.1603,-3.164,-3.1603,-3.1603,-3.1657,-3.2366,-3.25,-3.208,-3.2823,-3.3516,-3.4088,-3.4283,-3.4783,-3.5408,-3.583,-3.6284,-3.669,-3.6684,-3.6643,-3.662,-3.6502,-3.6461,-3.6461,0.0,-2.4496,-2.4418,-2.4292,-2.3573,-2.2725,-2.191,-2.105,-2.0501,-2.05,-2.1064,-2.1726,-2.2432,-2.2022,-2.1928,-2.2453,-2.1235,-2.0725,-2.1415,-2.0803,-2.0415,-2.0425,-2.0419,-2.0837,-2.1707,-2.2406,-2.2838,-2.3003,-2.3483,-2.3088,-2.1881,-2.152,-2.1107,-2.0656,-2.0496,-2.0408,-2.0405,-2.0392,-2.0385,-2.0344,-2.0418,-2.2488,-2.5998,-3.0209,-3.3056,-3.4909,-3.5639,-3.5853,-3.5593,-3.4266,-3.3815,-3.2863,-2.7317,-2.7471,-2.9162,-2.6403,-2.7106,-2.8444,-2.7043,-2.7187,-2.7556,-2.6912,-2.6755,0.0,-2.7542,-2.7628,-2.8138,-3.0124,-3.1027,-3.156,-3.1998,-3.201,-3.2115,-3.2587,-3.2418,-3.2572,-3.3605,-3.3707,-3.3522,-3.3214,-3.305,-3.2848,-3.2573,-3.2353,-3.2249,-3.2354,-3.2267,-3.2267,-3.2388,-3.2001,-3.1765,-3.1677,-3.105,-3.0908,-3.1223,-3.0908,-3.0908,-3.124,-3.1375,-3.1167,-3.0709,-3.1437,-3.1649,-3.1426,-3.306,-3.3806,-3.3895,-3.494,-3.5627,-3.6097,-3.6301,-3.6335,-3.631,-3.6268,-3.6251,-3.6251,-2.4096,-2.4664,-2.469,-2.3845,-2.3341,-2.2616,-2.1357,-2.0789,-2.0636,-2.1044,-2.2209,-2.2827,-2.2391,-2.2737,-2.2818,-2.2382,-2.154,-2.1039,-2.105,-2.0632,-2.0394,-2.0394,-2.041,-2.0614,-2.108,-2.2361,-2.299,-2.2997,-2.3372,-2.3339,-2.2861,-2.1598,-2.1469,-2.2249,-2.0977,-2.1041,-2.2023,-2.0843,-2.0379,-2.0553,-2.225,-2.2965,-2.3589,-2.8807,-3.1841,-3.354,-3.5236,-3.5838,-3.5791,-3.5807,-3.3536,-3.07,-3.0691,-3.0309,-2.945,-2.7434,-2.7783,-2.8514,-2.7257,-2.7225,-2.7452,-2.7049,-2.7276,0.0,0.0,-2.8165,-2.8618,-3.0257,-3.0568,-3.0637,-3.0899,-3.0847,-3.0833,-3.1063,-3.1506,-3.1731,-3.1626,-3.2896,-3.3734,-3.3444,-3.3298,-3.3147,-3.2898,-3.2521,-3.2266,-3.2144,-3.2108,-3.2108,-3.2232,-3.1856,-3.1524,-3.1355,-3.0788,-3.0601,-3.0804,-3.0601,-3.0601,-3.0804,-3.0804,-3.0518,-3.0017,-3.0375,-3.0587,-3.0669,-3.1672,-3.2447,-3.3129,-3.3886,-3.4532,-3.5052,-3.5419,-3.5677,-3.58,-3.58,-3.5932,-3.6122,-2.4225,-2.4827,-2.4809,-2.3563,-2.3359,-2.2803,-2.1223,-2.0978,-2.1263,-2.208,-2.3558,-2.4067,-2.2829,-2.3948,-2.4303,-2.3035,-2.2633,-2.2142,-2.1418,-2.1208,-2.1113,-2.1095,-2.0789,-2.0729,-2.0933,-2.2297,-2.2996,-2.3009,-2.3269,-2.3598,-2.392,-2.1856,-2.1804,-2.3372,-2.132,-2.1429,-2.3036,-2.1146,-2.0779,-2.172,-2.4418,-2.428,-2.309,-2.8679,-3.0803,-3.1231,-3.46,-3.5803,-3.571,-3.5049,-3.0933,-2.6989,-3.2171,-3.1977,-2.9528,-2.8043,-2.8179,-2.857,-2.7447,-2.7252,-2.7369,-2.7402,-2.792,-2.8572,0.0,0.0,0.0,-3.068,-3.0393,-2.9901,-2.9901,-2.9822,-2.98,-3.0042,-3.0605,-3.0658,-2.968,-3.1592,-3.3061,-3.2958,-3.3257,-3.3332,-3.3003,-3.236,-3.1984,-3.1949,-3.1634,-3.1653,-3.2091,-3.1654,-3.1257,-3.0965,-3.0559,-3.0309,-3.0326,-3.0309,-3.0368,-3.0368,-3.0309,-3.0087,-2.9653,-2.9637,-2.9868,-3.0336,-3.0479,-3.1246,-3.2462,-3.2854,-3.3371,-3.4,-3.4642,-3.5085,-3.5333,-3.5424,-3.5694,-3.5975,-2.4225,-2.387,-2.3579,-2.4155,-2.4252,-2.3906,-2.2864,-2.2715,-2.2994,-2.3806,-2.4762,-2.5576,-2.6151,-2.6456,-2.6805,-2.733,-2.6012,-2.5068,-2.4839,-2.4114,-2.3655,-2.3582,-2.2169,-2.1743,-2.2523,-2.2849,-2.2996,-2.2996,-2.4471,-2.4503,-2.3121,-2.2779,-2.1985,-2.0815,-2.0538,-2.0578,-2.0863,-2.0585,-2.2236,-2.5057,-2.537,-2.7162,-2.9726,-3.05,-3.0792,-3.1236,-3.4593,-3.5791,-3.5337,-3.2295,-2.9734,-2.7675,-2.6907,-2.9497,-3.1887,-2.7174,-2.8492,-3.0971,-2.8589,-2.8521,-2.9134,-2.9196,-2.9275,-2.9197,-2.8574,0.0,-2.7686,-2.7858,0.0,-2.7761,-2.7761,0.0,0.0,-3.045,-2.9264,-2.8605,-2.9839,-3.0111,-3.0357,-3.0875,-3.2344,-3.3089,-3.2529,-3.1255,-3.0891,-3.2004,-3.0681,-3.0526,-3.2003,-3.1223,-3.0747,-3.0845,-3.0172,-2.9726,-2.9592,-2.9726,-2.977,-2.977,-2.9681,-2.9592,-2.9518,-2.9412,-2.9307,-2.9295,-2.9959,-3.0671,-3.1431,-3.2098,-3.2764,-3.3503,-3.469,-3.5148,-3.5182,-3.5594,-3.5773,-3.5861,-2.3473,-2.417,-2.4557,-2.4427,-2.4374,-2.4048,-2.3185,-2.3446,-2.3681,-2.3528,-2.4704,-2.5466,-2.5197,-2.5689,-2.6144,-2.6447,-2.5874,-2.5272,-2.4793,-2.4418,-2.3986,-2.3449,-2.2746,-2.2325,-2.2214,-2.277,-2.3047,-2.2998,-2.3209,-2.3191,-2.2972,-2.1939,-2.1886,-2.2641,-2.2136,-2.3591,-2.6288,-2.427,-2.3121,-2.3165,-2.9091,-3.2363,-3.3264,-2.9252,-2.9005,-3.0975,-3.2389,-3.4153,-3.5585,-3.4185,-3.0574,-2.7225,-3.0503,-3.0957,-3.0042,-2.8858,-2.9077,-2.9458,-2.839,-2.8748,-2.9419,-2.9478,-3.022,-3.0622,-2.9345,-2.8869,-2.8674,-2.8674,0.0,0.0,0.0,0.0,0.0,0.0,-2.8853,-2.8425,-2.8164,-2.9077,-2.9825,-3.0001,-3.0692,-3.1218,-3.1401,-3.1737,-3.1927,-3.1913,-3.1429,-3.1394,-3.1894,-3.1334,-3.1044,-3.1083,-3.0601,-3.0215,-2.9902,-2.9946,-2.9858,-2.9563,-2.9518,-2.9473,-2.9366,-2.935,-2.9198,-2.8982,-2.9328,-2.98,-3.0459,-3.125,-3.1907,-3.2583,-3.3872,-3.448,-3.4756,-3.4883,-3.5258,-3.5667,-2.3338,-2.4486,-2.5227,-2.4824,-2.4713,-2.4482,-2.3874,-2.4282,-2.4413,-2.3773,-2.4988,-2.564,-2.4819,-2.5994,-2.673,-2.6417,-2.6914,-2.6896,-2.6085,-2.5568,-2.522,-2.5033,-2.3927,-2.3245,-2.3145,-2.3334,-2.3412,-2.3368,-2.2965,-2.2852,0.0,-2.1931,-2.2086,-2.3229,-2.3223,-2.6016,-3.0626,-2.9013,-2.6379,-2.4024,-3.2414,-3.5806,-3.5138,-2.9214,-2.8552,-3.0798,-3.0792,-3.2357,-3.4464,-3.4737,-3.1346,-2.79,-3.2915,-3.2208,-2.9674,-3.0484,-3.016,-2.9428,-2.8942,-2.9266,-2.9716,-2.9539,-3.0591,-3.1305,-2.9913,-2.9767,-2.9845,-2.9533,-2.922,0.0,0.0,0.0,-2.8605,-2.8567,0.0,-2.8435,-2.7249,-2.8148,-2.8974,-2.9082,-2.943,-2.9791,-3.0126,-3.1293,-3.181,-3.1306,-3.1515,-3.1725,-3.1819,-3.1466,-3.1257,-3.1257,-3.0925,-3.0601,-3.03,-3.03,-3.013,-2.9798,-2.9665,-2.9531,-2.947,-2.9289,-2.9106,-2.8904,-2.8826,-2.9218,-2.997,-3.0506,-3.1344,-3.2399,-3.3233,-3.4088,-3.4802,-3.461,-3.5085,-3.5783,-2.436,-2.4406,-2.4707,-2.5525,-2.5661,-2.5626,-2.5537,-2.5538,-2.5512,-2.5421,-2.6191,-2.672,-2.6616,-2.8953,-3.016,-2.9256,-3.0839,-3.146,-3.0457,-2.8822,-2.8562,-3.0095,-2.6243,-2.4846,-2.6505,-2.5033,-2.4252,-2.4263,-2.5074,-2.4635,0.0,-2.3747,-2.2817,-2.0626,-2.2804,-2.6384,-3.1008,-3.4146,-3.3502,-3.0684,-3.4338,-3.5799,-3.5429,-3.1949,-3.0709,-3.0799,-3.0798,-3.0864,-3.1078,-3.1851,-3.1456,-3.0671,-3.0884,-3.1954,-3.2824,-3.1254,-3.1915,-3.2765,-3.1078,-3.0648,-3.0469,-2.9689,-3.0174,-3.0622,-2.9791,-3.0196,-3.045,-2.9338,-2.9977,-3.0384,-2.9288,-2.9279,-2.9452,-2.9452,-2.8766,0.0,0.0,-2.7338,-2.7036,-2.7675,-2.8962,-2.9514,-2.8842,-2.8925,-2.9261,-2.9804,-2.9986,-3.0587,-3.175,-3.1372,-3.1123,-3.1123,-3.0788,-3.0584,-3.0477,-3.0543,-3.0584,-3.0543,-3.0054,-2.9853,-2.9968,-2.9212,-2.8904,-2.8904,-2.87,-2.9201,-3.018,-3.0067,-3.1326,-3.3367,-3.3191,-3.4167,-3.561,-3.5311,-3.5644,-3.6301,-2.4163,-2.4741,-2.5351,-2.5658,-2.5655,-2.5629,-2.5602,-2.5602,-2.5997,-2.7083,-2.7524,-2.8087,-2.9032,-3.0048,-3.0494,-3.0141,-3.0717,-3.0691,-2.9666,-2.8682,-2.8528,-2.9433,-2.6663,-2.5647,-2.6798,-2.5176,-2.4302,-2.4307,-2.4024,-2.3864,0.0,0.0,-2.2691,-2.2937,-2.1977,-2.3689,-2.7666,-3.3381,-3.5138,-3.4175,-3.5325,-3.445,-3.2557,-3.3673,-3.3206,-3.1938,-3.1927,-3.1435,-3.1026,-3.2444,-3.1985,-3.1203,-3.3457,-3.3003,-3.174,-3.2297,-3.2077,-3.1526,-3.0934,-3.1183,-3.1426,-3.0575,-3.0583,-3.0723,-3.0454,-3.0194,-3.006,-3.0191,-3.0523,-3.0679,-3.0297,-3.0297,-3.016,-2.9592,-2.925,-2.8645,0.0,-2.696,-2.6543,-2.6165,-2.7323,-2.7961,-2.7491,-2.9366,-3.0538,-3.0272,-3.1204,-3.1906,-3.2127,-3.1765,-3.1542,-3.1542,-3.1449,-3.124,-3.0908,-3.0908,-3.0788,-3.0518,-3.0351,-3.0309,-3.0309,-2.9661,-2.9556,-2.9859,-2.9451,-2.964,-3.0238,-3.0786,-3.1671,-3.2767,-3.3244,-3.4425,-3.5803,-3.552,-3.5759,-3.6301,-2.4638,-2.5175,-2.5662,-2.5659,-2.5636,-2.5596,-2.5602,-2.5609,-2.6191,-2.788,-2.788,-2.845,-3.0268,-3.0847,-3.1072,-3.1002,-3.1358,-3.1183,-3.0238,-2.9221,-2.8943,-2.9605,-2.7643,-2.6923,-2.78,-2.6121,-2.5216,-2.5216,-2.4379,-2.4083,-2.4316,0.0,0.0,-2.3512,-2.2616,-2.2766,-2.4063,-2.9737,-3.3553,-3.5803,-3.583,-3.4508,-3.2752,-3.4983,-3.4198,-3.1952,-3.2347,-3.2172,-3.1893,-3.2989,-3.2828,-3.2583,-3.5087,-3.4152,-3.2361,-3.3451,-3.2789,-3.1665,-3.1358,-3.1668,-3.1825,-3.0624,-3.0566,-3.064,-3.0055,-2.9737,-2.9718,-3.0222,-3.0339,-3.0534,-3.1145,-3.1008,-3.0618,-3.0049,-2.9952,-2.9359,0.0,-2.7239,-2.6678,-2.5476,-2.6335,-2.7025,-2.6943,-2.88,-3.0185,-3.0638,-3.1595,-3.2255,-3.2385,-3.2197,-3.2038,-3.1946,-3.1856,-3.1728,-3.1528,-3.147,-3.1355,-3.1128,-3.101,-3.0891,-3.0851,-3.026,-3.0159,-3.0452,-2.9989,-2.9989,-3.036,-3.0915,-3.1656,-3.257,-3.3393,-3.4558,-3.5761,-3.5596,-3.595,-3.6444,-2.5701,-2.5641,-2.5607,-2.5605,-2.56,-2.5602,-2.5595,-2.5647,-2.6288,-2.7997,-2.7608,-2.81,-3.0587,-3.167,-3.2156,-3.2038,-3.2914,-3.3039,-3.2094,-3.0472,-2.9966,-3.0847,-2.9162,-2.8637,-2.9537,-2.7809,-2.6894,-2.6907,-2.6085,-2.5262,-2.4475,0.0,0.0,0.0,-2.4478,-2.3617,-2.0892,-2.4482,-2.9807,-3.5818,-3.5862,-3.5811,-3.5694,-3.5833,-3.3829,-3.1061,-3.2206,-3.2952,-3.3395,-3.3375,-3.3913,-3.4734,-3.5509,-3.5217,-3.4583,-3.4553,-3.3999,-3.3219,-3.2335,-3.2103,-3.1699,-2.9993,-3.016,-3.0321,-2.8782,-2.8977,-2.9519,-2.9604,-2.964,-3.0119,-3.1733,-3.1354,-3.0765,-3.0687,-3.0676,-3.0115,-2.8471,-2.8058,-2.7305,-2.5702,-2.6208,-2.6814,-2.7066,-2.7296,-2.839,-3.0742,-3.1097,-3.1628,-3.2598,-3.2545,-3.2413,-3.2249,-3.2038,-3.2073,-3.2283,-3.2161,-3.2161,-3.2283,-3.1914,-3.1679,-3.1514,-3.0965,-3.0704,-3.0657,-3.0352,-3.041,-3.0666,-3.0601,-3.1402,-3.2723,-3.3556,-3.4587,-3.5561,-3.5677,-3.6139,-3.6702,-2.5703,-2.565,-2.5605,-2.5591,-2.5599,-2.5595,-2.5601,-2.6151,-2.74,-2.9726,-3.0464,-3.1721,-3.4264,-3.4756,-3.4631,-3.3957,-3.415,-3.3395,-3.1266,-3.0711,-3.093,-3.2021,-2.9586,-2.8905,-3.0431,-2.8121,-2.6904,-2.6894,-2.6038,-2.5517,-2.5284,0.0,0.0,0.0,-2.403,-2.3922,-2.4651,-3.0634,-3.4218,-3.5881,-3.5885,-3.5106,-3.4082,-3.5405,-3.4561,-3.277,-3.371,-3.3779,-3.3492,-3.4066,-3.4417,-3.4637,-3.4846,-3.4776,-3.4488,-3.3871,-3.3564,-3.3216,-3.2341,-3.2109,-3.1836,-3.0732,-3.0155,-2.9896,-3.0108,-2.9815,-2.9874,-3.1176,-3.1434,-3.1375,-3.1178,-3.0953,-3.0373,-2.9082,-2.8902,-2.8946,-2.8935,-2.8369,-2.7755,-2.7182,-2.7778,-2.7554,-2.5798,-2.7689,-2.9252,-2.9829,-3.0619,-3.1729,-3.3252,-3.1982,-3.1576,-3.2482,-3.2535,-3.247,-3.2249,-3.2232,-3.2266,-3.2283,-3.2197,-3.2091,-3.2002,-3.1456,-3.1397,-3.1694,-3.1189,-3.1189,-3.1582,-3.1545,-3.2121,-3.3028,-3.3827,-3.4973,-3.6266,-3.6374,-3.6544,-3.6702,-2.5702,-2.565,-2.5593,-2.5593,-2.5601,-2.5865,-2.6615,-2.6518,-2.7379,-3.0364,-3.0867,-3.1948,-3.4525,-3.5159,-3.5325,-3.5227,-3.4857,-3.3877,-3.206,-3.1943,-3.2045,-3.2307,-3.0778,-3.0369,-3.1356,-2.9171,-2.7853,-2.7463,-2.6607,-2.596,-2.5589,0.0,0.0,0.0,0.0,-2.4725,-2.5989,-3.1879,-3.4973,-3.5938,-3.5919,-3.5318,0.0,-3.5529,-3.5298,-3.4498,-3.4995,-3.4881,-3.4511,-3.4584,-3.4846,-3.5108,-3.4722,-3.4368,-3.3914,-3.3044,-3.2538,-3.2168,-3.1658,-3.1521,-3.14,-3.0924,-3.043,-3.0095,-3.0213,-2.9858,-2.9897,-3.1241,-3.1538,-3.1714,-3.2343,-3.1865,-3.0802,-2.9039,-2.9098,-2.9206,-2.8793,-2.8578,-2.8299,-2.7796,-2.8071,-2.7637,-2.5874,-2.8048,-2.9589,-2.9626,-3.0442,-3.1323,-3.2114,-3.1847,-3.1892,-3.2409,-3.2773,-3.2876,-3.2654,-3.2621,-3.2588,-3.2573,-3.2539,-3.2472,-3.237,-3.202,-3.2002,-3.2196,-3.1768,-3.1731,-3.1984,-3.1875,-3.2098,-3.2617,-3.3723,-3.4921,-3.6052,-3.6381,-3.6544,-3.6544,-2.5698,-2.5657,-2.5593,-2.56,-2.5795,-2.6534,-2.8271,-2.7391,-2.7615,-3.073,-3.0579,-3.109,-3.3477,-3.4421,-3.5186,-3.5927,-3.5303,-3.4503,-3.3637,-3.3567,-3.3177,-3.2315,-3.2267,-3.2251,-3.2271,-3.0671,-2.9357,-2.8372,-2.7503,-2.6571,-2.5598,0.0,0.0,0.0,0.0,-2.5944,-2.6754,-3.0786,-3.3856,-3.5986,-3.5917,-3.5898,-3.5898,-3.5898,-3.5898,-3.5898,-3.5896,-3.5896,-3.5773,-3.5022,-3.5276,-3.5732,-3.4752,-3.3953,-3.3183,-3.2148,-3.1347,-3.0797,-3.078,-3.0794,-3.0807,-3.0789,-3.0794,-3.0594,-2.9844,-2.9664,-2.9913,-3.0799,-3.0974,-3.1602,-3.3726,-3.2913,-3.1432,-2.9927,-3.0436,-3.0497,-2.8968,-2.9244,-2.927,-2.839,-2.8312,0.0,-2.6929,-2.8401,-2.9438,-2.9481,-3.0074,-3.045,-3.0535,-3.1768,-3.2458,-3.2438,-3.2998,-3.3273,-3.325,-3.3129,-3.3055,-3.2979,-3.2934,-3.282,-3.2687,-3.2623,-3.2541,-3.2457,-3.2284,-3.2214,-3.2161,-3.1984,-3.1981,-3.2223,-3.3623,-3.4701,-3.5503,-3.6067,-3.6343,-3.6385,-2.5697,-2.5644,-2.5597,-2.5593,-2.6793,-2.8339,-3.0078,-3.0872,-3.1685,-3.2795,-3.3442,-3.4246,-3.5416,-3.5674,-3.583,-3.5986,-3.5869,-3.5401,-3.4523,-3.4464,-3.4078,-3.321,-3.3119,-3.3124,-3.3163,-3.2107,-3.0816,-2.9277,-2.8397,-2.7165,-2.5599,-2.56,0.0,0.0,0.0,-2.7747,-3.1265,-3.2129,-3.3828,-3.5918,-3.5895,-3.5896,-3.5898,-3.5898,-3.5898,-3.5898,-3.5891,-3.5898,-3.5884,-3.572,-3.5761,-3.5625,-3.4099,-3.3471,-3.3018,-3.1461,-3.0899,-3.0782,-3.0735,-3.076,-3.0808,-3.0794,-3.0794,-3.076,-3.0604,-3.0565,-3.0818,-3.168,-3.1875,-3.1797,-3.1525,-3.1241,-3.0938,-3.0611,-3.1802,-3.2608,-3.2191,-3.221,-3.1898,-3.0967,-3.1333,-3.0845,-2.8753,-2.8784,-2.8639,-2.7951,-2.7922,-2.9057,-3.165,-3.0827,-3.1297,-3.3548,-3.3776,-3.3698,-3.3361,-3.3455,-3.3462,-3.3375,-3.3375,-3.3268,-3.3099,-3.3099,-3.3006,-3.2898,-3.2848,-3.2766,-3.2666,-3.2651,-3.3009,-3.3667,-3.4284,-3.4976,-3.5688,-3.6132,-3.6533,-3.6759,-2.5697,-2.5643,-2.5605,-2.5604,-2.7265,-2.9296,-3.1324,-3.3125,-3.4056,-3.3483,-3.3775,-3.4181,-3.4612,-3.5451,-3.6001,-3.6001,-3.6001,-3.5812,-3.5359,-3.5322,-3.5131,-3.4726,-3.4235,-3.3996,-3.4015,-3.3149,-3.1626,-2.9509,-2.9081,-2.7754,-2.5605,-2.5605,-2.5625,-2.5696,0.0,-2.9952,-3.4113,-3.3261,-3.4075,-3.5896,-3.5903,-3.5903,-3.5893,-3.5893,-3.5893,-3.5893,-3.5892,-3.5907,-3.5906,-3.5908,-3.5901,-3.5698,-3.4452,-3.4035,-3.3661,-3.1968,-3.1446,-3.1323,-3.082,-3.0714,-3.0764,-3.0784,-3.0808,-3.0794,-3.0799,-3.0799,-3.0916,-3.1349,-3.1797,-3.1977,-3.1544,-3.1432,-3.122,-3.0773,-3.1658,-3.2387,-3.2284,-3.2602,-3.267,-3.2187,-3.2016,-3.1142,-2.9142,-2.8523,-2.8202,-2.8184,-2.8103,-2.9044,-3.1315,-3.0791,-3.1352,-3.3371,-3.3877,-3.3954,-3.3662,-3.3734,-3.3671,-3.3509,-3.3415,-3.3309,-3.319,-3.316,-3.3099,-3.3055,-3.3024,-3.2975,-3.2894,-3.2844,-3.3027,-3.3476,-3.4534,-3.5119,-3.5579,-3.6556,-3.7055,-3.7152,-2.6158,-2.6197,-2.6277,-2.6639,-2.8473,-3.0479,-3.2151,-3.439,-3.5411,-3.41,-3.3925,-3.3926,-3.3937,-3.5167,-3.5987,-3.5987,-3.5987,-3.5954,-3.5898,-3.5897,-3.5894,-3.5896,-3.522,-3.4866,-3.4889,-3.4199,-3.2661,-3.0316,-3.0183,-2.8756,-2.6132,-2.5796,-2.5654,-2.5804,-2.8322,-3.1543,-3.4998,-3.3809,-3.4305,-3.5908,-3.5908,-3.5908,-3.5908,-3.5908,-3.5908,-3.5908,-3.5908,-3.5908,-3.5894,-3.5899,-3.5895,-3.5752,-3.4934,-3.4631,-3.4308,-3.2803,-3.2188,-3.1851,-3.1158,-3.0833,-3.0703,-3.0773,-3.0778,-3.0784,-3.0794,-3.0799,-3.0794,-3.0764,-3.1284,-3.1765,-3.1765,-3.1838,-3.1717,-3.1196,-3.1718,-3.2269,-3.2385,-3.2924,-3.3234,-3.3012,-3.221,-3.1159,-2.9841,-2.8817,-2.8529,-2.9269,-2.8812,-2.9109,-3.049,-3.0921,-3.1694,-3.3026,-3.3673,-3.3918,-3.3821,-3.3906,-3.3842,-3.3671,-3.3522,-3.3408,-3.3339,-3.328,-3.3268,-3.3268,-3.319,-3.316,-3.316,-3.3063,-3.3014,-3.3158,-3.4533,-3.5162,-3.5466,-3.6756,-3.7399,-3.7578,-2.7675,-2.7963,-2.845,-3.0033,-3.1739,-3.282,-3.2525,-3.4374,-3.5774,-3.5678,-3.5664,-3.5664,-3.5667,-3.5806,-3.5903,-3.5903,-3.5903,-3.5901,-3.5899,-3.5899,-3.5896,-3.5893,-3.5753,-3.5727,-3.5777,-3.5643,-3.47,-3.2947,-3.2408,-3.0706,-2.7926,-2.6404,-2.5683,-2.5842,-2.9109,-3.1354,-3.2746,-3.3126,-3.4314,-3.5892,-3.5897,-3.5908,-3.5908,-3.5908,-3.5908,-3.5908,-3.5908,-3.5908,-3.5908,-3.5894,-3.5894,-3.5752,-3.4878,-3.4606,-3.4399,-3.3472,-3.2616,-3.1981,-3.1909,-3.13,-3.0697,-3.0704,-3.071,-3.0728,-3.0784,-3.0808,-3.0778,-3.0633,-3.0645,-3.0645,-3.0645,-3.1283,-3.201,-3.2668,-3.3392,-3.4141,-3.493,-3.4994,-3.4694,-3.3968,-3.3108,-3.252,-3.2348,-3.0892,-3.0257,-3.0918,-2.8897,-2.8268,-2.9715,-3.0617,-3.177,-3.3224,-3.329,-3.3355,-3.3523,-3.3902,-3.4124,-3.4221,-3.4023,-3.3868,-3.3734,-3.3753,-3.3734,-3.3734,-3.3734,-3.3726,-3.3707,-3.3707,-3.3707,-3.3771,-3.4347,-3.5002,-3.5692,-3.6201,-3.7076,-3.8034,-2.9606,-2.9766,-3.0195,-3.1578,-3.2633,-3.3589,-3.4419,-3.5266,-3.5811,-3.584,-3.588,-3.5892,-3.5893,-3.5893,-3.5893,-3.5893,-3.5893,-3.5907,-3.5903,-3.5899,-3.5885,-3.5852,-3.5813,-3.5818,-3.5845,-3.5807,-3.4975,-3.3296,-3.2013,-3.0456,-2.8676,-2.7985,-2.8058,-2.886,-3.2297,-3.4068,-3.4517,-3.4756,-3.5262,-3.5898,-3.5903,-3.5908,-3.5908,-3.5908,-3.5908,-3.5908,-3.5908,-3.5908,-3.5908,-3.5908,-3.5908,-3.583,-3.5494,-3.5379,-3.5211,-3.4335,-3.3815,-3.3393,-3.2905,-3.2142,-3.1449,-3.1379,-3.0991,-3.063,-3.0629,-3.0591,-3.0571,-3.0585,-3.0558,-3.0501,-3.0501,-3.0723,-3.1345,-3.2713,-3.3121,-3.3734,-3.5074,-3.5239,-3.5076,-3.4751,-3.3987,-3.328,-3.2749,-3.1618,-3.0825,-3.0628,-2.9684,-2.9288,-2.9676,-3.1156,-3.2215,-3.2675,-3.3674,-3.4242,-3.4282,-3.444,-3.4524,-3.4483,-3.4274,-3.4124,-3.4023,-3.3868,-3.3807,-3.3807,-3.3807,-3.3807,-3.3807,-3.3807,-3.3807,-3.3853,-3.452,-3.533,-3.6152,-3.6794,-3.7644,-3.8451,-3.1384,-3.1548,-3.1973,-3.3278,-3.3821,-3.4484,-3.571,-3.583,-3.5799,-3.5799,-3.5845,-3.5878,-3.5875,-3.586,-3.586,-3.586,-3.586,-3.5866,-3.5866,-3.5859,-3.5859,-3.5799,-3.5799,-3.5799,-3.5799,-3.5799,-3.5216,-3.4046,-3.2804,-3.1521,-3.0205,-2.9719,-2.9931,-3.0847,-3.4229,-3.5779,-3.5818,-3.5788,-3.5776,-3.5784,-3.5806,-3.5813,-3.5813,-3.5813,-3.5813,-3.5813,-3.5813,-3.5813,-3.5813,-3.5813,-3.5813,-3.582,-3.5872,-3.5872,-3.5714,-3.5084,-3.4667,-3.4284,-3.3693,-3.2908,-3.2163,-3.1826,-3.1304,-3.0801,-3.0509,-3.0413,-3.0404,-3.0479,-3.0449,-3.0389,-3.04,-3.0333,-3.0849,-3.2589,-3.2781,-3.3299,-3.4996,-3.5209,-3.5114,-3.4885,-3.412,-3.3471,-3.3127,-3.2306,-3.156,-3.0987,-3.1384,-3.1333,-3.0557,-3.2074,-3.2887,-3.2746,-3.3922,-3.4548,-3.4565,-3.468,-3.4714,-3.4674,-3.4483,-3.4344,-3.4274,-3.4087,-3.4005,-3.3986,-3.3928,-3.3921,-3.3895,-3.3815,-3.3807,-3.388,-3.4679,-3.5532,-3.6395,-3.7184,-3.801,-3.8707,-3.2839,-3.3271,-3.3902,-3.5577,-3.5858,-3.5879,-3.5905,-3.5845,-3.5795,-3.5799,-3.5799,-3.5799,-3.5799,-3.5799,-3.5799,-3.5799,-3.5799,-3.5799,-3.5799,-3.5799,-3.5799,-3.5799,-3.5799,-3.5799,-3.5799,-3.5799,-3.5799,-3.5779,-3.5753,-3.482,-3.3016,-3.1414,-3.0702,-3.0845,-3.3993,-3.5476,-3.5604,-3.5526,-3.55,-3.5516,-3.5577,-3.5588,-3.5588,-3.5588,-3.5588,-3.5588,-3.5588,-3.5588,-3.5588,-3.5588,-3.5588,-3.5649,-3.5845,-3.5818,-3.5697,-3.5611,-3.4925,-3.4199,-3.4103,-3.3442,-3.2596,-3.1789,-3.1597,-3.1359,-3.0502,-3.0301,-3.0298,-3.0297,-3.0202,-3.0123,-3.0185,-3.0199,-3.0767,-3.2532,-3.2737,-3.3299,-3.5047,-3.5226,-3.4904,-3.4101,-3.3261,-3.3051,-3.3891,-3.3203,-3.2672,-3.2672,-3.4197,-3.4361,-3.2553,-3.3291,-3.3781,-3.3781,-3.3748,-3.3817,-3.4014,-3.4396,-3.4694,-3.4889,-3.4694,-3.4551,-3.4508,-3.4508,-3.4508,-3.4486,-3.4274,-3.4197,-3.4173,-3.3895,-3.3807,-3.388,-3.4679,-3.5532,-3.6395,-3.7184,-3.801,-3.8707,-3.471,-3.4865,-3.5068,-3.5591,-3.5724,-3.5768,-3.576,-3.5776,-3.5803,-3.5795,-3.5807,-3.5799,-3.5799,-3.5799,-3.5799,-3.5799,-3.5799,-3.5799,-3.5799,-3.5799,-3.5799,-3.5799,-3.5718,-3.5659,-3.5659,-3.5566,-3.5519,-3.5519,-3.4326,-3.3465,-3.2918,-3.3357,-3.3718,-3.402,-3.4969,-3.5399,-3.5399,-3.5523,-3.5566,-3.5577,-3.5588,-3.5607,-3.5607,-3.5607,-3.5607,-3.5607,-3.5607,-3.5607,-3.5607,-3.5607,-3.5607,-3.5618,-3.5679,-3.5621,-3.556,-3.5538,-3.5319,-3.5065,-3.4989,-3.4417,-3.3595,-3.2593,-3.1941,-3.1277,-3.0319,-3.018,-3.024,-3.024,-3.0199,-3.0171,-3.0204,-3.0682,-3.1446,-3.255,-3.3219,-3.3968,-3.5073,-3.5209,-3.5095,-3.4846,-3.4579,-3.4522,-3.4789,-3.4579,-3.3929,-3.2787,-3.3738,-3.336,-3.1073,-3.3417,-3.4292,-3.3157,-3.4213,-3.4821,-3.4891,-3.5007,-3.5089,-3.5107,-3.4908,-3.4694,-3.4508,-3.4508,-3.4508,-3.4508,-3.442,-3.4325,-3.4197,-3.4099,-3.3972,-3.388,-3.4679,-3.5532,-3.6395,-3.7184,-3.801,-3.8707,-3.5507,-3.5574,-3.5607,-3.5607,-3.56,-3.5631,-3.5631,-3.567,-3.5679,-3.5679,-3.5689,-3.5669,-3.564,-3.564,-3.5679,-3.5718,-3.5727,-3.5708,-3.5649,-3.5649,-3.5649,-3.5649,-3.5566,-3.5519,-3.5519,-3.5445,-3.5405,-3.5405,-3.426,-3.3695,-3.3714,-3.451,-3.5032,-3.5266,-3.5234,-3.524,-3.5268,-3.5366,-3.5432,-3.5445,-3.5445,-3.5445,-3.5445,-3.5445,-3.5445,-3.5445,-3.5445,-3.5445,-3.5445,-3.5445,-3.5445,-3.5445,-3.5445,-3.5432,-3.538,-3.5419,-3.5399,-3.5369,-3.5307,-3.4952,-3.4285,-3.2993,-3.2282,-3.1589,-3.0316,-3.0087,-3.0151,-3.0157,-3.0171,-3.0266,-3.0624,-3.1121,-3.1866,-3.2989,-3.3639,-3.4289,-3.5111,-3.5209,-3.5095,-3.4789,-3.4751,-3.4751,-3.4751,-3.4751,-3.4445,-3.37,-3.414,-3.3773,-3.2163,-3.3808,-3.4473,-3.3719,-3.4734,-3.5254,-3.5261,-3.5261,-3.5226,-3.5209,-3.5072,-3.4908,-3.4755,-3.4755,-3.4755,-3.4774,-3.4694,-3.4569,-3.4435,-3.425,-3.4284,-3.4481,-3.5193,-3.6009,-3.6835,-3.7643,-3.8267,-3.8707,-3.5378,-3.5483,-3.5566,-3.5566,-3.5523,-3.5492,-3.5492,-3.55,-3.5507,-3.5507,-3.5495,-3.5483,-3.5419,-3.5419,-3.5444,-3.5566,-3.5577,-3.5531,-3.5405,-3.5405,-3.5405,-3.5405,-3.5391,-3.5378,-3.5378,-3.5378,-3.5364,-3.5364,-3.5235,-3.5193,-3.5193,-3.5001,-3.4908,-3.4906,-3.4906,-3.5018,-3.52,-3.5124,-3.5141,-3.5209,-3.5209,-3.5209,-3.5209,-3.5209,-3.5209,-3.5209,-3.5209,-3.5209,-3.5209,-3.5209,-3.5209,-3.5209,-3.5209,-3.5209,-3.5207,-3.5273,-3.5235,-3.52,-3.511,-3.5092,-3.4729,-3.3075,-3.2599,-3.2121,-3.054,-3.0141,-3.0117,-3.0109,-3.0166,-3.0467,-3.1336,-3.1599,-3.2187,-3.3761,-3.4056,-3.4366,-3.5181,-3.5226,-3.4923,-3.4159,-3.4082,-3.4082,-3.4082,-3.4082,-3.435,-3.498,-3.5076,-3.5095,-3.5037,-3.4369,-3.4369,-3.5171,-3.5209,-3.5209,-3.5209,-3.5209,-3.5209,-3.5209,-3.5209,-3.5209,-3.5209,-3.5209,-3.5209,-3.5193,-3.5001,-3.4889,-3.4831,-3.4446,-3.4717,-3.5447,-3.6122,-3.6835,-3.7588,-3.8395,-3.8707,-3.8707,-3.5254,-3.5266,-3.5281,-3.5281,-3.5364,-3.5412,-3.5412,-3.5476,-3.5492,-3.5492,-3.5488,-3.5495,-3.5483,-3.5483,-3.5457,-3.5383,-3.5418,-3.5432,-3.5405,-3.5463,-3.5463,-3.5405,-3.5296,-3.5254,-3.5254,-3.5105,-3.5016,-3.5016,-3.5037,-3.5056,-3.5056,-3.5038,-3.5019,-3.498,-3.5034,-3.5107,-3.52,-3.5176,-3.5193,-3.5209,-3.5209,-3.5209,-3.5209,-3.5209,-3.5209,-3.5209,-3.5209,-3.5209,-3.5209,-3.5209,-3.5209,-3.5209,-3.5209,-3.5209,-3.519,-3.5223,-3.5207,-3.5196,-3.5181,-3.5181,-3.4912,-3.3796,-3.2594,-3.1596,-3.1245,-3.0653,-3.019,-3.0171,-3.0706,-3.124,-3.1465,-3.2554,-3.3528,-3.3945,-3.4518,-3.498,-3.5187,-3.5209,-3.5133,-3.4942,-3.4923,-3.4923,-3.4923,-3.4923,-3.4464,-3.336,-3.391,-3.3987,-3.3322,-3.3738,-3.4369,-3.5171,-3.5209,-3.5209,-3.5209,-3.5209,-3.5209,-3.5209,-3.5209,-3.5209,-3.5209,-3.5209,-3.5209,-3.5209,-3.5141,-3.4926,-3.4628,-3.5139,-3.525,-3.523,-3.6662,-3.7342,-3.7588,-3.8395,-3.8707,-3.8707,-3.5209,-3.5209,-3.5209,-3.5209,-3.527,-3.5311,-3.5311,-3.5336,-3.5359,-3.5359,-3.5364,-3.5369,-3.536,-3.536,-3.5296,-3.5168,-3.5277,-3.5326,-3.5266,-3.527,-3.527,-3.5251,-3.5155,-3.5124,-3.5143,-3.5056,-3.5001,-3.5001,-3.502,-3.5057,-3.5057,-3.5037,-3.5053,-3.5051,-3.503,-3.5066,-3.5196,-3.5193,-3.5209,-3.5209,-3.5209,-3.5209,-3.5209,-3.5209,-3.5209,-3.5209,-3.5209,-3.5209,-3.5209,-3.5209,-3.5209,-3.5209,-3.5209,-3.5209,-3.5209,-3.5209,-3.5209,-3.5193,-3.5196,-3.5212,-3.4983,-3.411,-3.2947,-3.1989,-3.2042,-3.1408,-3.0796,-3.0796,-3.1159,-3.158,-3.1981,-3.3127,-3.4105,-3.4385,-3.4463,-3.4599,-3.4851,-3.4566,-3.4471,-3.4832,-3.487,-3.487,-3.487,-3.487,-3.4491,-3.3581,-3.4068,-3.4144,-3.3562,-3.4087,-3.4649,-3.519,-3.5209,-3.5209,-3.5209,-3.5209,-3.5209,-3.5209,-3.5209,-3.5209,-3.5209,-3.5209,-3.5141,-3.5072,-3.5072,-3.4851,-3.4545,-3.4884,-3.5299,-3.5809,-3.6636,-3.7386,-3.8102,-3.8542,-3.8707,-3.8707,-3.5088,-3.5124,-3.5141,-3.5141,-3.5193,-3.5209,-3.5209,-3.5209,-3.5209,-3.5209,-3.5209,-3.5193,-3.5198,-3.5198,-3.5162,-3.5034,-3.519,-3.5245,-3.511,-3.5054,-3.5035,-3.5092,-3.5054,-3.5054,-3.5092,-3.5092,-3.5092,-3.5092,-3.5111,-3.5129,-3.511,-3.5053,-3.5051,-3.5105,-3.499,-3.5026,-3.5209,-3.5209,-3.5209,-3.5209,-3.5209,-3.5209,-3.5209,-3.5209,-3.5209,-3.5209,-3.5209,-3.5209,-3.5209,-3.5209,-3.5209,-3.5209,-3.5209,-3.5174,-3.5141,-3.5141,-3.5124,-3.5107,-3.5179,-3.5162,-3.499,-3.4301,-3.3465,-3.2784,-3.2784,-3.2156,-3.1581,-3.1581,-3.1622,-3.1908,-3.2651,-3.3487,-3.4198,-3.4586,-3.4188,-3.3941,-3.4266,-3.3832,-3.3719,-3.4414,-3.4508,-3.4508,-3.4508,-3.4508,-3.4508,-3.4508,-3.4694,-3.4753,-3.4508,-3.4733,-3.4926,-3.5141,-3.5124,-3.5088,-3.5088,-3.5088,-3.5088,-3.5088,-3.5088,-3.5088,-3.5088,-3.5088,-3.5,-3.4851,-3.4851,-3.4674,-3.4461,-3.4535,-3.5361,-3.6562,-3.6628,-3.7496,-3.8707,-3.8707,-3.8707,-3.8707,-3.4614,-3.4793,-3.4945,-3.4945,-3.5089,-3.5209,-3.5209,-3.5209,-3.5209,-3.5209,-3.5209,-3.5209,-3.5193,-3.5193,-3.5193,-3.5174,-3.5188,-3.5172,-3.5111,-3.5092,-3.5092,-3.5092,-3.5131,-3.515,-3.5092,-3.5092,-3.5092,-3.5092,-3.5147,-3.5164,-3.5164,-3.5176,-3.5174,-3.5174,-3.5155,-3.5174,-3.5209,-3.5209,-3.5209,-3.5209,-3.5209,-3.5209,-3.5209,-3.5209,-3.5209,-3.5209,-3.5209,-3.5209,-3.5209,-3.5209,-3.5209,-3.5209,-3.5209,-3.5051,-3.4851,-3.4851,-3.4736,-3.4693,-3.5097,-3.5039,-3.4864,-3.4775,-3.3979,-3.32,-3.32,-3.254,-3.1919,-3.1919,-3.2503,-3.3049,-3.3181,-3.3879,-3.4216,-3.3631,-3.4007,-3.4175,-3.3571,-3.3963,-3.4358,-3.4489,-3.4508,-3.4508,-3.4508,-3.4508,-3.4508,-3.4508,-3.4529,-3.4551,-3.4508,-3.4529,-3.4674,-3.4945,-3.4734,-3.4614,-3.4614,-3.4614,-3.4614,-3.4614,-3.4614,-3.4614,-3.4614,-3.4614,-3.4593,-3.4551,-3.4551,-3.4439,-3.4338,-3.5683,-3.6268,-3.647,-3.7819,-3.8487,-3.8707,-3.8707,-3.8707,-3.8707,-3.4414,-3.4555,-3.4674,-3.4674,-3.4754,-3.4832,-3.4832,-3.4832,-3.4832,-3.4832,-3.4832,-3.4832,-3.4832,-3.4832,-3.487,-3.4983,-3.4905,-3.479,-3.4679,-3.4984,-3.5151,-3.5143,-3.5181,-3.5181,-3.5143,-3.5143,-3.5143,-3.5143,-3.5179,-3.5196,-3.5196,-3.5193,-3.5209,-3.5209,-3.5209,-3.5209,-3.5209,-3.5209,-3.5209,-3.5209,-3.5196,-3.5196,-3.5196,-3.5196,-3.5196,-3.5196,-3.5193,-3.5209,-3.525,-3.5586,-3.5379,-3.5114,-3.5874,-3.5395,-3.4521,-3.4538,-3.4513,-3.4548,-3.4747,-3.4724,-3.4663,-3.4672,-3.4308,-3.3963,-3.3963,-3.3304,-3.2702,-3.2702,-3.3023,-3.3285,-3.3285,-3.3963,-3.4333,-3.3867,-3.3732,-3.3668,-3.3584,-3.3523,-3.3653,-3.408,-3.4117,-3.4117,-3.4117,-3.4117,-3.4117,-3.4117,-3.4255,-3.4279,-3.4136,-3.4255,-3.4413,-3.4524,-3.4651,-3.4653,-3.4508,-3.4508,-3.4508,-3.4508,-3.4508,-3.4508,-3.4508,-3.4508,-3.4442,-3.4325,-3.4325,-3.4184,-3.4065,-3.5264,-3.5957,-3.6413,-3.7588,-3.8322,-3.8707,-3.8707,-3.8707,-3.8707,-3.424,-3.4342,-3.442,-3.442,-3.4464,-3.4508,-3.4508,-3.4508,-3.4508,-3.4508,-3.4508,-3.4508,-3.4508,-3.4508,-3.4583,-3.4773,-3.4595,-3.4405,-3.4317,-3.4651,-3.4945,-3.5092,-3.5164,-3.5181,-3.5124,-3.5124,-3.5124,-3.5124,-3.5108,-3.5108,-3.5105,-3.5162,-3.5215,-3.5209,-3.5209,-3.5209,-3.5209,-3.5193,-3.5193,-3.5212,-3.52,-3.5675,-3.6396,-3.6396,-3.6058,-3.5605,-3.5678,-3.5661,-3.5665,-3.6118,-3.5907,-3.5565,-3.6423,-3.5881,-3.4903,-3.4652,-3.4461,-3.4334,-3.4427,-3.4401,-3.4353,-3.442,-3.4375,-3.433,-3.433,-3.3863,-3.3415,-3.3415,-3.3415,-3.3415,-3.3415,-3.3919,-3.4228,-3.3889,-3.3469,-3.3247,-3.3485,-3.3146,-3.3109,-3.3733,-3.3807,-3.3807,-3.3807,-3.3807,-3.3807,-3.3807,-3.3998,-3.4023,-3.3807,-3.3998,-3.4099,-3.4099,-3.4524,-3.4609,-3.4353,-3.433,-3.433,-3.433,-3.433,-3.433,-3.433,-3.433,-3.4255,-3.4099,-3.4099,-3.4109,-3.4137,-3.4963,-3.5807,-3.6652,-3.7459,-3.8157,-3.8707,-3.8707,-3.8707,-3.8707,-3.3928,-3.408,-3.4221,-3.4221,-3.4371,-3.4508,-3.4508,-3.4508,-3.4508,-3.4508,-3.4508,-3.4508,-3.4508,-3.4508,-3.4583,-3.4773,-3.4517,-3.4298,-3.4317,-3.4041,-3.4195,-3.4797,-3.5077,-3.5116,-3.4927,-3.4908,-3.4908,-3.4908,-3.4864,-3.4826,-3.4832,-3.5078,-3.5208,-3.5209,-3.5209,-3.5209,-3.5209,-3.5198,-3.52,-3.52,-3.5185,-3.7103,-3.9921,-3.9921,-3.8594,-3.6821,-3.7068,-3.6979,-3.6779,-3.6831,-3.7061,-3.7155,-3.6255,-3.6391,-3.6719,-3.569,-3.4659,-3.3935,-3.4226,-3.4091,-3.3921,-3.4173,-3.4049,-3.3842,-3.3842,-3.3805,-3.375,-3.375,-3.375,-3.375,-3.375,-3.3805,-3.3603,-3.2842,-3.3283,-3.3503,-3.2797,-3.3293,-3.3733,-3.3788,-3.3807,-3.3807,-3.3807,-3.3807,-3.3807,-3.3807,-3.3834,-3.3815,-3.3807,-3.3815,-3.3815,-3.3815,-3.408,-3.4105,-3.3842,-3.3842,-3.3842,-3.3842,-3.3842,-3.3842,-3.3842,-3.3842,-3.3842,-3.3815,-3.3815,-3.4256,-3.4972,-3.5862,-3.667,-3.7477,-3.8303,-3.8652,-3.8707,-3.8707,-3.8707,-3.8707,-3.3972,-3.4023,-3.4092,-3.4079,-3.4099,-3.4111,-3.4062,-3.4062,-3.4062,-3.4062,-3.4062,-3.4062,-3.4062,-3.4062,-3.4099,-3.4179,-3.406,-3.3998,-3.4006,-3.3869,-3.3994,-3.4467,-3.4593,-3.4653,-3.4653,-3.4653,-3.4653,-3.4653,-3.476,-3.4682,-3.4482,-3.4672,-3.4713,-3.4679,-3.5341,-3.5738,-3.5927,-3.5941,-3.6866,-3.8348,-3.8369,-3.9148,-4.0268,-3.993,-3.9277,-3.8388,-3.7401,-3.699,-3.6972,-3.7324,-3.7243,-3.7031,-3.7507,-3.7156,-3.6417,-3.5477,-3.488,-3.4458,-3.4104,-3.3891,-3.3815,-3.3921,-3.3868,-3.3807,-3.3807,-3.3807,-3.3807,-3.3807,-3.3807,-3.3807,-3.3807,-3.3807,-3.3697,-3.3385,-3.3605,-3.3697,-3.3385,-3.3605,-3.3807,-3.3807,-3.3807,-3.4036,-3.4623,-3.4127,-3.4036,-3.4623,-3.4127,-3.3807,-3.3807,-3.3807,-3.3807,-3.3807,-3.3895,-3.3895,-3.3807,-3.3807,-3.3807,-3.3807,-3.3807,-3.3807,-3.3807,-3.3807,-3.3807,-3.3807,-3.3807,-3.4266,-3.5064,-3.5936,-3.6762,-3.7599,-3.8395,-3.8707,-3.8707,-3.8707,-3.8719,-3.878,-3.4023,-3.4023,-3.4016,-3.4002,-3.3957,-3.3921,-3.3868,-3.3842,-3.3815,-3.3815,-3.3815,-3.3807,-3.3807,-3.3807,-3.3807,-3.3807,-3.3807,-3.3807,-3.3807,-3.3807,-3.3891,-3.413,-3.424,-3.4342,-3.4398,-3.4416,-3.4416,-3.4416,-3.4461,-3.4367,-3.4151,-3.4226,-3.4458,-3.4843,-3.5935,-3.661,-3.6986,-3.7173,-3.8284,-3.9977,-4.0384,-4.0265,-3.9771,-3.9508,-3.9333,-3.9108,-3.7985,-3.7555,-3.7545,-3.7933,-3.7729,-3.7442,-3.8401,-3.7771,-3.6505,-3.5661,-3.5192,-3.4807,-3.4027,-3.3807,-3.3807,-3.3807,-3.3807,-3.3807,-3.3807,-3.3807,-3.3807,-3.3807,-3.3807,-3.3807,-3.3807,-3.3807,-3.3807,-3.3807,-3.3807,-3.3807,-3.3807,-3.3807,-3.3807,-3.3807,-3.3807,-3.4054,-3.4696,-3.4164,-3.4072,-3.4714,-3.4146,-3.3807,-3.3807,-3.3807,-3.3807,-3.3807,-3.3807,-3.3807,-3.3807,-3.3807,-3.3807,-3.3807,-3.3807,-3.3807,-3.3807,-3.3807,-3.3807,-3.3807,-3.4082,-3.4651,-3.5477,-3.6321,-3.7158,-3.7959,-3.8499,-3.875,-3.875,-3.875,-3.8792,-3.8822,-3.4099,-3.4049,-3.3998,-3.3998,-3.3998,-3.3998,-3.3998,-3.3947,-3.3895,-3.3895,-3.3842,-3.3807,-3.3807,-3.3807,-3.3807,-3.3807,-3.3807,-3.3807,-3.3807,-3.3807,-3.3807,-3.3807,-3.4129,-3.4253,-3.4197,-3.4197,-3.4197,-3.4197,-3.3921,-3.381,-3.3796,-3.3796,-3.4559,-3.5953,-3.7019,-3.7746,-3.8246,-3.8864,-3.9111,-3.9249,-4.0558,-4.0139,-3.8745,-3.9071,-3.8981,-3.8758,-3.9008,-3.8921,-3.8707,-3.8707,-3.8707,-3.8707,-3.8707,-3.8138,-3.7331,-3.6541,-3.5697,-3.4825,-3.4027,-3.3807,-3.3807,-3.3807,-3.3807,-3.3807,-3.3807,-3.3807,-3.3807,-3.3807,-3.3807,-3.3807,-3.3807,-3.3807,-3.3807,-3.3807,-3.3807,-3.3807,-3.3807,-3.3807,-3.3807,-3.3807,-3.3807,-3.3807,-3.3807,-3.3807,-3.3807,-3.3807,-3.3807,-3.3807,-3.3807,-3.3807,-3.3807,-3.3807,-3.3807,-3.3807,-3.3807,-3.3807,-3.3807,-3.3807,-3.3807,-3.3807,-3.3807,-3.3807,-3.3807,-3.3844,-3.4642,-3.5514,-3.6358,-3.7165,-3.8015,-3.8792,-3.8792,-3.8851,-3.891,-3.891,-3.891,-3.891,-3.3532,-3.3716,-3.3915,-3.4109,-3.412,-3.4067,-3.4079,-3.4016,-3.3972,-3.3972,-3.3921,-3.385,-3.3813,-3.3797,-3.3807,-3.3807,-3.3807,-3.3807,-3.3807,-3.3807,-3.3807,-3.3807,-3.3887,-3.3939,-3.3921,-3.3921,-3.3921,-3.3921,-3.3842,-3.3778,-3.3784,-3.3784,-3.4334,-3.5336,-3.6814,-3.7886,-3.8633,-3.9951,-4.0714,-4.1027,-4.0677,-3.9852,-3.8829,-3.8855,-3.8799,-3.877,-3.8803,-3.878,-3.8707,-3.8707,-3.8707,-3.8707,-3.8707,-3.8542,-3.8065,-3.6688,-3.6119,-3.5605,-3.4174,-3.3807,-3.3807,-3.3807,-3.3807,-3.3807,-3.3807,-3.3807,-3.3807,-3.3807,-3.3807,-3.3807,-3.3807,-3.3807,-3.3807,-3.3807,-3.3807,-3.3807,-3.3807,-3.3807,-3.3807,-3.3807,-3.3807,-3.4054,-3.4714,-3.4183,-3.4072,-3.4733,-3.4164,-3.3807,-3.3807,-3.3807,-3.3815,-3.3868,-3.3815,-3.386,-3.3947,-3.386,-3.3807,-3.3807,-3.3807,-3.3807,-3.3807,-3.3807,-3.4119,-3.4642,-3.4899,-3.5854,-3.7235,-3.7474,-3.8085,-3.8881,-3.8881,-3.8862,-3.8892,-3.8851,-3.8881,-3.8881,-3.3291,-3.3465,-3.3633,-3.3834,-3.3799,-3.377,-3.378,-3.3734,-3.3689,-3.3689,-3.3625,-3.3578,-3.3514,-3.3522,-3.3569,-3.3698,-3.3788,-3.3842,-3.3842,-3.3815,-3.3807,-3.3807,-3.3807,-3.3807,-3.3807,-3.3807,-3.3807,-3.3807,-3.3807,-3.3807,-3.3807,-3.4137,-3.4724,-3.5605,-3.7569,-3.8891,-3.9753,-4.1368,-4.2066,-4.1959,-4.1001,-4.0102,-3.93,-3.8885,-3.8762,-3.8792,-3.8732,-3.8719,-3.8707,-3.8707,-3.8707,-3.8707,-3.8707,-3.8707,-3.8377,-3.6762,-3.6303,-3.5936,-3.4266,-3.3815,-3.3842,-3.3842,-3.3815,-3.3807,-3.3807,-3.3807,-3.3807,-3.3807,-3.3807,-3.3807,-3.3807,-3.3807,-3.3807,-3.3807,-3.3807,-3.3807,-3.3807,-3.3815,-3.3842,-3.3842,-3.3868,-3.4097,-3.4613,-3.4207,-3.4115,-3.4684,-3.4189,-3.3868,-3.3868,-3.3868,-3.3895,-3.3947,-3.3895,-3.3921,-3.3998,-3.3921,-3.3868,-3.3868,-3.3868,-3.3868,-3.3842,-3.3842,-3.4301,-3.5083,-3.5413,-3.6352,-3.7671,-3.7985,-3.8438,-3.8939,-3.891,-3.8939,-3.8939,-3.8743,-3.8713,-3.8713,-3.3202,-3.3232,-3.3262,-3.3262,-3.3291,-3.3291,-3.3291,-3.3232,-3.322,-3.3238,-3.3147,-3.3099,-3.3099,-3.3117,-3.3208,-3.3549,-3.3753,-3.3868,-3.3895,-3.3842,-3.3807,-3.3807,-3.3807,-3.3807,-3.3807,-3.3807,-3.3807,-3.3807,-3.3807,-3.3844,-3.3917,-3.4642,-3.5514,-3.6505,-3.8854,-4.0359,-4.1222,-4.2818,-4.3039,-4.2231,-4.1423,-4.0648,-3.9915,-3.9105,-3.8792,-3.8792,-3.8792,-3.875,-3.8707,-3.8707,-3.8707,-3.8707,-3.8707,-3.8707,-3.8395,-3.6732,-3.6256,-3.5889,-3.4193,-3.3762,-3.3815,-3.3815,-3.3788,-3.3734,-3.3807,-3.3815,-3.3807,-3.3834,-3.3834,-3.3834,-3.3834,-3.3807,-3.378,-3.378,-3.378,-3.3753,-3.378,-3.3815,-3.3868,-3.3895,-3.3947,-3.3947,-3.3921,-3.3972,-3.3998,-3.3998,-3.3998,-3.3998,-3.3998,-3.3998,-3.3998,-3.3998,-3.3998,-3.3998,-3.4023,-3.3998,-3.3972,-3.3998,-3.3998,-3.4009,-3.4023,-3.4023,-3.452,-3.5414,-3.6149,-3.6951,-3.7771,-3.849,-3.8862,-3.8921,-3.8862,-3.8862,-3.8892,-3.8554,-3.8428,-3.8378,-3.2557,-3.2766,-3.289,-3.289,-3.3124,-3.3291,-3.3291,-3.3291,-3.3345,-3.3502,-3.3322,-3.3124,-3.3033,-3.3063,-3.3117,-3.3208,-3.3502,-3.3726,-3.3895,-3.3895,-3.3842,-3.3788,-3.3807,-3.3807,-3.3807,-3.3807,-3.3807,-3.3807,-3.3807,-3.4119,-3.4734,-3.4917,-3.5807,-3.7312,-3.9093,-4.0359,-4.1222,-4.2818,-4.3039,-4.2231,-4.1423,-4.0648,-3.9902,-3.9062,-3.8732,-3.8792,-3.875,-3.8689,-3.8707,-3.8707,-3.8707,-3.8707,-3.8707,-3.8707,-3.8297,-3.6401,-3.5915,-3.5575,-3.3683,-3.322,-3.328,-3.328,-3.325,-3.3368,-3.3842,-3.3921,-3.3895,-3.3947,-3.3947,-3.3947,-3.3947,-3.378,-3.3643,-3.3643,-3.3415,-3.3339,-3.3587,-3.3661,-3.3753,-3.3947,-3.3807,-3.378,-3.3947,-3.3998,-3.3998,-3.3998,-3.3998,-3.3998,-3.3998,-3.3998,-3.4023,-3.4074,-3.4023,-3.4049,-3.4148,-3.3895,-3.3842,-3.3998,-3.3998,-3.4349,-3.5014,-3.5014,-3.5653,-3.6766,-3.693,-3.733,-3.7878,-3.8041,-3.8198,-3.83,-3.8267,-3.8267,-3.8249,-3.8099,-3.8013,-3.8013,-3.2232,-3.2387,-3.2506,-3.2506,-3.2707,-3.2873,-3.2787,-3.282,-3.2888,-3.2923,-3.2888,-3.2784,-3.2731,-3.2752,-3.2802,-3.2925,-3.325,-3.3455,-3.355,-3.368,-3.3726,-3.3643,-3.378,-3.3815,-3.3807,-3.3807,-3.3807,-3.3807,-3.4192,-3.4816,-3.5642,-3.6413,-3.7441,-3.8707,-4.0322,-4.1277,-4.1735,-4.2561,-4.2451,-4.1662,-4.0855,-4.011,-3.9381,-3.8927,-3.8762,-3.8792,-3.8817,-3.8738,-3.8707,-3.8707,-3.8707,-3.8676,-3.8533,-3.8501,-3.8182,-3.6584,-3.5923,-3.5399,-3.4015,-3.3404,-3.3147,-3.3147,-3.3147,-3.322,-3.3494,-3.3522,-3.3541,-3.355,-3.3578,-3.3578,-3.3578,-3.3455,-3.3357,-3.3357,-3.3208,-3.3147,-3.3327,-3.3386,-3.3455,-3.3606,-3.3541,-3.3512,-3.3662,-3.3634,-3.3689,-3.3895,-3.3743,-3.3743,-3.3895,-3.3743,-3.3689,-3.3716,-3.3671,-3.3716,-3.3752,-3.3578,-3.3522,-3.3616,-3.3662,-3.4101,-3.4877,-3.4877,-3.5636,-3.6971,-3.6971,-3.7341,-3.7998,-3.7998,-3.805,-3.8101,-3.805,-3.7998,-3.7964,-3.7756,-3.7578,-3.7487,-3.2073,-3.2143,-3.2178,-3.2178,-3.2283,-3.2318,-3.2178,-3.2284,-3.2319,-3.2249,-3.2319,-3.2354,-3.2406,-3.2406,-3.2507,-3.2781,-3.3001,-3.3142,-3.319,-3.3415,-3.352,-3.3509,-3.3726,-3.3815,-3.3807,-3.3807,-3.3807,-3.3807,-3.4605,-3.5532,-3.6541,-3.801,-3.9203,-4.0175,-4.1644,-4.2304,-4.2304,-4.2451,-4.1974,-4.1056,-4.0377,-3.9564,-3.8792,-3.8792,-3.8792,-3.8792,-3.8847,-3.8756,-3.8627,-3.8627,-3.8596,-3.8533,-3.8289,-3.8223,-3.7993,-3.684,-3.609,-3.5408,-3.4443,-3.3723,-3.3198,-3.3104,-3.3068,-3.3055,-3.2993,-3.3055,-3.3117,-3.3129,-3.3129,-3.3129,-3.3129,-3.3086,-3.3055,-3.3055,-3.3024,-3.2993,-3.3037,-3.3099,-3.3142,-3.322,-3.3262,-3.3291,-3.3214,-3.3202,-3.3368,-3.368,-3.3465,-3.3408,-3.3707,-3.3437,-3.3291,-3.3291,-3.3291,-3.3273,-3.3273,-3.3154,-3.3093,-3.3093,-3.3237,-3.3754,-3.4609,-3.4736,-3.5551,-3.6836,-3.6836,-3.7266,-3.7931,-3.7931,-3.7931,-3.7897,-3.7791,-3.7738,-3.7703,-3.745,-3.7185,-3.6987,-3.2126,-3.2126,-3.2126,-3.2126,-3.2143,-3.2126,-3.2038,-3.2056,-3.2144,-3.2336,-3.2284,-3.2267,-3.2406,-3.2406,-3.2507,-3.2781,-3.2827,-3.2939,-3.3172,-3.325,-3.3327,-3.3491,-3.352,-3.3633,-3.3807,-3.3807,-3.3807,-3.3807,-3.4605,-3.5807,-3.7379,-3.8267,-3.9515,-4.0983,-4.1901,-4.2304,-4.2359,-4.3039,-4.247,-4.1111,-4.0983,-4.0047,-3.8689,-3.8689,-3.8689,-3.8689,-3.8707,-3.8583,-3.8372,-3.8372,-3.8171,-3.7931,-3.7862,-3.7862,-3.763,-3.6488,-3.6185,-3.5794,-3.4023,-3.3512,-3.3301,-3.2683,-3.2525,-3.2525,-3.2491,-3.2834,-3.322,-3.3262,-3.3262,-3.3262,-3.3262,-3.3032,-3.2844,-3.2844,-3.2639,-3.2574,-3.2813,-3.2844,-3.297,-3.3262,-3.3291,-3.3184,-3.2908,-3.3124,-3.3321,-3.3379,-3.3321,-3.3321,-3.3379,-3.3321,-3.3291,-3.3291,-3.3243,-3.3214,-3.3214,-3.2862,-3.2687,-3.2705,-3.3038,-3.3969,-3.5385,-3.6121,-3.68,-3.7381,-3.7381,-3.7306,-3.7164,-3.7164,-3.7164,-3.7164,-3.7126,-3.7108,-3.7126,-3.7087,-3.7009,-3.6987,-3.1946,-3.1929,-3.1929,-3.1929,-3.1929,-3.1929,-3.1912,-3.1966,-3.2108,-3.2213,-3.2302,-3.2319,-3.2388,-3.2406,-3.2457,-3.2573,-3.2573,-3.2639,-3.2755,-3.2894,-3.3019,-3.3068,-3.322,-3.3357,-3.3368,-3.353,-3.3587,-3.3522,-3.5036,-3.6379,-3.7584,-3.8884,-4.0307,-4.1856,-4.2206,-4.2577,-4.2947,-4.2873,-4.2415,-4.1699,-4.0813,-3.9928,-3.9104,-3.8569,-3.8296,-3.8186,-3.8186,-3.8119,-3.8018,-3.8018,-3.7897,-3.7792,-3.7613,-3.7595,-3.7451,-3.6779,-3.6353,-3.5733,-3.4477,-3.3827,-3.3301,-3.2581,-3.2406,-3.2406,-3.2406,-3.2574,-3.2737,-3.2802,-3.2802,-3.2802,-3.2802,-3.2672,-3.2573,-3.2573,-3.2473,-3.2457,-3.2539,-3.2573,-3.2639,-3.277,-3.2802,-3.2737,-3.2606,-3.2705,-3.2848,-3.3001,-3.288,-3.2848,-3.3001,-3.288,-3.2752,-3.2669,-3.2669,-3.2636,-3.2603,-3.2352,-3.2442,-3.2896,-3.3482,-3.4154,-3.4907,-3.5722,-3.6445,-3.7129,-3.7129,-3.7069,-3.6987,-3.6987,-3.6987,-3.6987,-3.6987,-3.6987,-3.6987,-3.6987,-3.6987,-3.7027]}]]